[[{"header":{"parameterUnit":"m.s-1","parameterCategory":1,"la1":30.6,"la2":28.766,"lo1":-90.7593,"lo2":-88.6598,"dy":0.0162,"dx":0.0183,"nx":116,"ny":114,"refTime":"2023-03-13T12:00:00:Z","depth":0,"parameterNumber":2,"parameterNumberName":"U-component_of_WINDS"},"data":[0.0,0.0,0.0,0.0,0.0,0.0,0.0,0.0,0.0,0.0,0.0,0.0,0.0,0.0,0.0,0.0,0.0,0.0,0.0,0.0,0.0,0.0,0.0,0.0,0.0,0.0,0.0,0.0,0.0,0.0,0.0,0.0,0.0,0.0,0.0,0.0,0.0,0.0,0.0,0.0,0.0,0.0,0.0,0.0,0.0,0.0,0.0,0.0,0.0,0.0,0.0,0.0,0.0,0.0,0.0,0.0,0.0,0.0,0.0,0.0,0.0,0.0,0.0,0.0,0.0,0.0,0.0,0.0,0.0,0.0,0.0,0.0,0.0,0.0,0.0,0.0,0.0,0.0,0.0,0.0,0.0,0.0,0.0,0.0,0.0,0.0,0.0,0.0,0.0,0.0,0.0,0.0,0.0,0.0,0.0,0.0,0.0,0.0,0.0,0.0,0.0,0.0,0.0,0.0,0.0,0.0,0.0,0.0,0.0,0.0,0.0,0.0,0.0,0.0,0.0,0.0,0.0,0.0,0.0,0.0,0.0,0.0,0.0,0.0,0.0,0.0,0.0,0.0,0.0,0.0,0.0,0.0,0.0,0.0,0.0,0.0,0.0,0.0,0.0,0.0,0.0,0.0,0.0,0.0,0.0,0.0,0.0,0.0,0.0,0.0,0.0,0.0,0.0,0.0,0.0,0.0,0.0,0.0,0.0,0.0,0.0,0.0,0.0,0.0,0.0,0.0,0.0,0.0,0.0,0.0,0.0,0.0,0.0,0.0,0.0,0.0,0.0,0.0,0.0,0.0,0.0,0.0,0.0,0.0,0.0,0.0,0.0,0.0,0.0,0.0,0.0,0.0,0.0,0.0,0.0,0.0,0.0,0.0,0.0,0.0,0.0,0.0,0.0,0.0,0.0,0.0,0.0,0.0,0.0,0.0,0.0,0.0,0.0,0.0,0.0,0.0,0.0,0.0,0.0,0.0,0.0,0.0,0.0,0.0,0.0,0.0,0.0,0.0,0.0,0.0,0.0,0.0,0.0,0.0,0.0,0.0,0.0,0.0,0.0,0.0,0.0,0.0,0.0,0.0,0.0,0.0,0.0,0.0,0.0,0.0,0.0,0.0,0.0,0.0,0.0,0.0,0.0,0.0,0.0,0.0,0.0,0.0,0.0,0.0,0.0,0.0,0.0,0.0,0.0,0.0,0.0,0.0,0.0,0.0,0.0,0.0,0.0,0.0,0.0,0.0,0.0,0.0,0.0,0.0,0.0,0.0,0.0,0.0,0.0,0.0,0.0,0.0,0.0,0.0,0.0,0.0,0.0,0.0,0.0,0.0,0.0,0.0,0.0,0.0,0.0,0.0,0.0,0.0,0.0,0.0,0.0,0.0,0.0,0.0,0.0,0.0,0.0,0.0,0.0,0.0,0.0,0.0,0.0,0.0,0.0,0.0,0.0,0.0,0.0,0.0,0.0,0.0,0.0,0.0,0.0,0.0,0.0,0.0,0.0,0.0,0.0,0.0,0.0,0.0,0.0,0.0,0.0,0.0,0.0,0.0,0.0,0.0,0.0,0.0,0.0,0.0,0.0,0.0,0.0,0.0,0.0,0.0,0.0,0.0,0.0,0.0,0.0,0.0,0.0,0.0,0.0,0.0,0.0,0.0,0.0,0.0,0.0,0.0,0.0,0.0,0.0,0.0,0.0,0.0,0.0,0.0,0.0,0.0,0.0,0.0,0.0,0.0,0.0,0.0,0.0,0.0,0.0,0.0,0.0,0.0,0.0,0.0,0.0,0.0,0.0,0.0,0.0,0.0,0.0,0.0,0.0,0.0,0.0,0.0,0.0,0.0,0.0,0.0,0.0,0.0,0.0,0.0,0.0,0.0,0.0,0.0,0.0,0.0,0.0,0.0,0.0,0.0,0.0,0.0,0.0,0.0,0.0,0.0,0.0,0.0,0.0,0.0,0.0,0.0,0.0,0.0,0.0,0.0,0.0,0.0,0.0,0.0,0.0,0.0,0.0,0.0,0.0,0.0,0.0,0.0,0.0,0.0,0.0,0.0,0.0,0.0,0.0,0.0,0.0,0.0,0.0,0.0,0.0,0.0,0.0,0.0,0.0,0.0,0.0,0.0,0.0,0.0,0.0,0.0,0.0,0.0,0.0,0.0,0.0,0.0,0.0,0.0,0.0,0.0,0.0,0.0,0.0,0.0,0.0,0.0,0.0,0.0,0.0,0.0,0.0,0.0,0.0,0.0,0.0,0.0,0.0,0.0,0.0,0.0,0.0,0.0,0.0,0.0,0.0,0.0,0.0,0.0,0.0,0.0,0.0,0.0,0.0,0.0,0.0,0.0,0.0,0.0,0.0,0.0,0.0,0.0,0.0,0.0,0.0,0.0,0.0,0.0,0.0,0.0,0.0,0.0,0.0,0.0,0.0,0.0,0.0,0.0,0.0,0.0,0.0,0.0,0.0,0.0,0.0,0.0,0.0,0.0,0.0,0.0,0.0,0.0,0.0,0.0,0.0,0.0,0.0,0.0,0.0,0.0,0.0,0.0,0.0,0.0,0.0,0.0,0.0,0.0,0.0,0.0,0.0,0.0,0.0,0.0,0.0,0.0,0.0,0.0,0.0,0.0,0.0,0.0,0.0,0.0,0.0,0.0,0.0,0.0,0.0,0.0,0.0,0.0,0.0,0.0,0.0,0.0,0.0,0.0,0.0,0.0,0.0,0.0,0.0,0.0,0.0,0.0,0.0,0.0,0.0,0.0,0.0,0.0,0.0,0.0,0.0,0.0,0.0,0.0,0.0,0.0,0.0,0.0,0.0,0.0,0.0,0.0,0.0,0.0,0.0,0.0,0.0,0.0,0.0,0.0,0.0,0.0,0.0,0.0,0.0,0.0,0.0,0.0,0.0,0.0,0.0,0.0,0.0,0.0,0.0,0.0,0.0,0.0,0.0,0.0,0.0,0.0,0.0,0.0,0.0,0.0,0.0,0.0,0.0,0.0,0.0,0.0,0.0,0.0,0.0,0.0,0.0,0.0,0.0,0.0,0.0,0.0,0.0,0.0,0.0,0.0,0.0,0.0,0.0,0.0,0.0,0.0,0.0,0.0,0.0,0.0,0.0,0.0,0.0,0.0,0.0,0.0,0.0,0.0,0.0,0.0,0.0,0.0,0.0,0.0,0.0,0.0,0.0,0.0,0.0,0.0,0.0,0.0,0.0,0.0,0.0,0.0,0.0,0.0,0.0,0.0,0.0,0.0,0.0,0.0,0.0,0.0,0.0,0.0,0.0,0.0,0.0,0.0,0.0,0.0,0.0,0.0,0.0,0.0,0.0,0.0,0.0,0.0,0.0,0.0,0.0,0.0,0.0,0.0,0.0,0.0,0.0,0.0,0.0,0.0,0.0,0.0,0.0,0.0,0.0,0.0,0.0,0.0,0.0,0.0,0.0,0.0,0.0,0.0,0.0,0.0,0.0,0.0,0.0,0.0,0.0,0.0,0.0,0.0,0.0,0.0,0.0,0.0,0.0,0.0,0.0,0.0,0.0,0.0,0.0,0.0,0.0,0.0,0.0,0.0,0.0,0.0,0.0,0.0,0.0,0.0,0.0,0.0,0.0,0.0,0.0,0.0,0.0,0.0,0.0,0.0,0.0,0.0,0.0,0.0,0.0,0.0,0.0,0.0,0.0,0.0,0.0,0.0,0.0,0.0,0.0,0.0,0.0,0.0,0.0,0.0,0.0,0.0,0.0,0.0,0.0,0.0,0.0,0.0,0.0,0.0,0.0,0.0,0.0,0.0,0.0,0.0,0.0,0.0,0.0,0.0,0.0,0.0,0.0,0.0,0.0,0.0,0.0,0.0,0.0,0.0,0.0,0.0,0.0,0.0,0.0,0.0,0.0,0.0,0.0,0.0,0.0,0.0,0.0,0.0,0.0,0.0,0.0,0.0,0.0,0.0,0.0,0.0,0.0,0.0,0.0,0.0,0.0,0.0,0.0,0.0,0.0,0.0,0.0,0.0,0.0,0.0,0.0,0.0,0.0,0.0,0.0,0.0,0.0,0.0,0.0,0.0,0.0,0.0,0.0,0.0,0.0,0.0,0.0,0.0,0.0,0.0,0.0,0.0,0.0,0.0,0.0,0.0,0.0,0.0,0.0,0.0,0.0,0.0,0.0,0.0,0.0,0.0,0.0,0.0,0.0,0.0,0.0,0.0,0.0,0.0,0.0,0.0,0.0,0.0,0.0,0.0,0.0,0.0,0.0,0.0,0.0,0.0,0.0,0.0,0.0,0.0,0.0,0.0,0.0,0.0,0.0,0.0,0.0,0.0,0.0,0.0,0.0,0.0,0.0,0.0,0.0,0.0,0.0,0.0,0.0,0.0,0.0,0.0,0.0,0.0,0.0,0.0,0.0,0.0,0.0,0.0,0.0,0.0,0.0,0.0,0.0,0.0,0.0,0.0,0.0,0.0,0.0,0.0,0.0,0.0,0.0,0.0,0.0,0.0,0.0,0.0,0.0,0.0,0.0,0.0,0.0,0.0,0.0,0.0,0.0,0.0,0.0,0.0,0.0,0.0,0.0,0.0,0.0,0.0,0.0,0.0,0.0,0.0,0.0,0.0,0.0,0.0,0.0,0.0,0.0,0.0,0.0,0.0,0.0,0.0,0.0,0.0,0.0,0.0,0.0,0.0,0.0,0.0,0.0,0.0,0.0,0.0,0.0,0.0,0.0,0.0,0.0,0.0,0.0,0.0,0.0,0.0,0.0,0.0,0.0,0.0,0.0,0.0,0.0,0.0,0.0,0.0,0.0,0.0,0.0,0.0,0.0,0.0,0.0,0.0,0.0,0.0,0.0,0.0,0.0,0.0,0.0,0.0,0.0,0.0,0.0,0.0,0.0,0.0,0.0,0.0,0.0,0.0,0.0,0.0,0.0,0.0,0.0,0.0,0.0,0.0,0.0,0.0,0.0,0.0,0.0,0.0,0.0,0.0,0.0,0.0,0.0,0.0,0.0,0.0,0.0,0.0,0.0,0.0,0.0,0.0,0.0,0.0,0.0,0.0,0.0,0.0,0.0,0.0,0.0,0.0,0.0,0.0,0.0,0.0,0.0,0.0,0.0,0.0,0.0,0.0,0.0,0.0,0.0,0.0,0.0,0.0,0.0,0.0,0.0,0.0,0.0,0.0,0.0,0.0,0.0,0.0,0.0,0.0,0.0,0.0,0.0,0.0,0.0,0.0,0.0,0.0,0.0,0.0,0.0,0.0,0.0,0.0,0.0,0.0,0.0,0.0,0.0,0.0,0.0,0.0,0.0,0.0,0.0,0.0,0.0,0.0,0.0,0.0,0.0,0.0,0.0,0.0,0.0,0.0,0.0,0.0,0.0,0.0,0.0,0.0,0.0,0.0,0.0,0.0,0.0,0.0,0.0,0.0,0.0,0.0,0.0,0.0,0.0,0.0,0.0,0.0,0.0,0.0,0.0,0.0,0.0,0.0,0.0,0.0,0.0,0.0,0.0,0.0,0.0,0.0,0.0,0.0,0.0,0.0,0.0,0.0,0.0,0.0,0.0,0.0,0.0,0.0,0.0,0.0,0.0,0.0,0.0,0.0,0.0,0.0,0.0,0.0,0.0,0.0,0.0,0.0,0.0,0.0,0.0,0.0,0.0,0.0,0.0,0.0,0.0,0.0,0.0,0.0,0.0,0.0,0.0,0.0,0.0,0.0,0.0,0.0,0.0,0.0,0.0,0.0,0.0,0.0,0.0,0.0,0.0,0.0,0.0,0.0,0.0,0.0,0.0,0.0,0.0,0.0,0.0,0.0,0.0,0.0,0.0,0.0,0.0,0.0,0.0,0.0,0.0,0.0,0.0,0.0,0.0,0.0,0.0,0.0,0.0,0.0,0.0,0.0,0.0,0.0,0.0,0.0,0.0,0.0,0.0,0.0,0.0,0.0,0.0,0.0,0.0,0.0,0.0,0.0,0.0,0.0,0.0,0.0,0.0,0.0,0.0,0.0,0.0,0.0,0.0,0.0,0.0,0.0,0.0,0.0,0.0,0.0,0.0,0.0,0.0,0.0,0.0,0.0,0.0,0.0,0.0,0.0,5.6486,0.0,0.0,0.0,0.0,0.0,0.0,0.0,0.0,0.0,0.0,0.0,0.0,0.0,0.0,0.0,0.0,0.0,0.0,0.0,0.0,0.0,0.0,0.0,0.0,0.0,0.0,0.0,0.0,0.0,0.0,0.0,0.0,0.0,0.0,0.0,0.0,0.0,0.0,0.0,0.0,0.0,0.0,0.0,0.0,0.0,0.0,0.0,0.0,0.0,0.0,0.0,0.0,0.0,0.0,0.0,0.0,0.0,0.0,0.0,0.0,0.0,0.0,0.0,0.0,0.0,0.0,0.0,0.0,0.0,0.0,0.0,0.0,0.0,0.0,0.0,0.0,0.0,0.0,0.0,0.0,0.0,0.0,0.0,0.0,0.0,0.0,0.0,0.0,0.0,0.0,0.0,0.0,0.0,0.0,0.0,0.0,0.0,0.0,0.0,0.0,0.0,0.0,0.0,0.0,0.0,0.0,0.0,0.0,0.0,0.0,0.0,0.0,0.0,0.0,0.0,0.0,5.8437,0.0,0.0,0.0,0.0,0.0,0.0,0.0,0.0,0.0,0.0,0.0,0.0,0.0,0.0,0.0,0.0,0.0,0.0,0.0,0.0,0.0,0.0,0.0,0.0,0.0,0.0,0.0,0.0,0.0,0.0,0.0,0.0,0.0,0.0,0.0,0.0,0.0,0.0,0.0,0.0,0.0,0.0,0.0,0.0,0.0,0.0,0.0,0.0,0.0,0.0,0.0,0.0,0.0,0.0,0.0,0.0,0.0,0.0,0.0,0.0,0.0,0.0,0.0,0.0,0.0,0.0,0.0,0.0,0.0,0.0,0.0,0.0,0.0,0.0,0.0,0.0,0.0,0.0,0.0,0.0,0.0,0.0,0.0,0.0,0.0,0.0,0.0,0.0,0.0,0.0,0.0,0.0,0.0,0.0,0.0,0.0,0.0,0.0,0.0,0.0,0.0,0.0,0.0,0.0,0.0,0.0,0.0,0.0,0.0,0.0,6.8538,6.8692,6.8912,6.8985,6.5601,6.2291,5.9465,0.0,0.0,0.0,0.0,0.0,0.0,0.0,0.0,0.0,0.0,0.0,0.0,0.0,0.0,0.0,0.0,0.0,0.0,0.0,0.0,0.0,0.0,0.0,0.0,0.0,0.0,0.0,0.0,0.0,0.0,0.0,0.0,0.0,0.0,0.0,0.0,0.0,0.0,0.0,7.116,7.1865,7.2055,7.1725,6.8568,0.0,0.0,0.0,0.0,0.0,0.0,0.0,0.0,0.0,0.0,0.0,0.0,0.0,0.0,0.0,0.0,0.0,0.0,0.0,0.0,0.0,0.0,0.0,0.0,0.0,0.0,0.0,0.0,0.0,0.0,0.0,0.0,0.0,0.0,0.0,0.0,0.0,0.0,0.0,0.0,0.0,0.0,0.0,5.5678,5.5596,0.0,0.0,0.0,0.0,0.0,0.0,0.0,0.0,0.0,0.0,0.0,0.0,0.0,0.0,6.6556,6.8171,6.9089,6.9346,7.1659,7.2429,7.1908,7.2576,7.3678,7.4955,7.4404,0.0,6.4194,6.2475,0.0,0.0,0.0,0.0,0.0,0.0,0.0,0.0,0.0,0.0,0.0,0.0,0.0,0.0,0.0,0.0,0.0,0.0,0.0,0.0,0.0,0.0,0.0,0.0,0.0,0.0,0.0,0.0,0.0,0.0,0.0,0.0,0.0,0.0,0.0,0.0,7.0827,7.176,7.2377,7.2535,7.2597,7.2481,6.9873,6.9529,7.0837,6.9566,0.0,0.0,0.0,0.0,0.0,0.0,0.0,0.0,0.0,0.0,0.0,0.0,0.0,0.0,0.0,0.0,0.0,0.0,0.0,0.0,0.0,0.0,0.0,0.0,0.0,0.0,0.0,0.0,0.0,0.0,0.0,0.0,0.0,0.0,0.0,0.0,0.0,0.0,0.0,5.852,5.9129,5.7771,5.9869,6.1004,0.0,0.0,0.0,0.0,0.0,0.0,0.0,0.0,0.0,6.6849,6.8164,6.9743,7.1725,7.3817,7.5322,7.624,7.8214,7.9205,7.9315,7.9653,8.0469,8.1534,8.1085,7.8552,7.4478,7.0153,6.6549,6.3643,0.0,0.0,0.0,0.0,0.0,6.7564,0.0,0.0,0.0,0.0,0.0,0.0,0.0,0.0,0.0,0.0,0.0,0.0,0.0,0.0,0.0,7.2868,0.0,0.0,0.0,0.0,0.0,0.0,0.0,0.0,0.0,0.0,0.0,7.1516,7.3765,7.478,7.4592,7.477,7.4808,7.4773,7.3223,7.2592,7.2575,7.0756,7.0025,0.0,0.0,0.0,0.0,0.0,0.0,0.0,0.0,0.0,0.0,0.0,0.0,0.0,0.0,0.0,0.0,0.0,0.0,0.0,0.0,0.0,0.0,0.0,0.0,0.0,0.0,0.0,0.0,0.0,0.0,0.0,0.0,0.0,0.0,0.0,0.0,0.0,0.0,6.058,6.1765,5.9741,6.2401,6.3509,0.0,0.0,0.0,0.0,0.0,0.0,6.488,6.7136,6.9633,7.2503,7.4147,7.5828,7.7664,7.9947,8.1746,8.3169,8.4784,8.5848,8.6444,8.6444,8.6775,8.7297,8.6261,8.5049,8.3259,7.7121,7.1901,6.7754,6.7754,6.7497,0.0,6.8501,7.033,7.2224,0.0,0.0,0.0,0.0,0.0,0.0,0.0,0.0,0.0,0.0,0.0,0.0,0.0,0.0,7.1897,7.4296,7.3037,7.2377,0.0,0.0,0.0,0.0,0.0,0.0,0.0,0.0,0.0,7.5323,7.5932,7.6966,7.8473,7.9895,8.0569,8.0534,7.8982,7.6396,7.3019,7.0686,6.9876,7.017,0.0,0.0,0.0,0.0,0.0,0.0,0.0,0.0,0.0,0.0,0.0,0.0,0.0,0.0,0.0,0.0,0.0,0.0,0.0,0.0,0.0,0.0,0.0,0.0,0.0,0.0,0.0,0.0,0.0,0.0,0.0,0.0,0.0,0.0,0.0,0.0,0.0,0.0,0.0,6.045,6.3239,0.0,0.0,0.0,0.0,6.2653,6.5927,6.8827,7.0755,7.2459,7.5183,7.9192,8.0873,8.2855,8.5241,8.6885,8.8124,8.8996,9.0629,9.14,9.1436,9.1436,9.1473,9.14,8.9849,8.8674,8.7325,8.0115,7.6041,7.4169,7.1931,7.149,7.2165,7.2239,7.3296,7.4727,0.0,0.0,0.0,0.0,0.0,0.0,0.0,0.0,0.0,0.0,0.0,0.0,0.0,7.2751,7.2255,7.4123,7.3288,7.2581,7.2351,0.0,0.0,0.0,0.0,0.0,0.0,0.0,7.523,7.7919,7.9169,8.0341,8.1419,8.1731,8.1888,8.1854,8.0823,7.974,7.8315,7.3166,7.0822,7.049,6.9233,6.9878,0.0,0.0,0.0,0.0,0.0,0.0,0.0,0.0,0.0,0.0,0.0,0.0,0.0,0.0,0.0,0.0,0.0,0.0,0.0,0.0,0.0,0.0,0.0,0.0,0.0,0.0,0.0,0.0,0.0,0.0,0.0,0.0,0.0,0.0,0.0,0.0,0.0,6.8758,7.0917,0.0,0.0,6.8064,6.8097,6.8979,7.1223,7.4042,7.7341,7.9572,8.2553,8.6628,8.7848,8.9353,9.1262,9.1849,9.2281,9.2574,9.3125,9.3428,9.3428,9.3428,9.3428,9.3391,9.2794,9.1767,9.0262,8.7133,8.3389,7.947,7.8067,7.7737,7.8031,7.8552,7.9764,8.1224,0.0,0.0,0.0,0.0,0.0,0.0,0.0,0.0,0.0,0.0,0.0,7.1395,7.4505,7.2934,7.261,7.4963,7.3492,7.244,7.244,0.0,0.0,0.0,7.4913,0.0,0.0,7.5577,7.7373,8.0034,8.154,8.2583,8.311,8.3121,8.3139,8.3105,8.2374,8.2008,8.1611,7.6647,7.3551,7.1721,6.969,7.0222,7.1989,0.0,0.0,0.0,0.0,0.0,0.0,0.0,0.0,0.0,0.0,0.0,0.0,0.0,0.0,0.0,0.0,0.0,0.0,0.0,0.0,0.0,0.0,0.0,0.0,0.0,0.0,0.0,0.0,0.0,0.0,0.0,0.0,0.0,0.0,0.0,7.2349,7.5036,7.7011,7.7304,7.5139,7.3971,7.3935,7.5278,7.737,8.0233,8.405,8.6297,8.8931,9.2161,9.3345,9.4419,9.5483,9.5768,9.5914,9.5914,9.563,9.552,9.552,9.5227,9.496,9.4703,9.4703,9.3932,9.2611,9.206,8.9638,8.6086,8.3875,8.3206,8.3508,8.4022,8.5233,8.6693,0.0,0.0,0.0,0.0,0.0,0.0,0.0,0.0,0.0,0.0,6.8333,6.9877,7.294,7.2226,7.3092,7.6987,7.3684,7.1988,7.3421,7.2669,0.0,0.0,0.0,0.0,7.4602,7.7821,8.0259,8.1814,8.2951,8.3524,8.3558,8.4289,8.4614,8.458,8.3862,8.3152,8.2361,8.0919,7.7938,7.402,7.2555,7.1017,6.9785,0.0,0.0,0.0,0.0,0.0,0.0,0.0,0.0,0.0,0.0,0.0,0.0,0.0,0.0,0.0,0.0,0.0,0.0,0.0,0.0,0.0,0.0,0.0,0.0,0.0,0.0,0.0,0.0,0.0,0.0,0.0,0.0,0.0,6.6439,7.2202,7.6864,7.8662,8.0946,8.1122,7.7949,7.914,8.0432,8.1232,8.4242,8.7435,9.062,9.2381,9.3996,9.5611,9.7199,9.8016,9.798,9.8741,9.9135,9.9098,9.83,9.7943,9.7906,9.7089,9.6309,9.5575,9.5538,9.507,9.4345,9.4345,9.4309,9.3832,8.9078,8.7684,8.839,8.839,8.9344,9.0656,0.0,0.0,0.0,0.0,0.0,0.0,0.0,0.0,0.0,0.0,7.0758,7.2468,7.4317,7.4508,7.542,7.7623,7.5289,7.3634,7.3522,0.0,0.0,0.0,7.4771,0.0,8.0367,7.9681,8.0903,8.4226,8.4271,8.4289,8.4289,8.4512,8.4614,8.458,8.4377,8.4174,8.395,8.2983,8.1618,7.9632,7.4946,7.3268,7.3292,0.0,0.0,0.0,0.0,0.0,0.0,0.0,0.0,0.0,0.0,0.0,0.0,0.0,0.0,0.0,0.0,0.0,0.0,0.0,0.0,0.0,0.0,0.0,0.0,0.0,0.0,0.0,0.0,0.0,0.0,0.0,0.0,7.1138,7.2415,7.6166,8.0249,8.4233,8.5783,8.6187,8.5298,8.6142,8.7096,8.7904,9.0445,9.2877,9.4923,9.6566,9.7924,9.8961,9.9962,10.0219,9.9668,9.9842,9.9695,9.9098,9.8878,9.8778,9.8741,9.7943,9.7466,9.7199,9.6612,9.5905,9.5171,9.5171,9.4813,9.4162,9.2831,9.2427,9.2611,9.2611,9.2537,9.2308,0.0,0.0,0.0,0.0,0.0,0.0,0.0,0.0,0.0,0.0,7.0478,7.2469,7.3811,7.5003,7.6318,7.7853,7.5912,7.4289,7.3556,0.0,0.0,0.0,7.5218,7.6851,8.1653,8.1251,8.262,8.59,8.5677,8.5574,8.5574,8.5574,8.5574,8.5574,8.5574,8.5574,8.554,8.5114,8.4505,8.3456,7.9342,7.7361,7.6433,7.2856,7.2673,7.408,7.2397,7.2146,7.2357,7.0753,0.0,0.0,0.0,0.0,0.0,0.0,0.0,0.0,0.0,0.0,0.0,0.0,0.0,0.0,0.0,0.0,0.0,0.0,0.0,0.0,0.0,0.0,0.0,0.0,7.4067,7.8626,8.1114,8.2553,8.4866,8.9042,9.0262,9.0886,9.1244,9.1978,9.2932,9.407,9.5804,9.7356,9.8631,9.9916,10.0786,10.131,10.2091,10.2312,10.1788,10.1494,10.109,10.0603,9.9906,9.9612,9.9585,9.9108,9.8704,0.0,9.8264,9.775,9.6969,9.6639,9.6428,0.0,0.0,0.0,0.0,0.0,9.4593,9.3565,0.0,0.0,0.0,0.0,0.0,0.0,0.0,0.0,0.0,0.0,0.0,7.1016,7.2324,7.4332,7.6217,7.7853,7.5845,7.4245,0.0,0.0,7.3767,7.4099,7.7005,7.9373,8.0935,8.2888,8.4877,8.6893,8.6893,8.6893,8.6893,8.6893,8.6893,8.6893,8.6893,8.6893,8.6893,8.6893,8.6535,8.5804,8.4437,8.2069,7.9136,7.6999,7.6599,7.7322,7.8287,7.7029,7.4798,7.4249,0.0,0.0,0.0,0.0,0.0,0.0,0.0,0.0,0.0,0.0,0.0,0.0,0.0,0.0,0.0,0.0,0.0,0.0,0.0,0.0,0.0,0.0,0.0,0.0,8.0702,8.5995,9.0767,9.0335,9.0555,9.3198,9.4299,9.5107,9.5832,9.6712,9.7823,9.9245,10.0089,10.0907,10.1614,0.0,0.0,0.0,0.0,10.41,10.399,10.3282,10.2915,10.2805,10.1384,10.0696,10.0613,10.0613,10.0099,9.9282,9.9989,9.9842,9.9025,9.8337,9.8447,9.8805,9.5841,9.5107,9.5721,9.6428,9.5731,0.0,0.0,0.0,0.0,0.0,0.0,0.0,0.0,0.0,0.0,6.6972,6.9061,7.0977,7.2268,7.3852,7.5676,7.7819,7.5383,7.3992,0.0,7.2954,7.4444,8.0181,8.0097,8.1569,8.505,8.586,8.6453,8.6893,8.6893,8.6893,8.6893,8.6893,8.6893,8.6893,8.6893,8.6893,8.6893,8.6893,8.6825,8.6656,8.6352,8.4099,8.0585,7.7791,7.6895,7.6932,7.5285,7.6025,7.7614,7.658,7.6099,7.5782,7.4443,0.0,0.0,0.0,0.0,0.0,0.0,0.0,0.0,0.0,0.0,0.0,0.0,0.0,0.0,0.0,0.0,0.0,0.0,0.0,0.0,8.1921,8.6958,9.1702,9.5887,9.7346,9.7456,9.6171,9.7309,9.8217,9.8401,9.9732,10.0696,10.099,10.1788,10.2291,10.2485,10.3786,0.0,10.4593,10.5495,10.5605,10.4897,10.4714,10.431,10.3707,0.0,0.0,10.2218,10.2218,10.141,10.0099,10.0209,9.9842,9.9098,9.8915,9.8951,9.8951,9.7713,9.6906,9.6502,9.6649,9.6088,9.5281,0.0,0.0,0.0,0.0,0.0,0.0,0.0,0.0,0.0,0.0,6.7244,6.8756,7.0566,7.2078,7.3397,7.4559,7.2947,0.0,7.3706,7.4014,7.6448,8.1614,8.2237,8.411,8.7609,8.7912,8.8361,8.9106,8.9106,8.9106,8.9106,8.9106,8.9106,8.9106,8.9106,8.9106,8.9106,8.9106,8.8666,8.7989,8.7989,8.6433,8.3862,8.1617,8.0794,8.0643,7.8867,7.8811,7.9441,7.8829,7.8063,7.7187,7.5888,7.4103,7.2415,0.0,0.0,0.0,0.0,0.0,0.0,0.0,0.0,0.0,0.0,0.0,0.0,0.0,0.0,7.1204,0.0,0.0,8.4233,8.872,9.3538,9.7833,10.11,10.2595,10.2301,9.9448,9.9805,10.0503,10.0907,10.2008,10.2899,10.3293,10.41,10.4588,10.4588,10.5311,10.5899,10.6302,10.6386,10.6386,10.6386,10.5484,10.4897,10.4504,10.41,10.3696,10.3293,10.3293,10.2889,10.2091,10.1714,10.131,10.0907,10.0503,9.9842,9.9098,9.9108,9.8594,9.7887,9.7887,9.7667,9.7226,0.0,0.0,0.0,0.0,0.0,0.0,0.0,0.0,0.0,0.0,6.5114,6.6146,6.8402,6.9711,7.0489,0.0,0.0,7.1577,7.3331,7.6,7.9055,8.2399,8.4431,8.667,8.9255,8.9593,9.0256,9.1305,9.144,9.144,9.1305,9.1305,9.1305,9.1305,9.1305,9.1305,9.1305,9.1305,9.0608,8.9526,8.9526,8.8734,8.74,8.6014,8.5303,8.4929,8.3834,8.2367,8.0904,8.1235,7.9558,7.7242,7.6813,7.6123,7.5248,7.4052,7.3817,0.0,0.0,0.0,0.0,0.0,0.0,0.0,0.0,0.0,7.1071,7.1211,7.3964,7.7076,7.9543,8.5123,9.0702,9.4813,9.9265,10.3009,10.5311,10.6302,10.5909,10.3193,10.2789,10.2899,10.3586,10.421,10.4918,10.5484,10.6082,10.6386,10.6386,10.6486,10.6911,10.7388,10.7,10.7011,10.7388,10.6192,10.5484,10.5301,10.4687,10.4284,10.41,10.4284,10.421,10.389,10.3219,10.2805,10.2585,10.2008,10.0917,9.9659,10.0503,10.0283,9.9548,9.9208,9.8988,9.8778,0.0,0.0,0.0,0.0,0.0,0.0,0.0,0.0,0.0,0.0,0.0,0.0,0.0,0.0,0.0,0.0,7.1255,7.4076,7.6283,7.8545,8.1782,8.6122,8.7788,8.9052,9.0053,9.1358,9.1798,9.1305,9.1967,9.1933,9.1305,9.1305,9.1305,9.1305,9.1305,9.1305,9.1305,9.1305,9.1203,9.1048,9.1048,9.056,8.9734,8.8903,8.7786,8.6535,8.5762,8.406,8.2433,8.4086,8.2222,7.9631,8.219,8.0524,7.7703,7.7853,0.0,7.4397,7.2782,7.0073,6.7847,6.8495,6.8781,6.9259,0.0,0.0,7.4581,7.5285,7.8589,8.2113,8.4544,8.972,9.4933,9.8961,10.2522,10.5301,10.7095,10.8002,10.8395,10.7991,10.7388,10.6984,10.7011,10.7084,10.7194,10.7304,10.6706,10.6386,10.6386,10.7095,10.7205,10.6607,10.7807,10.7881,10.6486,10.7095,10.7021,10.6313,10.6203,10.5715,10.5007,10.5799,10.5311,10.389,10.3806,10.3403,10.2695,10.2585,10.2008,10.1284,10.2118,10.1898,10.111,9.9612,9.8668,9.8016,0.0,0.0,0.0,0.0,0.0,0.0,0.0,0.0,0.0,0.0,0.0,0.0,0.0,0.0,0.0,0.0,7.006,7.3544,7.669,8.0175,8.393,8.7989,8.9579,9.0729,9.1459,9.2556,9.2928,9.2638,9.3387,9.3353,9.2638,9.2638,9.2875,9.3267,9.3267,9.3503,9.3876,9.347,9.303,9.2605,9.215,9.1223,9.0174,8.985,8.8294,8.6095,8.4877,8.3016,0.0,0.0,8.2112,8.0734,8.328,8.2271,8.0081,7.9793,7.8078,0.0,7.2055,7.0807,7.055,0.0,7.2789,7.5102,7.715,7.9866,8.2031,8.2362,8.6077,8.9977,9.24,9.6328,10.0403,0.0,10.6093,10.7797,10.9507,11.001,10.9679,10.8295,10.8589,10.8809,10.8285,10.8295,10.8295,10.8295,10.8002,10.7807,10.7807,10.8101,10.8406,10.8516,10.8688,10.8688,10.8516,10.8406,10.7892,10.7095,10.7095,10.668,10.5899,10.6192,10.5715,10.4604,10.4604,10.409,10.3403,10.3403,10.3182,10.2889,10.3303,10.2889,10.2081,10.141,10.0686,9.9925,0.0,0.0,0.0,0.0,0.0,0.0,0.0,0.0,0.0,0.0,0.0,0.0,0.0,0.0,0.0,6.5087,6.8707,7.2586,7.6318,8.0716,8.4945,8.8917,9.0507,9.1643,9.2358,9.3571,9.4093,9.389,9.4654,9.4721,9.4195,9.3992,9.4282,9.5011,9.5011,9.5296,9.577,9.5229,9.4586,9.3842,9.3252,9.2034,9.0459,8.9836,8.7617,8.4721,8.3592,8.1359,0.0,0.0,8.0044,7.9419,8.2216,8.228,8.12,8.0504,7.8709,7.6261,7.2966,7.2929,0.0,7.5506,7.8222,8.1387,8.4499,8.7362,8.9528,9.0216,9.3345,9.6695,9.9118,10.1594,10.4394,10.7414,10.8589,10.9606,11.099,11.0586,10.9507,10.7488,10.7708,10.7881,10.7807,10.8395,10.8909,10.9092,10.8909,10.8799,10.8799,10.8982,10.9312,10.969,10.9496,10.9496,10.969,10.9312,10.8688,10.7892,10.7892,10.7598,10.7084,10.679,10.6313,10.5411,10.5191,10.4798,10.421,10.399,10.389,10.389,10.389,10.3513,10.2999,10.2815,10.2091,10.111,0.0,0.0,0.0,0.0,0.0,0.0,0.0,0.0,0.0,0.0,0.0,0.0,0.0,0.0,6.3579,6.3579,6.7658,7.1797,7.5473,7.9925,8.4437,8.8883,9.0507,9.1643,9.2358,9.4586,9.5364,9.4673,9.5398,9.5736,9.5702,9.4992,9.506,9.577,9.577,9.577,9.5804,9.577,9.533,9.4673,9.4639,9.33,9.1034,8.8869,8.5757,8.2496,8.2462,0.0,0.0,0.0,7.5868,7.4782,7.9131,8.0485,0.0,7.9926,7.806,0.0,0.0,0.0,7.828,8.3067,8.4903,8.6857,9.1657,9.4052,9.5924,9.8254,9.9465,10.0917,10.3303,10.4383,10.5804,10.8395,10.9386,11.0314,11.1111,10.9213,10.7388,10.6486,10.4404,10.3502,0.0,10.7404,10.9092,10.9911,10.9202,10.8799,10.8799,10.9496,10.9617,10.8909,11.0293,11.0403,10.8909,10.9617,10.958,10.8809,10.8809,10.8809,10.8688,10.7892,10.7084,10.6313,10.5495,10.5117,10.5007,10.421,10.389,10.389,10.389,10.389,10.3817,10.2999,10.1714,10.0209,0.0,0.0,0.0,0.0,0.0,0.0,0.0,0.0,0.0,0.0,0.0,0.0,0.0,0.0,0.0,0.0,6.723,7.0719,7.3354,7.8179,8.2509,8.5946,8.899,9.0932,9.1643,9.3402,9.4229,9.3977,9.4721,9.4823,9.433,9.4093,9.462,9.577,9.5296,9.5905,9.7157,9.5702,9.577,9.6634,9.3639,9.259,9.2469,8.9241,8.4776,7.9993,0.0,0.0,0.0,0.0,0.0,0.0,7.6022,0.0,0.0,7.7325,0.0,0.0,0.0,0.0,8.56,8.9931,9.2831,9.5474,9.8741,10.0713,10.1888,10.2191,10.2081,10.2108,10.2999,10.3282,10.431,10.678,10.8285,10.969,11.099,11.0487,10.8505,10.4394,10.4698,0.0,0.0,0.0,0.0,10.9801,10.9679,10.979,11.0414,11.0586,11.0707,11.0403,11.088,11.0917,11.0403,11.0707,11.0414,10.9617,10.8516,10.8002,10.8002,10.7194,10.668,10.6386,10.6093,10.6009,10.5899,10.5689,10.5616,10.5616,10.5616,10.5201,10.4604,10.3806,10.2815,10.1788,0.0,0.0,0.0,0.0,0.0,0.0,0.0,0.0,0.0,0.0,0.0,0.0,0.0,0.0,0.0,0.0,0.0,6.8842,7.0668,7.4965,7.8855,8.209,8.4796,8.6704,8.7685,8.8951,8.9999,9.0811,9.1541,9.2339,9.3165,9.2909,9.3586,9.5007,9.4518,9.5093,9.6345,9.4924,9.4823,9.5296,9.1609,9.0067,8.9526,8.5215,8.0581,0.0,0.0,0.0,0.0,0.0,0.0,0.0,0.0,0.0,0.0,0.0,0.0,0.0,0.0,8.8362,9.2657,9.6695,9.9732,10.2301,10.4394,10.5495,10.5605,10.421,10.2815,10.1788,10.1494,10.0503,10.098,10.4918,10.5909,10.7304,11.0304,10.9312,10.6989,10.3906,10.3403,10.2109,0.0,0.0,0.0,10.8212,10.9409,11.0498,11.1588,11.1405,11.1284,11.1577,11.1284,11.121,11.121,11.121,11.088,11.0414,10.9397,10.8699,10.8406,10.7892,10.7488,10.7183,10.6596,10.6607,10.679,10.6192,10.6082,10.6302,10.5678,10.5301,10.4887,10.3596,10.2889,10.2512,0.0,0.0,0.0,0.0,0.0,0.0,0.0,0.0,0.0,0.0,0.0,0.0,0.0,0.0,0.0,0.0,0.0,0.0,6.7665,7.0534,7.3815,7.7481,7.8483,7.9634,8.1101,8.1866,8.3321,8.5499,8.6196,8.8381,9.1831,9.1135,9.1623,9.3078,9.3045,9.3078,9.3112,9.3011,9.2199,9.0763,8.8429,8.5824,8.2813,7.7604,7.3803,7.077,6.718,0.0,0.0,0.0,0.0,0.0,0.0,0.0,0.0,0.0,0.0,8.4894,8.9776,9.463,9.9265,10.3182,10.5385,10.7,10.8505,10.8185,10.6801,10.421,10.1688,9.9622,0.0,0.0,9.6218,10.2495,10.2495,10.3596,10.9287,10.6093,10.3613,0.0,0.0,0.0,0.0,0.0,0.0,10.5187,0.0,11.0487,11.2201,11.1595,11.1485,11.2286,11.1588,11.121,11.121,11.121,11.121,11.121,11.1184,11.0696,10.9984,10.9984,10.9507,10.8699,10.7194,10.69,10.7498,10.5799,10.5584,10.6192,10.4494,10.4384,10.4777,10.2512,10.2081,10.2512,0.0,0.0,0.0,0.0,0.0,0.0,0.0,0.0,0.0,0.0,0.0,0.0,0.0,0.0,0.0,0.0,0.0,0.0,6.5447,6.7692,7.0229,7.289,7.5303,7.7266,7.88,7.9566,8.0513,8.1629,8.1832,8.2678,8.4146,8.3943,8.4654,8.6061,8.5486,8.5892,8.6792,8.5127,8.5148,8.598,8.2103,8.1067,8.1338,7.6657,7.3037,7.0306,6.8902,6.7279,0.0,0.0,0.0,0.0,0.0,7.5689,7.8193,0.0,0.0,9.0931,9.6355,10.099,10.4918,10.7708,10.9202,10.9889,10.9679,10.8101,10.5689,10.2018,9.786,9.3923,0.0,0.0,0.0,9.786,10.1714,0.0,11.0304,10.9815,0.0,10.6302,0.0,10.2399,9.9474,10.051,0.0,0.0,10.4909,10.7496,11.1305,11.0797,11.0714,11.1482,11.1284,11.121,11.121,11.121,11.121,11.121,11.0597,11.0204,10.9984,10.9397,10.8699,10.7892,10.8101,10.8002,10.7508,10.5996,10.551,10.5594,10.3904,10.3783,10.4405,10.3614,10.3403,10.3403,0.0,0.0,0.0,0.0,0.0,0.0,0.0,0.0,0.0,0.0,0.0,0.0,0.0,0.0,0.0,0.0,0.0,0.0,0.0,6.5087,6.6667,6.829,7.0263,7.1729,7.2575,7.3308,7.4547,7.6272,7.6272,7.7502,7.9849,7.9172,7.9464,8.0581,7.9803,8.0141,8.1143,7.9904,8.0073,0.0,0.0,7.6398,7.6454,7.2293,6.9451,6.7608,6.6631,6.7183,6.8694,7.0895,0.0,7.5718,7.8324,8.0828,8.3765,8.8647,0.0,9.7172,10.2212,10.6203,10.9386,11.1207,11.1709,11.1001,10.8002,10.5689,10.2385,9.5804,9.1767,0.0,8.405,8.5922,0.0,0.0,0.0,0.0,10.99,10.979,10.8898,0.0,10.66,0.0,10.2514,10.2498,10.298,0.0,10.5496,10.8001,11.1598,11.1381,11.158,11.2693,11.1808,11.0892,11.021,10.9583,10.9306,10.9306,10.948,10.9601,10.9588,10.9815,10.9606,10.9213,0.0,10.8505,10.7989,10.581,10.5287,10.5687,10.3387,10.3393,10.4515,10.3714,10.3403,10.3293,0.0,0.0,0.0,0.0,0.0,0.0,0.0,0.0,0.0,0.0,0.0,0.0,0.0,0.0,0.0,0.0,0.0,0.0,0.0,0.0,6.369,6.441,6.5155,6.5605,6.5706,6.643,6.8087,7.0692,7.0692,7.2766,7.6635,7.527,7.51,7.5845,7.5134,7.5202,7.5845,7.5743,7.5709,7.5506,7.3454,7.1853,7.0353,0.0,0.0,6.4764,6.364,6.6446,7.1372,7.6273,7.8239,7.9417,8.4233,8.7472,9.0445,9.5208,9.9328,10.3089,10.6782,10.9999,11.2405,11.3112,11.2405,11.0215,10.4903,10.1908,9.7576,8.8271,0.0,8.2333,7.8626,8.0857,8.5408,9.2024,0.0,10.2008,10.9287,10.8516,10.8295,11.1184,10.8107,10.6105,10.6989,10.4995,10.4196,10.5692,10.77,10.9785,11.1917,11.1892,11.2501,11.3809,11.181,11.0011,10.8717,10.7404,10.681,10.6788,10.8291,10.9001,10.9086,11.0488,11.11,11.1001,0.0,0.0,10.8701,10.5516,10.4995,10.5911,10.2787,10.2918,10.4595,10.3279,10.2915,10.2989,0.0,0.0,0.0,0.0,0.0,0.0,0.0,0.0,0.0,0.0,6.0833,6.1746,0.0,0.0,0.0,0.0,0.0,0.0,0.0,0.0,0.0,6.3656,6.441,6.5097,6.5683,6.643,6.7072,6.758,6.758,6.829,6.9654,6.9383,6.9688,7.0466,7.0297,7.0331,7.0398,6.9755,6.9451,6.9383,6.8358,6.7817,6.7444,0.0,0.0,0.0,6.7445,6.7876,6.9573,7.9112,8.3648,8.6069,9.0289,9.3749,9.7025,10.12,10.4404,10.6917,10.83,11.009,11.1502,11.1695,10.9595,10.6718,10.3604,9.8053,0.0,0.0,8.0131,7.6937,7.4926,7.8854,8.4756,9.195,9.7603,10.3596,11.1012,11.1588,11.1808,0.0,11.0401,0.0,0.0,0.0,0.0,0.0,0.0,10.8689,10.9594,10.9091,10.8887,10.9117,10.8102,10.739,10.7187,10.6896,10.681,10.6788,10.8291,10.9001,10.9086,11.0488,11.0806,11.0204,0.0,0.0,10.9501,10.5302,10.4112,10.4601,10.1411,10.12,10.2792,10.3401,10.409,10.4604,0.0,0.0,0.0,0.0,0.0,0.0,0.0,5.9143,6.052,6.2076,6.3718,6.4451,6.3563,6.4226,0.0,0.0,0.0,0.0,0.0,0.0,0.0,0.0,0.0,0.0,6.4546,6.4908,0.0,0.0,0.0,6.644,6.7895,0.0,0.0,0.0,6.6914,6.6981,6.7297,6.6924,6.6981,6.7309,6.6937,0.0,0.0,0.0,0.0,0.0,0.0,6.8838,7.1028,7.8276,8.4881,9.096,9.6394,10.0283,10.3596,10.679,10.8605,10.97,11.0508,11.1406,11.2005,11.1912,10.9214,10.4883,9.9029,0.0,0.0,0.0,7.4331,7.2503,7.0851,7.5917,8.1901,8.6664,9.2547,9.9338,10.7514,10.82,10.9218,11.2593,11.1086,10.9601,0.0,0.0,0.0,0.0,0.0,10.8013,10.9114,10.9186,10.8792,10.7917,10.6908,10.6089,10.569,10.49,10.4604,10.46,10.6008,10.7084,10.7884,10.9415,11.0004,10.9915,10.879,0.0,10.7313,10.3303,10.2313,10.3202,10.1213,10.1588,10.3398,10.4207,10.4504,10.4383,0.0,0.0,0.0,0.0,0.0,0.0,0.0,6.1247,6.2955,6.4959,6.7114,6.7547,6.5124,6.5118,6.4619,0.0,0.0,0.0,0.0,0.0,0.0,0.0,0.0,0.0,0.0,0.0,0.0,0.0,0.0,0.0,0.0,0.0,0.0,0.0,0.0,0.0,0.0,6.5943,6.6271,0.0,0.0,0.0,0.0,0.0,0.0,0.0,0.0,6.9296,7.1871,7.692,8.3773,9.1452,9.8437,10.4,10.8196,10.9716,11.0687,11.139,11.1696,11.1814,11.1806,11.1606,10.7981,10.2418,9.4442,8.8234,0.0,7.2056,6.9823,6.9309,6.8391,7.32,7.8442,8.1893,8.7481,9.452,10.3586,10.4603,10.6492,11.1892,11.1088,0.0,10.9287,0.0,0.0,0.0,0.0,0.0,10.8414,10.8886,10.8479,10.6989,10.5809,10.4815,10.4184,10.3105,10.2486,10.2502,10.391,10.5201,10.6385,10.7702,10.8678,10.9191,10.7004,0.0,0.0,10.1612,10.0906,10.1889,10.0898,10.1919,10.3904,10.4516,10.4515,10.41,0.0,0.0,0.0,0.0,0.0,0.0,0.0,6.3308,6.5316,6.9027,7.0368,7.0066,6.7627,6.6145,6.4602,0.0,0.0,0.0,0.0,0.0,0.0,0.0,0.0,0.0,0.0,0.0,0.0,0.0,0.0,0.0,0.0,0.0,0.0,0.0,0.0,0.0,0.0,0.0,0.0,0.0,0.0,0.0,0.0,0.0,0.0,0.0,0.0,6.9033,6.9139,7.7018,8.0644,8.3311,9.1445,10.0796,10.8395,10.7194,0.0,0.0,10.9783,10.9482,10.9406,10.8705,10.3493,9.7197,9.2218,0.0,7.7164,7.1296,6.8949,6.8325,6.9639,7.1615,7.5315,8.217,8.6867,9.3005,10.2715,10.5298,10.7786,11.1995,0.0,0.0,10.9197,10.7808,0.0,0.0,0.0,0.0,10.6101,10.5502,10.4784,10.3986,10.3197,10.2811,10.2693,10.2616,10.2486,10.2502,10.391,10.4699,10.4821,10.5603,10.6396,10.6987,0.0,0.0,0.0,10.159,10.0581,10.1209,9.9701,10.0402,10.251,10.3112,10.4006,10.4897,0.0,0.0,0.0,0.0,0.0,0.0,6.1371,6.2777,6.4999,6.9396,7.074,7.0763,6.9309,6.7694,6.5467,0.0,0.0,0.0,0.0,0.0,0.0,0.0,0.0,0.0,0.0,0.0,0.0,0.0,0.0,0.0,0.0,0.0,0.0,0.0,0.0,0.0,0.0,0.0,0.0,0.0,0.0,0.0,0.0,0.0,0.0,0.0,0.0,0.0,6.868,7.2079,7.5587,7.8957,8.1373,8.9042,9.797,10.239,10.5212,10.7307,10.8813,10.9209,10.901,10.8191,10.2103,9.4921,8.9882,0.0,7.4012,6.9568,6.74,6.6733,6.8355,6.9162,7.1164,7.5887,7.8403,8.3,9.2254,9.4356,9.7694,10.5199,10.5888,0.0,0.0,0.0,0.0,0.0,0.0,0.0,10.5208,10.4903,10.4379,10.3585,10.2908,10.2486,10.2486,10.2486,10.2486,10.2502,10.3087,10.3791,10.4605,10.4887,10.5194,10.5304,0.0,0.0,0.0,10.0606,9.9916,10.0496,9.9878,10.0189,10.119,10.311,10.3515,10.3186,0.0,0.0,0.0,0.0,0.0,5.8051,6.1656,6.3212,6.5497,6.9771,7.1114,7.1167,6.9889,6.8098,6.5542,6.1911,0.0,0.0,0.0,0.0,0.0,0.0,0.0,0.0,0.0,0.0,0.0,0.0,0.0,0.0,0.0,0.0,0.0,0.0,0.0,0.0,0.0,0.0,0.0,0.0,0.0,0.0,0.0,0.0,0.0,0.0,0.0,0.0,0.0,0.0,0.0,7.4865,7.4357,7.9528,8.7545,9.6276,10.0888,10.3892,10.7205,10.8318,10.8405,10.7797,10.1096,9.3286,0.0,0.0,7.1898,6.811,6.6256,6.5735,6.7106,6.7554,6.8719,7.1804,7.332,7.7131,8.5745,8.7387,9.0868,9.9315,0.0,10.2403,0.0,0.0,0.0,0.0,0.0,0.0,0.0,10.4684,10.4294,10.3314,10.2806,10.2486,10.2486,10.2486,10.2486,10.2486,10.2486,10.3008,10.3986,10.3504,10.3712,10.4412,0.0,0.0,0.0,9.9721,9.8928,9.9183,9.939,9.9596,10.0112,10.238,10.2693,10.21,0.0,0.0,0.0,0.0,0.0,0.0,6.3328,6.5445,6.7637,7.0848,7.2004,7.1571,6.9185,6.6763,6.4303,6.1803,0.0,0.0,0.0,0.0,0.0,0.0,0.0,0.0,0.0,0.0,0.0,6.3511,6.3511,0.0,0.0,0.0,0.0,0.0,0.0,0.0,0.0,0.0,0.0,0.0,0.0,0.0,0.0,0.0,0.0,0.0,0.0,0.0,0.0,0.0,0.0,0.0,0.0,7.4801,7.9336,8.9069,9.603,10.1307,10.4602,10.622,10.6911,10.69,9.9829,9.1828,8.8043,7.9303,7.0983,6.7277,6.5882,6.5552,6.6366,6.7143,6.8758,7.1967,7.4348,7.8557,8.6466,8.8213,9.0736,9.621,9.6275,9.7646,10.208,0.0,0.0,0.0,0.0,0.0,0.0,10.4684,10.399,10.2603,10.2486,10.2486,10.2486,10.2486,10.2486,10.2486,10.2486,10.2502,10.25,10.0912,10.1802,0.0,0.0,0.0,0.0,9.9216,9.7578,9.7,9.7729,9.8424,9.9188,10.0506,10.1394,10.1992,0.0,0.0,0.0,0.0,0.0,0.0,0.0,6.1706,6.3536,6.6786,6.7901,6.8311,6.8098,6.6439,6.4522,6.2608,0.0,0.0,0.0,0.0,0.0,0.0,0.0,0.0,0.0,0.0,6.2753,6.3511,6.3994,6.4367,6.4647,0.0,0.0,0.0,0.0,0.0,0.0,0.0,0.0,0.0,0.0,0.0,0.0,0.0,0.0,0.0,0.0,0.0,0.0,0.0,0.0,0.0,0.0,0.0,0.0,7.936,8.6593,9.3176,9.5472,9.6944,9.7492,9.61,9.0814,8.5188,8.2143,7.6211,7.0392,6.7181,6.5845,6.5362,6.5625,6.5882,6.7614,7.2351,7.4176,7.6759,8.1816,8.5669,8.9673,9.4335,10.0789,10.531,0.0,0.0,0.0,0.0,0.0,0.0,0.0,10.4684,10.399,10.252,10.2486,10.2486,10.2486,10.2486,10.2486,10.2486,10.2486,10.2181,10.169,10.1216,0.0,0.0,0.0,0.0,0.0,9.8777,9.8149,9.8213,9.6986,9.6628,9.696,9.8375,9.8668,9.8624,0.0,0.0,0.0,0.0,0.0,0.0,0.0,6.0192,6.1622,6.3635,6.4897,6.5785,6.6305,6.5154,6.3809,6.2471,0.0,0.0,0.0,0.0,0.0,0.0,0.0,0.0,0.0,6.2391,6.3024,6.4343,6.4783,6.529,6.5865,6.6779,6.6677,0.0,0.0,0.0,0.0,0.0,0.0,0.0,0.0,0.0,6.8104,0.0,0.0,0.0,0.0,0.0,0.0,0.0,0.0,0.0,0.0,0.0,0.0,0.0,7.8421,8.4092,8.9166,9.175,9.2781,9.182,8.7083,0.0,8.0098,7.4522,6.9041,6.6553,6.5148,6.445,6.4787,6.4829,6.6202,7.0517,7.1746,7.3813,7.8443,8.288,8.7774,9.3569,0.0,0.0,0.0,0.0,0.0,0.0,0.0,0.0,0.0,0.0,10.3686,10.2486,10.2486,10.2486,10.2486,10.2486,10.2486,10.2486,10.2486,10.2299,10.1808,10.1183,0.0,0.0,0.0,0.0,0.0,9.8417,9.7661,9.7671,9.631,9.5635,9.5559,9.6936,9.7134,9.6949,0.0,0.0,0.0,0.0,0.0,0.0,0.0,0.0,6.1416,6.1416,6.2848,6.3846,6.3919,6.3209,6.2384,6.1566,0.0,0.0,0.0,0.0,0.0,0.0,0.0,0.0,0.0,6.2323,6.3372,6.5537,6.5639,6.6417,6.7827,6.7895,6.7161,6.5774,6.5774,0.0,0.0,0.0,0.0,0.0,0.0,0.0,0.0,0.0,0.0,0.0,0.0,0.0,0.0,0.0,0.0,0.0,0.0,0.0,0.0,0.0,0.0,0.0,0.0,8.8923,9.0858,9.1455,8.6536,8.1258,8.0434,7.378,0.0,6.5625,6.4004,6.3166,6.4096,6.4114,6.4903,6.7745,6.8425,7.0679,7.6745,8.0868,0.0,0.0,10.0506,0.0,0.0,0.0,0.0,0.0,0.0,0.0,0.0,0.0,10.3212,10.2384,10.2384,10.2418,10.2486,10.2418,10.2418,10.2486,10.2384,10.2317,10.2299,10.0795,0.0,0.0,0.0,0.0,0.0,9.7959,9.6394,9.5702,9.5669,9.5195,9.4682,9.5989,9.6456,9.649,0.0,0.0,0.0,0.0,0.0,0.0,0.0,0.0,0.0,0.0,6.0633,6.1484,6.2114,6.1998,6.1554,0.0,0.0,0.0,0.0,0.0,0.0,0.0,0.0,0.0,0.0,6.1569,6.2381,6.4028,6.5165,6.618,6.7072,6.7658,6.7421,6.6531,6.6531,6.6531,0.0,0.0,0.0,0.0,0.0,0.0,0.0,0.0,0.0,0.0,6.9456,6.9015,0.0,0.0,0.0,0.0,0.0,0.0,0.0,0.0,7.0088,0.0,7.4485,0.0,7.7146,7.641,7.4939,7.3479,0.0,7.055,6.7974,6.5772,6.4494,6.4237,6.5675,6.4814,6.6177,7.2992,0.0,7.4034,7.9521,0.0,0.0,10.1503,0.0,0.0,0.0,0.0,0.0,0.0,0.0,0.0,0.0,0.0,10.2976,10.1706,10.1722,10.1893,10.2486,10.1893,10.1893,10.2502,10.1302,10.0711,10.0693,9.9796,0.0,0.0,0.0,0.0,9.7835,9.6594,9.5601,9.4909,9.4364,9.3639,9.3059,9.3995,9.3956,9.3578,0.0,0.0,0.0,0.0,0.0,0.0,0.0,0.0,0.0,0.0,0.0,0.0,0.0,0.0,0.0,0.0,0.0,0.0,0.0,0.0,0.0,0.0,0.0,0.0,6.0757,6.0757,6.1839,6.3994,6.4783,6.6102,6.785,6.7895,6.732,6.6271,6.5584,6.5652,0.0,0.0,0.0,0.0,0.0,0.0,0.0,0.0,0.0,0.0,6.8832,6.8685,0.0,6.9265,6.9736,6.9883,0.0,0.0,0.0,0.0,6.8342,6.902,6.9033,7.1375,7.3615,7.2958,7.2219,7.1496,7.0811,6.8892,6.6763,6.5081,6.409,6.4016,6.5662,6.5155,6.6145,0.0,7.2353,0.0,0.0,0.0,9.7428,10.3499,0.0,0.0,0.0,0.0,0.0,0.0,0.0,0.0,0.0,10.3483,10.262,10.1402,10.1402,10.1386,10.1388,10.0998,10.0998,10.1388,10.0592,10.022,10.0186,9.9424,0.0,0.0,0.0,0.0,9.636,9.5939,9.5364,9.462,9.389,9.3098,9.2459,9.2895,9.2556,9.1995,0.0,0.0,0.0,0.0,0.0,0.0,0.0,0.0,0.0,0.0,0.0,0.0,0.0,0.0,0.0,0.0,0.0,0.0,0.0,0.0,0.0,0.0,0.0,5.981,5.9945,6.0047,6.14,6.4106,6.4884,6.6609,6.9079,6.8741,6.7624,6.5808,6.4333,6.441,0.0,0.0,0.0,0.0,6.7596,0.0,0.0,0.0,0.0,0.0,0.0,0.0,0.0,6.9038,6.9919,7.0683,6.9332,0.0,0.0,0.0,0.0,0.0,6.6952,7.0644,7.4581,7.3957,7.2855,7.1718,7.0793,6.7747,6.4928,6.4243,6.3503,6.36,6.5662,6.5922,0.0,0.0,0.0,0.0,8.7274,9.3064,9.8104,10.3009,0.0,0.0,0.0,0.0,0.0,0.0,0.0,0.0,0.0,10.2806,10.1995,10.1183,10.1097,10.0608,9.9712,9.9915,10.0001,10.0001,9.9814,9.9712,9.9678,9.8916,9.824,0.0,0.0,0.0,9.5601,9.5499,9.5026,9.4267,9.3552,9.2759,9.2102,9.2203,9.1778,9.1135,0.0,0.0,0.0,0.0,0.0,0.0,0.0,0.0,0.0,0.0,0.0,0.0,0.0,0.0,0.0,0.0,0.0,0.0,0.0,0.0,0.0,0.0,5.8195,5.8524,5.9158,5.9766,6.0655,6.1806,6.6237,6.8639,6.9147,7.0906,6.9891,6.6565,6.5087,6.4884,6.5672,0.0,0.0,0.0,0.0,0.0,0.0,0.0,0.0,0.0,0.0,0.0,0.0,6.9706,6.9633,6.9222,6.8965,0.0,0.0,0.0,0.0,0.0,6.8307,7.1088,7.309,6.9676,6.9119,6.9075,6.7577,6.5705,6.4243,6.4139,6.3986,6.5014,6.8685,6.9033,7.0425,0.0,0.0,0.0,0.0,0.0,0.0,0.0,0.0,0.0,0.0,0.0,0.0,0.0,0.0,0.0,0.0,0.0,10.1183,10.0389,9.9796,9.8781,9.7409,9.8645,9.9254,9.9254,9.8018,9.7409,9.7375,9.665,9.6244,0.0,0.0,9.5669,9.4823,9.4195,9.347,9.2677,9.1947,9.1203,9.0614,9.1237,9.1,9.0391,0.0,0.0,0.0,0.0,0.0,0.0,0.0,0.0,0.0,0.0,0.0,0.0,0.0,0.0,0.0,0.0,0.0,0.0,0.0,0.0,0.0,5.7891,5.7891,5.806,5.8389,5.9945,6.1907,6.4265,6.8324,7.1334,7.3274,7.1864,6.962,6.67,6.4444,6.4048,6.5094,6.484,0.0,0.0,0.0,0.0,0.0,0.0,0.0,0.0,0.0,0.0,0.0,0.0,6.9853,6.9486,6.9038,0.0,0.0,0.0,0.0,0.0,6.727,6.9237,7.082,6.9865,7.0529,7.0608,6.7608,6.6014,6.5133,6.5067,6.5103,6.6189,6.9737,0.0,7.4792,8.1885,0.0,0.0,0.0,0.0,0.0,0.0,0.0,0.0,0.0,0.0,0.0,0.0,0.0,0.0,0.0,0.0,10.1014,10.0204,9.9119,9.7969,9.6902,9.7172,9.7341,9.7292,9.6631,9.6326,9.6293,9.5939,9.5379,9.4635,0.0,9.4315,9.2861,9.2928,9.2522,9.1778,9.144,9.0865,9.0174,9.0135,8.9898,8.9627,0.0,0.0,0.0,0.0,0.0,0.0,0.0,0.0,0.0,0.0,0.0,0.0,0.0,0.0,0.0,0.0,0.0,0.0,0.0,0.0,5.7891,5.7891,5.8398,5.8703,5.8703,6.1264,6.4333,6.785,7.174,7.4931,7.7333,7.28,6.9316,6.67,6.4072,6.3569,6.4652,6.475,6.5443,0.0,0.0,0.0,0.0,0.0,0.0,0.0,0.0,0.0,0.0,0.0,0.0,0.0,0.0,0.0,0.0,6.6508,6.574,6.5521,6.6409,6.784,6.934,7.0434,0.0,7.1898,6.9835,6.8036,0.0,0.0,0.0,0.0,0.0,7.5083,0.0,0.0,0.0,0.0,0.0,0.0,0.0,0.0,0.0,0.0,0.0,0.0,0.0,0.0,0.0,0.0,0.0,0.0,10.0793,9.9983,9.851,9.7394,9.6631,9.5751,9.5263,9.5263,9.5263,9.5093,9.4755,9.4755,9.4112,9.3078,9.3673,9.2928,9.1338,9.173,9.1561,9.1034,9.0831,9.0425,8.9884,8.9323,8.9086,8.9086,0.0,0.0,0.0,0.0,0.0,0.0,0.0,0.0,0.0,0.0,0.0,0.0,0.0,0.0,0.0,0.0,0.0,0.0,0.0,0.0,5.7891,5.7891,5.9911,6.1061,6.1061,6.4569,6.7918,7.0996,7.7447,8.0006,7.8843,7.4356,7.0297,6.6734,6.5155,6.4576,6.4802,6.4807,6.5819,6.7356,0.0,0.0,0.0,0.0,0.0,0.0,0.0,0.0,0.0,0.0,0.0,0.0,0.0,0.0,6.6368,6.5405,6.5657,6.6464,6.713,6.8576,6.9766,6.9147,6.9114,7.0342,7.4512,7.2254,0.0,7.4058,0.0,0.0,0.0,8.1103,8.6622,0.0,0.0,0.0,0.0,0.0,0.0,0.0,0.0,0.0,0.0,0.0,0.0,0.0,0.0,0.0,0.0,0.0,0.0,9.9187,9.7747,9.6631,9.5872,9.4466,9.3755,9.3755,9.3755,9.3011,9.1609,9.1609,9.159,9.1474,9.1508,9.144,9.1237,9.0628,9.0309,9.0208,8.9526,8.9221,8.9154,8.912,8.9086,8.9086,0.0,0.0,0.0,0.0,0.0,0.0,0.0,0.0,0.0,0.0,0.0,0.0,0.0,0.0,0.0,0.0,0.0,0.0,0.0,5.7756,5.7891,5.7891,5.9607,6.0994,6.1951,6.7861,7.3341,7.82,8.165,8.1663,7.8314,7.3353,6.9011,6.5358,6.3903,6.3835,6.4901,6.5452,6.642,6.7604,6.7848,0.0,0.0,0.0,0.0,0.0,0.0,0.0,0.0,0.0,6.8098,6.762,6.7046,6.6277,6.5466,6.5098,6.4487,6.4227,6.5605,6.7533,6.9506,7.0779,7.1043,0.0,0.0,7.4385,7.5219,7.8283,7.9016,0.0,0.0,0.0,0.0,0.0,0.0,0.0,0.0,0.0,0.0,0.0,0.0,0.0,0.0,0.0,0.0,0.0,0.0,0.0,0.0,0.0,0.0,9.8409,9.6548,9.5161,9.4432,9.3368,9.2387,9.1474,9.1962,9.1846,9.1305,9.1305,9.1034,9.0628,9.0628,9.0357,8.9898,8.9627,8.9526,8.9492,8.9221,8.9086,8.9086,8.9086,8.9086,8.9086,0.0,0.0,0.0,0.0,0.0,0.0,0.0,0.0,0.0,0.0,0.0,0.0,0.0,0.0,0.0,0.0,0.0,0.0,5.795,5.7904,5.8007,5.8272,5.9702,6.1756,6.4465,7.112,7.6927,8.1731,8.3917,8.2475,7.7548,7.2778,6.8673,6.5222,6.3734,6.4198,6.6044,6.6124,6.6885,6.8044,6.8369,6.8208,0.0,0.0,0.0,0.0,0.0,0.0,0.0,0.0,6.7582,6.6808,6.6184,6.5197,6.428,6.4509,6.3435,6.2433,6.3915,6.5352,6.7103,6.9818,0.0,0.0,7.5574,7.7461,7.9752,8.3644,8.3893,0.0,0.0,0.0,0.0,0.0,0.0,0.0,0.0,0.0,0.0,0.0,0.0,0.0,0.0,0.0,0.0,0.0,0.0,0.0,0.0,0.0,0.0,0.0,9.5499,9.4112,9.3586,9.2339,9.1189,9.0208,9.0493,9.0608,9.0608,9.0608,9.0324,8.985,8.985,8.9579,8.9086,8.9086,8.9086,8.9086,8.9086,8.9086,8.9086,8.9086,8.9086,8.9086,0.0,0.0,0.0,0.0,0.0,0.0,0.0,0.0,0.0,0.0,0.0,0.0,0.0,0.0,0.0,0.0,0.0,0.0,5.8096,5.7971,5.8239,5.9025,6.0488,6.372,6.8898,7.4119,7.7942,8.0209,8.3943,8.2691,7.6758,7.3025,6.9677,6.67,6.5246,6.6065,6.8416,6.678,6.7206,6.8855,6.8024,6.77,0.0,0.0,0.0,0.0,0.0,0.0,0.0,0.0,6.5913,6.5199,6.5097,6.3936,6.2741,6.3459,6.2654,6.1692,6.2408,6.2151,6.2422,6.5502,0.0,0.0,8.074,8.1925,8.3535,9.0564,0.0,8.8164,0.0,0.0,0.0,0.0,0.0,0.0,0.0,0.0,0.0,0.0,0.0,0.0,0.0,0.0,0.0,0.0,0.0,0.0,0.0,0.0,0.0,0.0,9.4736,9.3586,9.3552,9.1338,9.0208,9.0174,8.9458,8.9086,8.9086,8.9086,8.9086,8.9086,8.9086,8.9086,8.9086,8.9086,8.9086,8.9086,8.9086,8.9086,8.9086,8.9086,8.9086,8.9086,0.0,0.0,0.0,0.0,0.0,0.0,0.0,0.0,0.0,0.0,0.0,0.0,0.0,0.0,0.0,0.0,0.0,0.0,5.8023,5.7989,5.781,5.7501,5.9433,6.0754,6.1226,6.7354,7.4255,8.1765,8.1832,7.828,7.1379,6.9677,6.7309,6.4536,6.5652,6.704,6.8512,6.7398,6.8019,6.9669,6.8862,6.8208,0.0,0.0,0.0,0.0,0.0,0.0,0.0,0.0,0.0,0.0,6.4462,6.3866,6.3203,6.227,6.2868,6.3621,6.2814,6.4563,0.0,6.9586,0.0,0.0,0.0,8.5683,0.0,0.0,9.2487,0.0,0.0,0.0,0.0,0.0,0.0,0.0,0.0,0.0,0.0,0.0,0.0,0.0,0.0,0.0,0.0,0.0,0.0,0.0,0.0,0.0,0.0,0.0,9.2875,9.1711,9.1203,9.0546,8.9951,8.9424,8.9187,8.9086,8.9086,8.9086,8.9086,8.9052,8.8545,8.8342,8.8294,8.7753,8.7854,8.8342,8.8342,8.8646,8.9086,8.9086,8.9086,8.9086,0.0,0.0,0.0,0.0,0.0,0.0,0.0,0.0,0.0,0.0,0.0,0.0,0.0,0.0,0.0,0.0,0.0,0.0,0.0,5.8178,5.7814,5.7332,5.8607,5.9711,6.0549,6.6271,7.1379,7.5777,7.6386,7.377,6.8189,6.891,6.829,6.67,6.9203,7.0481,7.0653,6.953,6.9464,7.0073,6.9559,6.8898,6.8244,0.0,0.0,0.0,0.0,0.0,0.0,0.0,0.0,0.0,6.3645,6.3092,6.2597,6.1922,6.1883,6.2195,6.2873,6.4396,6.6839,7.1135,7.5058,7.9833,8.758,0.0,0.0,0.0,0.0,0.0,0.0,0.0,0.0,0.0,0.0,0.0,0.0,0.0,0.0,0.0,0.0,0.0,0.0,0.0,0.0,0.0,0.0,0.0,0.0,0.0,0.0,0.0,9.1643,9.0662,9.0208,8.9918,8.9545,8.9086,8.8815,8.8646,8.868,8.8984,8.8951,8.8612,8.7888,8.755,8.7516,8.7062,8.7164,8.755,8.755,8.8023,8.8646,8.8646,8.8849,8.9086,0.0,0.0,0.0,0.0,0.0,0.0,0.0,0.0,0.0,0.0,5.8002,0.0,0.0,0.0,0.0,0.0,0.0,0.0,0.0,0.0,5.7947,5.7877,5.7895,5.985,6.4001,6.8087,6.8493,6.5097,6.8967,6.9339,6.6464,6.9711,7.1199,7.1334,7.4153,7.4845,7.3803,7.2049,7.0827,7.0073,7.0007,6.9559,6.8965,6.9633,0.0,0.0,0.0,0.0,0.0,0.0,0.0,0.0,6.2836,6.2038,6.1535,6.212,6.0561,5.9443,6.3131,6.3192,6.4031,7.1546,7.7528,0.0,9.1084,9.5552,9.8645,10.059,0.0,0.0,0.0,0.0,0.0,0.0,0.0,0.0,0.0,0.0,0.0,0.0,0.0,0.0,0.0,0.0,0.0,0.0,0.0,0.0,0.0,0.0,0.0,0.0,9.0817,9.0106,9.0106,8.9424,8.9052,0.0,8.8308,8.7955,8.7922,8.8578,8.8511,8.7753,8.711,8.6758,8.669,8.669,8.6724,8.6792,8.6792,8.7231,8.7888,8.7888,8.8328,8.8883,0.0,0.0,0.0,0.0,0.0,0.0,0.0,0.0,0.0,0.0,0.0,0.0,0.0,0.0,0.0,0.0,0.0,0.0,0.0,0.0,5.7486,5.6269,5.6767,5.8065,6.0148,6.1144,6.1255,6.0443,6.5381,6.6261,6.3439,6.8199,7.0443,7.05,7.2293,7.3136,7.2933,6.9627,6.8958,7.0043,6.9412,6.9038,6.8855,6.8391,6.7994,0.0,0.0,0.0,0.0,0.0,0.0,0.0,6.2698,6.2389,6.2086,6.167,6.2862,6.4679,6.6214,6.7596,7.0304,7.7318,8.4956,9.1644,9.5153,9.7428,9.8645,9.8018,9.9372,0.0,0.0,0.0,0.0,0.0,0.0,0.0,0.0,0.0,0.0,0.0,0.0,0.0,0.0,0.0,0.0,0.0,0.0,0.0,0.0,0.0,0.0,9.0681,8.9782,8.9357,8.9357,8.9187,8.8815,0.0,8.8091,8.7685,8.713,8.7299,8.6974,8.6244,8.6108,8.5689,8.5087,8.5087,8.5473,8.6041,8.6041,8.6501,8.713,8.713,8.7245,8.7367,0.0,0.0,0.0,0.0,0.0,0.0,0.0,0.0,0.0,0.0,0.0,0.0,0.0,0.0,0.0,0.0,0.0,0.0,0.0,0.0,5.7454,5.6298,5.6923,5.7509,5.794,5.8989,5.9191,5.8457,6.1197,6.2685,6.3024,6.7151,7.0071,7.1853,7.3799,7.4,7.2722,7.0451,6.9716,7.0073,6.9633,6.9486,6.9412,6.9015,6.8361,0.0,0.0,0.0,0.0,0.0,0.0,0.0,0.0,0.0,6.2421,6.2425,6.3424,6.5168,6.8348,7.0141,7.3182,8.2046,8.9211,9.462,9.6462,9.8052,9.8898,9.812,9.9507,0.0,0.0,0.0,0.0,0.0,0.0,0.0,0.0,0.0,0.0,0.0,0.0,0.0,0.0,0.0,0.0,0.0,0.0,0.0,0.0,9.0899,8.9512,8.9173,8.8429,8.8057,8.8057,8.8057,8.7854,8.7482,8.7123,8.6535,8.5811,8.6196,8.6163,8.577,8.5384,8.4999,8.4614,8.4614,8.4864,8.5215,8.5215,8.5689,8.6366,8.6366,8.6602,8.6893,0.0,0.0,0.0,0.0,0.0,0.0,0.0,0.0,0.0,0.0,0.0,0.0,0.0,0.0,0.0,0.0,0.0,0.0,0.0,0.0,0.0,5.6639,5.732,5.7485,5.7002,5.893,5.9302,5.8094,5.7958,6.008,6.4299,6.6779,7.0001,7.3833,7.5418,7.4987,7.2982,7.1684,7.0659,6.9889,6.9889,6.9889,6.9896,6.975,6.8875,0.0,0.0,0.0,0.0,0.0,0.0,0.0,0.0,0.0,6.275,6.3498,6.3519,6.4414,6.9263,7.1854,7.5571,8.5679,9.1372,9.489,9.636,9.7646,9.851,9.851,9.9408,0.0,0.0,0.0,0.0,0.0,0.0,0.0,0.0,0.0,0.0,0.0,0.0,0.0,0.0,0.0,0.0,0.0,0.0,0.0,9.2068,9.0053,8.8646,8.8023,8.7265,8.6893,8.6893,8.6893,8.6825,8.6704,8.596,8.5249,8.4614,8.5283,8.5587,8.5567,8.4898,8.4614,8.4614,8.4614,8.4614,8.4614,8.4614,8.4999,8.5587,8.5587,8.5993,8.6487,0.0,0.0,0.0,0.0,0.0,0.0,0.0,0.0,0.0,0.0,0.0,0.0,0.0,0.0,0.0,0.0,0.0,0.0,0.0,0.0,0.0,5.5846,5.6551,5.7205,5.7721,5.866,5.9056,5.8844,5.822,6.1139,0.0,0.0,7.0366,7.4736,7.3007,7.2945,7.3846,6.9869,6.8516,6.9075,6.9075,6.9075,6.8965,6.8281,6.7884,0.0,0.0,0.0,0.0,0.0,0.0,0.0,0.0,0.0,0.0,6.3665,6.4766,6.623,6.7593,7.36,8.1028,8.7369,9.1387,9.4127,9.5616,9.6108,9.6244,0.0,9.8359,0.0,0.0,0.0,0.0,0.0,0.0,0.0,0.0,0.0,0.0,0.0,0.0,0.0,0.0,0.0,0.0,0.0,0.0,0.0,9.0512,8.9004,8.8091,8.7989,8.7265,8.6893,8.6893,8.6893,8.6602,8.5939,8.5134,8.4681,8.4614,8.4715,8.4762,8.4749,8.4647,8.4614,8.4614,8.4614,8.4614,8.4614,8.4614,8.4661,8.4762,8.4762,8.4817,8.4918,0.0,0.0,0.0,0.0,0.0,0.0,0.0,0.0,0.0,0.0,0.0,0.0,0.0,0.0,0.0,0.0,0.0,0.0,0.0,0.0,0.0,5.5115,5.5382,5.5919,5.6655,5.7399,5.7974,5.8389,5.806,0.0,0.0,6.8571,7.0776,0.0,0.0,7.115,7.1391,6.8275,6.7702,6.8855,6.8421,6.8244,6.8208,0.0,0.0,0.0,0.0,0.0,0.0,0.0,0.0,0.0,0.0,0.0,0.0,0.0,6.5353,6.7263,7.1276,7.6129,8.1511,8.7573,9.1034,9.3233,9.433,9.521,9.5669,9.5263,9.6244,0.0,0.0,0.0,0.0,0.0,0.0,0.0,0.0,0.0,0.0,0.0,0.0,0.0,0.0,0.0,0.0,0.0,0.0,9.0005,8.9627,8.8192,8.7177,8.6785,8.6014,8.5608,8.5608,8.5608,8.5439,8.51,8.4762,8.4614,8.4614,8.4614,8.4614,8.4614,8.4614,8.4614,8.4614,8.4614,8.4614,8.4614,8.4614,8.4614,8.4614,8.4614,8.4614,8.4614,0.0,0.0,0.0,0.0,0.0,0.0,0.0,0.0,0.0,0.0,0.0,0.0,0.0,0.0,0.0,0.0,0.0,0.0,0.0,0.0,0.0,5.4375,5.4694,5.5141,5.5699,5.6596,5.7349,5.7891,0.0,0.0,6.9958,7.0331,7.2755,0.0,7.3337,7.1394,0.0,0.0,0.0,6.9244,6.7494,6.69,0.0,0.0,0.0,0.0,0.0,0.0,0.0,0.0,0.0,0.0,0.0,0.0,0.0,0.0,0.0,6.6773,7.263,7.5673,7.8762,8.5232,8.8937,9.1324,9.2469,9.3706,9.4485,0.0,9.3996,0.0,0.0,0.0,0.0,0.0,0.0,0.0,0.0,0.0,0.0,0.0,0.0,0.0,0.0,0.0,0.0,0.0,0.0,8.941,8.8849,8.7414,8.6366,8.5804,8.5033,8.4614,8.4614,8.4614,8.4614,8.4614,8.4614,8.4614,8.4614,8.4614,8.4614,8.4614,8.4614,8.4614,8.4614,8.4614,8.4614,8.4614,8.4614,8.4614,8.4614,8.4614,8.4614,8.4614,0.0,0.0,0.0,0.0,0.0,0.0,0.0,0.0,0.0,0.0,0.0,0.0,0.0,0.0,5.8002,5.8002,5.8002,5.7358,5.5865,5.5738,5.5067,5.3626,5.4913,0.0,5.5699,5.7103,5.7857,5.7891,0.0,0.0,7.2259,7.3668,7.7422,8.2832,7.7914,7.5036,7.3663,0.0,0.0,0.0,0.0,0.0,0.0,0.0,0.0,0.0,0.0,0.0,0.0,0.0,0.0,0.0,0.0,0.0,0.0,0.0,0.0,0.0,6.7684,6.9663,7.2282,7.8982,8.3964,8.7739,8.987,9.0966,9.1508,9.1474,9.2034,0.0,0.0,0.0,0.0,0.0,0.0,0.0,0.0,0.0,0.0,0.0,0.0,0.0,0.0,0.0,0.0,0.0,0.0,8.8091,8.8057,8.665,8.5838,8.5804,8.5033,8.4614,8.4614,8.4614,8.4614,8.4614,8.4614,8.4614,8.4614,8.4614,8.4614,8.4614,8.4614,8.4614,8.4614,8.4614,8.4614,8.4614,8.4614,8.4614,8.4614,8.4614,8.4614,8.4614,0.0,0.0,0.0,0.0,0.0,0.0,0.0,0.0,0.0,0.0,0.0,0.0,0.0,5.8468,5.8541,5.8033,5.7552,5.6844,5.578,5.5688,5.5247,5.4254,5.5166,5.6156,5.7157,5.7689,5.8204,0.0,0.0,6.3449,7.0297,7.1774,7.5427,8.0492,7.6281,7.4181,7.3479,6.8117,0.0,0.0,0.0,0.0,0.0,0.0,0.0,0.0,0.0,0.0,0.0,0.0,0.0,0.0,0.0,0.0,0.0,0.0,0.0,6.282,6.6529,6.743,6.9056,7.6284,8.0716,8.3896,8.6115,8.8652,9.0459,8.9999,9.0459,0.0,0.0,0.0,0.0,0.0,0.0,0.0,0.0,0.0,0.0,0.0,0.0,0.0,0.0,0.0,0.0,0.0,0.0,0.0,8.7279,8.6345,8.5567,8.5033,8.4749,8.4614,8.4614,8.4614,8.4614,8.4614,8.4614,8.4614,8.4614,8.4614,8.4343,8.3883,8.3883,8.4153,8.4614,8.4614,8.4614,8.4614,8.4614,8.4614,8.4614,8.4614,8.4614,8.4614,0.0,0.0,0.0,0.0,0.0,0.0,0.0,0.0,0.0,0.0,0.0,0.0,0.0,0.0,5.8783,5.7734,5.7166,5.6571,5.5766,5.5711,5.547,5.4973,5.5674,5.6695,5.7977,5.8236,5.8617,0.0,0.0,6.2909,0.0,7.0252,7.3837,7.82,7.4199,7.3289,0.0,0.0,0.0,6.9331,0.0,0.0,6.5298,0.0,0.0,0.0,0.0,0.0,0.0,0.0,0.0,0.0,0.0,0.0,0.0,0.0,0.0,0.0,6.4567,6.4899,6.6315,7.3578,7.6872,7.9431,8.3646,8.6149,8.7739,8.826,8.8767,8.9159,0.0,0.0,0.0,0.0,0.0,0.0,0.0,0.0,0.0,0.0,0.0,0.0,0.0,0.0,0.0,0.0,0.0,0.0,8.6535,8.5824,8.5134,8.4614,8.4614,8.4614,8.4614,8.4614,8.4614,8.4614,8.4356,8.4221,8.4221,8.3971,8.3578,8.3118,8.3118,8.3409,8.3883,8.412,8.4221,8.4255,8.4512,8.4614,8.4614,8.4614,8.4614,8.4614,0.0,0.0,0.0,0.0,0.0,0.0,0.0,0.0,0.0,0.0,0.0,0.0,0.0,0.0,0.0,5.7072,5.6952,5.6576,5.5744,5.5721,5.5747,5.5734,5.6445,5.725,5.8053,5.8788,5.9161,0.0,6.1354,6.3521,6.5639,0.0,7.3059,7.6454,7.2169,7.2631,7.6632,0.0,7.4252,7.1147,0.0,6.554,6.5956,0.0,0.0,0.0,6.6534,6.5932,0.0,0.0,0.0,0.0,0.0,0.0,0.0,0.0,0.0,0.0,0.0,0.0,0.0,7.0466,7.2157,7.4289,8.2348,8.3139,8.3003,8.6115,8.6724,8.6995,0.0,0.0,0.0,0.0,0.0,0.0,0.0,0.0,0.0,0.0,0.0,0.0,0.0,0.0,0.0,0.0,0.0,8.577,8.5804,8.5033,8.458,8.4614,8.458,8.458,8.458,8.458,8.4546,8.4512,8.3828,8.3456,8.3422,8.2733,8.2395,8.2361,8.2361,8.2361,8.2395,8.3152,8.3456,8.3524,8.4255,8.4546,8.458,8.458,8.458,8.4614,0.0,0.0,0.0,0.0,0.0,0.0,0.0,0.0,0.0,0.0,0.0,0.0,0.0,0.0,5.9463,5.7893,5.7763,5.7192,5.5782,5.619,5.6513,5.6503,5.7757,5.8875,5.9714,6.0498,6.0612,0.0,0.0,6.1519,6.255,6.4671,0.0,0.0,7.0793,7.1097,7.1052,6.768,0.0,0.0,6.6244,6.639,0.0,0.0,0.0,0.0,0.0,6.6499,0.0,0.0,6.5144,6.4984,0.0,0.0,0.0,0.0,0.0,0.0,6.0784,0.0,0.0,0.0,0.0,0.0,0.0,7.5112,7.7278,8.1913,8.286,8.3727,8.667,0.0,0.0,0.0,0.0,0.0,0.0,0.0,0.0,0.0,0.0,0.0,0.0,0.0,0.0,0.0,8.5384,8.5182,8.577,8.4539,8.4052,8.458,8.4086,8.3795,8.3795,8.3795,8.3545,8.3003,8.28,8.2699,8.2712,8.2496,8.2103,8.1608,8.1608,8.1291,8.0919,8.2171,8.2699,8.2733,8.2936,8.3342,8.3795,8.3795,8.4153,8.4614,0.0,0.0,0.0,0.0,0.0,0.0,0.0,0.0,0.0,0.0,0.0,0.0,0.0,0.0,6.0983,5.8783,5.8249,5.7612,5.6668,5.7024,5.7543,5.8152,5.9425,6.0327,6.0846,6.1364,6.12,6.0381,0.0,0.0,0.0,0.0,0.0,0.0,0.0,0.0,0.0,0.0,0.0,0.0,6.8272,0.0,0.0,7.0041,6.973,0.0,0.0,0.0,7.1024,6.9263,6.8114,0.0,0.0,0.0,0.0,0.0,0.0,0.0,0.0,0.0,0.0,0.0,0.0,0.0,7.0409,7.1627,7.315,0.0,7.9714,8.0796,8.3592,8.437,8.4505,0.0,0.0,0.0,0.0,0.0,0.0,0.0,0.0,0.0,0.0,8.5317,8.5317,8.5317,8.4864,8.4661,8.4823,8.3998,8.3558,8.368,8.3545,8.3355,8.305,8.3355,8.3118,8.2395,8.2103,8.1765,8.1481,8.1481,8.1088,8.0378,8.0378,8.031,8.0242,8.0805,8.138,8.1968,8.2259,8.2665,8.3084,8.3389,8.3761,8.4187,0.0,0.0,0.0,0.0,0.0,0.0,0.0,0.0,0.0,0.0,6.2536,6.3452,0.0,0.0,0.0,5.9815,5.8757,5.817,5.792,5.806,5.8736,6.0047,6.098,6.1506,6.1501,6.1561,6.1188,6.0384,0.0,0.0,0.0,0.0,0.0,0.0,0.0,0.0,0.0,0.0,0.0,6.8048,7.1224,7.3093,0.0,0.0,7.6386,0.0,7.713,7.669,7.5642,7.2653,7.0379,0.0,0.0,0.0,0.0,0.0,6.3954,0.0,0.0,0.0,0.0,0.0,0.0,0.0,7.0578,7.0432,7.0229,0.0,7.6736,7.7819,7.96,8.056,8.1236,8.1731,0.0,0.0,0.0,0.0,0.0,0.0,0.0,0.0,8.4614,8.4614,8.4614,8.4614,8.4512,8.4153,8.3422,8.3287,8.2983,8.2428,8.2949,8.2949,8.2293,8.2915,8.2847,8.2022,8.1359,8.0661,7.9972,7.9972,7.96,7.8978,7.8978,7.935,7.9904,7.935,7.9938,8.1236,8.19,8.2192,8.2361,8.3016,8.3355,8.3592,0.0,0.0,0.0,0.0,0.0,0.0,0.0,0.0,0.0,0.0,6.71,6.7648,0.0,0.0,0.0,6.1289,6.0817,5.9924,5.8022,5.8998,5.981,6.008,6.0935,6.1406,6.1432,6.1493,6.1138,6.0335,0.0,0.0,0.0,0.0,0.0,0.0,0.0,0.0,0.0,0.0,0.0,6.7229,6.9712,0.0,7.7142,7.7447,7.765,7.7853,7.845,7.8572,7.7964,0.0,7.3376,7.2028,0.0,0.0,0.0,0.0,0.0,0.0,0.0,0.0,0.0,0.0,0.0,0.0,6.4005,6.5517,6.8053,0.0,7.209,7.3815,7.7718,7.9025,7.9194,7.8145,0.0,0.0,0.0,0.0,0.0,0.0,0.0,0.0,8.4614,8.4614,8.4614,8.4614,8.4052,8.3389,8.2631,8.2035,8.1947,8.2395,8.1968,8.1676,8.1507,8.1642,8.1054,7.9756,7.9587,7.916,7.8428,7.8428,7.836,7.8225,7.8225,7.8293,7.8462,7.8911,7.9634,8.0412,8.0581,8.0987,8.1541,8.1676,8.2488,8.3524,0.0,0.0,0.0,0.0,0.0,0.0,0.0,0.0,0.0,6.8098,6.9595,0.0,0.0,0.0,0.0,0.0,6.1454,6.0423,5.9644,6.0283,6.0689,6.0689,6.1897,6.2185,6.1414,6.1479,6.112,6.0289,0.0,0.0,0.0,0.0,0.0,0.0,0.0,0.0,0.0,0.0,6.441,6.7197,7.1718,0.0,7.8686,7.9769,8.0412,8.0784,8.1156,8.1278,8.0615,7.6103,7.5169,0.0,0.0,6.8217,6.839,0.0,6.5381,6.5006,0.0,0.0,0.0,6.4613,0.0,0.0,0.0,6.4062,6.5009,6.8368,6.847,6.9113,7.2868,7.3849,7.4345,7.51,7.7367,0.0,0.0,0.0,0.0,0.0,0.0,0.0,8.3545,8.3849,8.3917,8.3545,8.3139,8.2644,8.19,8.1507,8.1304,8.1291,8.1304,8.1101,8.0763,8.0763,8.0209,7.9114,7.872,7.7942,7.6872,7.765,7.7582,7.6872,7.7278,7.765,7.7988,7.801,7.864,7.9701,8.0073,8.0424,8.0796,8.1169,8.1778,8.2454,0.0,0.0,0.0,0.0,0.0,0.0,0.0,0.0,0.0,6.8924,7.114,0.0,0.0,0.0,0.0,0.0,0.0,6.0588,0.0,0.0,6.1028,6.0849,6.2529,6.259,6.078,6.1074,6.0841,6.0047,0.0,0.0,0.0,0.0,0.0,0.0,0.0,0.0,0.0,0.0,0.0,6.8425,0.0,7.7422,7.8539,8.1177,8.2577,8.3131,8.3558,8.3693,8.2881,7.749,0.0,7.7256,7.0437,6.9752,0.0,0.0,0.0,0.0,0.0,0.0,0.0,0.0,0.0,6.5131,0.0,0.0,0.0,6.6474,6.573,0.0,0.0,0.0,0.0,0.0,0.0,0.0,0.0,0.0,0.0,0.0,0.0,0.0,0.0,8.2543,8.2509,8.2192,8.1786,8.1426,8.1101,8.0966,8.0581,8.0006,8.0424,8.039,7.9769,7.9769,7.9329,7.8437,7.7841,7.677,7.5315,7.6567,7.6533,7.554,7.6183,7.6893,7.7515,7.7063,7.7604,7.8775,7.9634,8.0073,8.0276,8.0864,8.1169,8.1372,6.0413,5.9747,0.0,0.0,0.0,0.0,0.0,0.0,6.8814,6.9436,7.2314,0.0,0.0,0.0,0.0,0.0,0.0,0.0,6.5889,0.0,5.9936,5.9293,6.138,6.1209,5.8359,5.9581,5.9877,5.9155,5.8309,0.0,0.0,0.0,0.0,0.0,5.7433,0.0,0.0,0.0,6.5876,0.0,7.5461,7.6125,0.0,7.9815,8.1473,8.1811,8.3781,8.4492,8.3971,0.0,7.9735,7.9143,0.0,7.2226,0.0,0.0,0.0,0.0,0.0,0.0,0.0,0.0,7.1007,0.0,0.0,0.0,6.7421,6.4569,0.0,0.0,0.0,0.0,0.0,0.0,0.0,0.0,0.0,0.0,0.0,0.0,0.0,0.0,0.0,8.0703,8.0107,8.1338,7.9612,7.9037,8.0242,7.9701,7.9317,7.9215,7.8653,7.8327,7.8259,7.8259,7.7515,7.6082,7.598,7.518,7.3759,7.3928,7.4255,7.4717,7.4818,7.5292,7.6014,7.6657,7.6995,7.7299,7.8674,7.9621,8.0209,8.0276,8.0729,8.1304,6.0413,5.9736,0.0,0.0,0.0,0.0,0.0,0.0,7.2139,7.2875,7.4425,0.0,0.0,0.0,0.0,0.0,0.0,0.0,0.0,0.0,0.0,6.1028,6.1883,6.1612,5.9911,6.0013,5.9742,5.9013,5.8254,5.7891,0.0,0.0,0.0,0.0,5.8177,0.0,6.2492,0.0,6.6451,0.0,0.0,0.0,0.0,8.0851,8.3206,8.3355,8.4275,8.4614,8.4005,0.0,7.9781,0.0,0.0,0.0,0.0,0.0,0.0,0.0,0.0,0.0,0.0,0.0,0.0,0.0,0.0,0.0,6.5131,0.0,0.0,0.0,0.0,0.0,0.0,0.0,0.0,0.0,0.0,0.0,0.0,0.0,0.0,0.0,0.0,0.0,0.0,0.0,7.721,7.7345,7.8834,7.8619,7.8653,7.908,7.8382,7.7988,7.7988,7.7582,7.6792,7.5676,7.527,7.4289,7.2868,7.3747,7.4086,7.4018,7.4864,7.5405,7.5743,7.6048,7.6487,7.6961,7.757,7.8539,7.9621,8.004,8.0412,8.0661,0.0,0.0,0.0,0.0,0.0,0.0,0.0,0.0,0.0,0.0,0.0,0.0,7.6755,7.4355,0.0,0.0,0.0,6.935,0.0,0.0,6.4072,0.0,6.2245,0.0,0.0,6.008,5.9834,5.9293,5.8558,5.8287,0.0,0.0,0.0,0.0,0.0,6.1839,6.4657,0.0,0.0,7.1853,7.4886,7.6318,7.7063,8.1853,8.4086,8.4614,8.4614,8.4614,8.4052,8.0412,8.0276,0.0,7.642,0.0,0.0,0.0,0.0,0.0,7.0398,0.0,0.0,0.0,0.0,0.0,0.0,0.0,0.0,0.0,0.0,0.0,0.0,0.0,0.0,0.0,0.0,0.0,0.0,0.0,0.0,0.0,0.0,0.0,0.0,0.0,0.0,0.0,0.0,7.51,7.7244,7.7176,7.7502,7.8471,7.7773,7.7278,7.7075,7.6555,7.5777,7.4796,7.4255,7.3341,7.2112,7.3195,7.351,7.3285,7.4537,7.5202,7.5405,7.5608,7.6048,7.6589,7.6826,7.7558,7.8606,7.9566,7.9904,7.9938,6.0384,5.9749,0.0,0.0,0.0,0.0,0.0,0.0,0.0,0.0,0.0,0.0,0.0,0.0,0.0,0.0,0.0,7.2417,7.5202,0.0,6.4468,0.0,0.0,0.0,0.0,0.0,6.008,6.0047,5.9327,5.9327,6.0013,5.9293,0.0,0.0,6.2709,6.5821,7.0037,7.1548,7.5552,8.083,8.0242,8.1718,8.4039,0.0,8.2746,8.4614,8.4614,0.0,0.0,8.28,8.2293,0.0,0.0,0.0,0.0,0.0,0.0,0.0,0.0,0.0,0.0,0.0,0.0,0.0,0.0,0.0,6.9124,0.0,0.0,0.0,0.0,0.0,0.0,0.0,0.0,0.0,0.0,0.0,0.0,0.0,0.0,0.0,0.0,0.0,0.0,0.0,0.0,0.0,7.5574,7.51,7.5393,7.6927,7.6183,7.5439,7.4717,7.4683,7.3939,7.2496,7.2496,7.209,7.1334,7.1402,7.1774,7.2462,7.3251,7.3984,7.4683,7.5405,7.5709,7.5811,7.6589,7.6927,7.7164,7.8606,7.9147,7.9249,0.0,0.0,0.0,0.0,0.0,0.0,0.0,6.8032,0.0,0.0,0.0,0.0,0.0,0.0,8.5182,0.0,0.0,8.0242,7.8788,7.4446,0.0,0.0,0.0,6.5483,0.0,0.0,0.0,0.0,0.0,5.9877,6.008,5.9834,6.0554,6.211,0.0,6.6924,0.0,0.0,0.0,0.0,0.0,8.2272,8.5249,0.0,0.0,8.4614,8.4614,8.4614,0.0,8.3456,8.2475,8.146,8.0209,7.7942,7.5574,7.4818,7.4953,0.0,0.0,0.0,7.8416,7.4187,0.0,0.0,0.0,0.0,0.0,0.0,0.0,0.0,0.0,0.0,0.0,0.0,0.0,0.0,0.0,0.0,0.0,0.0,0.0,0.0,0.0,0.0,0.0,0.0,6.8064,0.0,0.0,7.3747,7.4559,7.6048,7.5371,7.4852,7.4615,7.4119,7.3375,7.2394,7.2394,7.2011,7.1334,7.1808,7.2157,7.2428,7.3184,7.3916,7.4615,7.4852,7.527,7.5743,7.598,7.6115,7.6352,7.837,7.9114,7.9215,6.0041,0.0,0.0,0.0,0.0,0.0,0.0,0.0,0.0,0.0,8.1955,0.0,8.9816,0.0,9.102,0.0,8.956,8.6514,8.1697,7.935,0.0,7.2563,7.077,0.0,0.0,0.0,0.0,0.0,0.0,6.2076,6.2042,6.0723,6.0926,6.2526,0.0,6.8267,7.0939,0.0,7.872,0.0,0.0,8.3219,0.0,0.0,8.4796,0.0,0.0,8.4614,8.4444,8.3456,8.2475,8.1473,8.0209,7.828,7.6352,7.563,7.6137,7.6724,7.5912,7.7908,0.0,0.0,7.519,0.0,0.0,0.0,0.0,0.0,0.0,0.0,0.0,0.0,0.0,0.0,0.0,0.0,0.0,5.8727,0.0,0.0,0.0,0.0,0.0,0.0,6.5019,6.5212,6.4793,0.0,0.0,0.0,7.2845,7.4842,7.4717,7.448,7.4221,7.3725,7.3015,7.2011,7.2011,7.174,7.1334,7.1774,7.2011,7.2056,7.2812,7.3375,7.3871,7.4378,7.4886,7.5337,7.5608,7.5879,7.6352,7.8077,7.9046,7.9553,0.0,0.0,0.0,0.0,6.0403,0.0,0.0,0.0,7.5799,0.0,8.4018,8.8686,9.2358,9.2812,9.3421,9.4842,9.4214,0.0,8.4539,8.4559,0.0,0.0,7.3624,7.2541,6.9654,0.0,0.0,0.0,0.0,0.0,6.5672,6.1941,6.0994,6.2594,6.7117,0.0,7.1808,7.9181,8.278,8.3558,8.4255,8.458,8.4647,8.458,0.0,8.5702,8.4898,8.458,8.4309,8.2868,8.2361,8.1955,7.9824,7.8653,7.7921,7.7164,7.7976,7.864,7.6487,7.8077,7.96,7.669,0.0,0.0,0.0,0.0,7.6149,0.0,0.0,0.0,0.0,0.0,0.0,0.0,0.0,0.0,0.0,0.0,0.0,0.0,0.0,0.0,0.0,6.4502,6.2912,6.2221,6.2154,6.3135,0.0,0.0,7.0331,7.3285,7.4153,7.4221,7.3556,7.3488,7.2732,7.1368,7.1334,7.13,7.13,7.13,7.13,7.1334,7.2056,7.236,7.2529,7.3939,7.4581,7.4683,7.5405,7.6217,7.7029,7.7785,7.8969,8.0209,5.8388,5.957,6.0922,0.0,6.1394,6.255,0.0,0.0,0.0,0.0,8.9106,9.4098,9.7818,9.8747,9.9018,9.8799,9.7123,0.0,0.0,0.0,0.0,8.3308,8.0695,7.8428,7.6577,7.3262,0.0,7.1797,0.0,0.0,6.643,6.3294,6.2018,6.2627,6.7669,7.0432,7.174,7.8653,8.2319,8.3524,8.3693,8.4471,0.0,0.0,8.4606,8.5702,8.4898,8.4255,8.3659,8.2699,8.2035,8.1405,8.0276,7.9431,7.8686,7.7908,7.8382,7.908,7.9058,8.0412,8.1528,8.0187,7.9612,7.872,0.0,0.0,0.0,0.0,0.0,0.0,0.0,0.0,0.0,0.0,0.0,0.0,0.0,0.0,0.0,0.0,0.0,0.0,0.0,6.0317,5.9278,5.9075,5.8567,0.0,0.0,0.0,0.0,7.1774,7.3105,7.395,7.4311,7.324,7.2496,7.2124,7.1571,7.13,7.13,7.13,7.13,7.1289,7.1503,7.1875,7.2462,7.3421,7.4119,7.4683,7.5405,7.6533,7.7819,7.8551,7.9397,8.0209,5.893,0.0,0.0,6.4624,0.0,0.0,7.0455,0.0,0.0,8.5486,9.1203,0.0,9.8021,10.0389,10.1605,10.0811,9.9608,0.0,0.0,0.0,0.0,8.7989,8.5215,8.2881,8.1042,7.7299,0.0,7.3984,0.0,0.0,6.7715,6.3768,6.2245,6.3091,6.7658,7.0297,7.1774,7.8788,8.2644,8.3917,8.3287,0.0,0.0,8.3592,8.3964,8.5182,8.439,8.3862,8.3389,8.2631,8.19,8.1101,8.004,7.9667,7.9418,7.8686,7.9228,8.0073,8.0175,8.1291,8.2225,8.1473,8.1236,8.0581,7.8382,7.8505,7.864,0.0,0.0,0.0,0.0,0.0,0.0,0.0,0.0,0.0,0.0,0.0,0.0,0.0,0.0,0.0,0.0,0.0,5.6799,0.0,0.0,0.0,0.0,0.0,0.0,6.9744,7.2845,7.4492,7.4615,7.4458,7.3713,7.2394,7.1988,7.1605,7.13,7.13,7.13,7.13,7.13,7.1537,7.1988,7.3048,7.3759,7.4255,7.5676,7.6939,7.8056,7.8483,7.9295,8.0209,0.0,0.0,0.0,0.0,0.0,0.0,0.0,7.8708,0.0,8.6927,0.0,9.5556,9.6212,9.9752,10.1989,10.1589,0.0,9.9608,9.5687,9.5736,9.4127,8.9999,8.8429,8.6569,8.4268,8.0953,0.0,0.0,0.0,0.0,6.8538,6.3599,6.2042,6.3521,6.7286,7.006,0.0,7.908,8.2699,8.3802,8.28,8.324,8.4323,8.2936,8.3274,8.4356,8.3625,8.3355,8.3253,8.2631,8.1832,8.0932,7.9667,7.9689,8.0073,7.9418,8.0141,8.1033,8.0479,8.1291,8.2137,8.1575,8.1934,8.1887,7.9959,7.9452,7.9181,7.8428,7.606,0.0,0.0,0.0,0.0,0.0,0.0,0.0,0.0,0.0,0.0,0.0,0.0,0.0,0.0,0.0,0.0,0.0,0.0,0.0,0.0,0.0,0.0,6.7726,7.2631,0.0,7.4886,0.0,7.5303,7.2969,7.2496,7.1977,7.1436,7.1334,7.13,7.13,7.13,7.13,7.1402,7.2868,7.3624,7.3996,7.6082,7.7333,7.7988,7.7988,7.8936,8.0175,0.0,0.0,0.0,0.0,0.0,7.9553,8.3266,8.6873,8.9572,9.0723,9.5391,0.0,9.8848,9.956,10.0601,10.2204,10.1099,0.0,0.0,0.0,0.0,9.3808,9.2237,9.0377,8.8172,8.278,7.9464,0.0,0.0,0.0,6.6214,6.2854,6.1772,6.2753,6.6474,7.0635,7.5134,7.8336,0.0,8.0196,8.1786,8.2902,8.3592,8.2733,8.2949,8.3592,8.2881,8.2598,8.2564,8.2428,8.1528,8.0344,8.0073,8.0107,8.0175,8.004,8.0175,8.0492,8.0966,8.1304,8.1608,8.2103,8.2293,8.2293,8.1921,8.1359,8.0695,7.9972,7.8428,7.6432,7.3849,0.0,0.0,0.0,0.0,0.0,0.0,0.0,0.0,0.0,0.0,0.0,0.0,0.0,0.0,0.0,0.0,0.0,0.0,0.0,0.0,0.0,7.0906,0.0,0.0,0.0,7.4774,7.6082,7.2958,7.174,7.2191,7.1571,7.13,7.13,7.13,7.13,7.1402,7.2868,7.4233,7.5417,7.6487,7.7333,7.7988,7.7988,7.8936,8.0107,0.0,0.0,0.0,0.0,0.0,0.0,0.0,9.2084,0.0,9.1985,9.4206,9.563,9.4638,9.8414,10.1003,10.0986,10.0905,10.0592,10.0204,9.8476,9.6988,9.5872,9.4045,0.0,9.027,0.0,8.0987,7.9114,0.0,0.0,0.0,0.0,0.0,6.3091,6.6034,7.0466,0.0,0.0,0.0,8.031,8.0987,8.2171,8.3321,8.1832,8.1955,8.2847,8.2103,8.1832,8.1832,8.1832,8.1088,8.0209,8.0209,8.0209,8.0209,8.0209,8.0209,8.0276,8.0615,8.0729,8.083,8.1156,8.1257,8.1257,8.1257,8.0987,8.0627,8.0276,7.872,7.6161,7.2022,6.8233,0.0,0.0,0.0,0.0,0.0,0.0,0.0,0.0,0.0,0.0,0.0,0.0,0.0,0.0,0.0,0.0,0.0,0.0,0.0,0.0,0.0,0.0,0.0,0.0,0.0,7.5664,7.3477,7.2428,7.236,7.1639,7.13,7.13,7.13,7.1537,7.1977,7.3477,7.4695,7.5777,7.6589,7.713,7.7481,7.7853,7.8686,7.9587,0.0,7.4852,0.0,0.0,8.5357,0.0,0.0,9.4573,9.6116,9.2581,9.2614,9.2376,9.0834,9.6991,10.06,9.8812,10.0201,10.0584,9.9441,9.851,9.7664,9.6935,9.5075,9.3281,9.1575,8.6569,8.2205,0.0,0.0,0.0,0.0,0.0,0.0,0.0,0.0,0.0,0.0,0.0,7.7616,8.0593,8.0492,8.146,8.286,8.1088,8.1156,8.2069,8.1338,8.1067,8.1067,8.1067,8.0695,8.0209,8.0209,8.0209,8.0209,8.0209,8.0209,8.0209,8.0209,8.0209,8.0209,8.0209,8.0209,8.0209,8.0209,8.0209,8.0175,8.0006,7.8179,7.5371,7.1187,6.8977,0.0,0.0,0.0,0.0,0.0,0.0,0.0,0.0,0.0,0.0,0.0,0.0,0.0,0.0,0.0,0.0,0.0,0.0,0.0,0.0,0.0,7.3544,7.4581,0.0,7.7186,0.0,7.4097,7.3184,7.2597,7.1875,7.1436,7.13,7.13,7.1808,7.2732,7.3883,7.4897,7.5777,7.6589,7.6893,7.6995,7.7718,7.8483,7.9114,0.0,0.0,0.0,0.0,0.0,0.0,0.0,9.2988,9.3875,9.3482,9.3482,9.3467,9.3274,9.5586,9.6826,9.602,9.862,9.928,9.6846,9.7494,9.7664,9.6935,9.6056,9.4552,9.2339,8.7888,8.278,0.0,0.0,0.0,0.0,0.0,0.0,0.0,0.0,0.0,0.0,7.43,7.6702,7.8496,8.0424,8.1304,8.1473,8.127,8.127,8.1304,8.056,8.031,8.031,8.031,8.0242,8.0209,8.0209,8.0209,8.0209,8.0209,8.0209,8.0209,8.0209,8.0209,8.0209,8.0209,8.0209,8.0209,8.0209,8.0209,8.0006,7.935,7.7401,7.4864,7.1774,7.103,6.9981,0.0,0.0,0.0,0.0,0.0,0.0,0.0,0.0,0.0,0.0,0.0,0.0,0.0,0.0,0.0,0.0,0.0,0.0,6.256,0.0,7.2518,7.4581,7.4886,0.0,7.765,7.4842,7.3454,7.3353,7.2631,7.1921,7.13,7.13,7.209,7.3421,7.3556,7.4436,7.5777,7.6589,7.6893,7.6995,7.7718,7.8483,7.9114,0.0,0.0,0.0,0.0,0.0,0.0,0.0,9.2989,9.3169,9.1962,9.2863,9.3149,9.1922,9.4664,9.6493,9.6223,9.6543,9.7519,9.9262,9.7431,9.6685,9.7517,9.6413,9.4721,9.2459,8.8937,8.4403,0.0,0.0,0.0,0.0,0.0,0.0,0.0,0.0,6.9383,7.2338,7.4706,7.7345,8.0052,8.0932,8.1575,8.1866,8.0987,8.0661,8.0581,8.031,8.0209,8.0209,8.0209,8.0209,8.0209,8.0209,8.0209,8.0276,8.0729,8.056,8.031,8.0729,8.056,8.0209,8.0209,8.0209,8.0209,8.0209,8.0209,8.0107,7.9837,7.7976,7.5777,7.3668,7.2214,7.1064,0.0,0.0,0.0,0.0,0.0,0.0,0.0,0.0,0.0,0.0,0.0,0.0,0.0,0.0,0.0,0.0,0.0,0.0,6.2289,0.0,7.0117,7.324,7.51,7.6183,7.6601,7.4965,7.4153,7.4119,7.2935,7.1988,7.1368,7.2721,7.3375,7.3556,7.4469,7.5168,7.5811,7.7075,7.7299,7.7096,7.872,7.9228,7.9147,8.7414,0.0,8.76,0.0,9.1497,9.066,9.2544,9.2743,9.2194,9.0774,9.1851,9.2184,9.0733,9.3649,9.5651,9.5429,9.5572,9.6618,9.892,9.7357,9.6519,9.6835,9.6187,0.0,9.2459,8.9715,8.5858,8.0851,7.6881,0.0,0.0,0.0,0.0,0.0,6.8358,7.1176,7.4266,7.6183,7.8699,8.1304,8.1304,8.146,8.1617,8.0615,8.0209,8.0209,8.0209,8.0209,8.0209,8.0209,8.0344,8.0513,8.0513,8.0378,8.0344,8.1067,8.0796,8.031,8.083,8.0581,8.0209,8.0209,8.0209,8.0209,8.0209,8.0209,8.0141,7.9938,7.845,7.6758,7.519,7.3296,7.1988,0.0,0.0,0.0,0.0,0.0,0.0,0.0,0.0,5.6147,5.4025,0.0,0.0,0.0,0.0,0.0,0.0,0.0,0.0,0.0,0.0,0.0,0.0,7.5168,7.6251,7.5676,7.5168,7.4818,7.4547,7.3308,7.2428,7.2011,7.3612,7.4086,7.3894,7.4965,7.5506,7.5811,7.7176,7.7367,7.713,7.916,7.9566,7.9215,9.158,9.2948,9.4266,9.6779,9.6169,9.4919,9.3748,9.1901,9.0638,9.0597,9.0618,9.0638,9.0597,9.2415,9.337,9.2719,9.6134,9.6993,9.3797,9.7011,9.7589,0.0,0.0,9.4721,9.2459,9.0222,8.6887,8.2361,0.0,0.0,7.0172,0.0,6.9045,6.9248,7.3646,7.5608,7.5879,7.8855,8.0593,8.1304,8.1304,8.0864,8.0209,8.0209,8.0209,8.0209,8.0209,8.0209,8.0209,8.0209,8.0695,8.127,8.127,8.0796,8.0344,8.1067,8.0796,8.0209,8.0209,8.0209,8.0209,8.0209,8.0209,8.0209,8.0209,8.0209,8.0006,7.9249,7.8517,7.7515,7.598,7.4469,7.3015,7.1537,0.0,0.0,0.0,0.0,0.0,0.0,6.0994,5.8592,5.4947,0.0,0.0,0.0,0.0,0.0,0.0,0.0,0.0,6.1255,6.706,0.0,7.2394,7.4593,7.5709,7.5709,7.5676,7.5303,7.4581,7.3827,7.3488,7.3454,7.3488,7.3916,7.4581,7.4615,7.5021,7.5777,7.6589,7.6893,7.7096,7.8572,7.9114,7.9215,9.1581,9.0586,9.0219,9.2881,9.1954,9.0992,9.1496,9.0992,9.0597,9.0597,9.0597,9.0597,9.0597,9.1177,9.2032,0.0,9.2386,9.2688,0.0,9.3463,9.3245,9.4782,9.3717,9.2869,9.2411,8.9748,8.6636,8.3152,0.0,0.0,0.0,7.4052,7.3849,7.2992,7.6475,7.8585,7.9646,8.1629,8.2577,8.2759,8.2238,8.1596,8.0898,8.0378,8.0209,8.0276,8.0763,8.0966,8.1033,8.1528,8.1866,8.2137,8.2644,8.2306,8.1765,8.1968,8.1528,8.0966,8.0966,8.0581,8.0209,8.0209,8.0209,8.031,8.083,8.0966,8.0581,7.935,7.8517,7.7684,7.669,7.527,7.3916,7.2981,0.0,0.0,0.0,0.0,0.0,0.0,5.7103,5.5141,0.0,5.4532,0.0,0.0,0.0,0.0,0.0,0.0,0.0,0.0,6.6846,0.0,7.3116,7.4842,7.5709,7.5709,7.5709,7.5303,7.4615,7.4864,7.4436,7.3556,7.4571,7.4864,7.4649,7.5122,7.5473,7.5777,7.6589,7.7198,7.7785,7.8742,7.9418,7.987,9.1011,9.0172,8.9742,9.1243,9.0749,9.0275,9.0542,9.0597,9.0597,9.0597,9.0597,9.0597,9.0597,9.0597,0.0,9.3414,9.173,9.1553,9.3935,9.2402,9.1935,9.324,9.263,9.2179,9.2005,0.0,0.0,8.4776,8.2454,7.9578,7.6306,7.757,7.7773,7.7232,7.9655,8.1257,8.2218,8.3389,8.3761,8.3456,8.3016,8.2374,8.1663,8.119,8.1021,8.1088,8.1528,8.171,8.1765,8.2225,8.2564,8.2881,8.3355,8.3375,8.3172,8.2902,8.2306,8.1642,8.1372,8.0966,8.056,8.0276,8.0209,8.0378,8.1135,8.1304,8.1033,8.0107,7.8889,7.7853,7.7413,7.5845,7.4345,7.3624,0.0,7.0658,0.0,0.0,0.0,0.0,0.0,0.0,0.0,5.6325,0.0,0.0,0.0,0.0,0.0,0.0,0.0,6.3575,6.7726,0.0,7.3883,7.51,7.5709,7.5709,7.5709,7.5473,7.5033,7.5506,7.5214,7.4368,7.5315,7.5439,7.5067,7.5506,7.5879,7.6183,7.669,7.7502,7.8483,7.8911,7.9566,8.0209,8.9931,9.1121,0.0,0.0,9.1902,0.0,9.0757,9.0597,9.0567,9.0537,9.0537,9.0507,9.0477,9.0447,9.1231,9.3094,0.0,0.0,0.0,9.2941,9.2779,9.0271,9.1726,0.0,9.1397,9.0493,8.899,8.6825,8.3266,8.0818,7.9486,8.0162,8.0851,8.1575,8.2844,8.3465,8.3612,8.4182,8.406,8.349,8.349,8.305,8.2395,8.2395,8.2395,8.2395,8.2462,8.2462,8.2496,8.253,8.3016,8.3592,8.3592,8.4052,8.4444,8.3727,8.3016,8.2306,8.1507,8.1304,8.1101,8.0378,8.0242,8.0445,8.1067,8.127,8.127,8.1236,7.9545,7.8056,7.8022,7.6149,7.4345,7.3624,7.2124,6.9778,6.6079,0.0,0.0,0.0,0.0,0.0,0.0,6.0013,6.068,0.0,0.0,0.0,0.0,0.0,6.3091,6.5842,6.9519,7.2484,7.4649,7.5371,7.5743,7.5777,7.5845,7.5845,7.5845,7.5811,7.5777,7.5777,7.5709,7.5709,7.5709,7.5709,7.6149,7.6826,7.6893,7.7773,7.9046,7.908,7.9566,8.0209,0.0,0.0,8.8326,8.9208,8.9913,9.0444,9.056,9.0597,9.0438,8.9971,8.9911,8.9731,8.9202,8.9142,8.9336,8.9832,8.9842,8.9721,8.9419,8.8381,8.8718,9.0857,8.9274,8.9538,9.2063,8.9768,8.7719,8.6075,8.4573,8.3646,8.3295,8.3477,8.3646,8.3762,8.289,8.3181,8.4276,8.321,8.3041,8.349,8.349,8.305,8.2395,8.2395,8.2395,8.2462,8.305,8.3253,8.3321,8.3883,8.4208,8.4356,8.4356,8.4444,8.4444,8.3727,8.3389,8.2949,8.1642,8.1304,8.1101,8.0378,8.0627,8.0932,8.056,8.0898,8.1135,8.0581,7.96,7.8686,7.809,7.6149,7.4345,7.3624,7.0804,6.7624,6.4468,6.2922,0.0,0.0,5.9539,6.0486,6.0486,6.0419,6.0723,0.0,0.0,0.0,0.0,0.0,6.7557,6.8267,7.1345,7.3781,7.5439,7.5608,7.6014,7.6623,7.721,7.7447,7.7447,7.686,7.6623,7.6589,7.598,7.5709,7.5709,7.5709,7.5811,7.6048,7.6657,7.7468,7.8314,7.8877,7.9566,8.0209,8.6076,8.6461,8.7038,8.8065,8.8544,8.8993,8.963,8.972,8.9621,8.9282,8.9222,8.9103,8.8744,8.8714,8.8714,8.8714,8.8714,8.8574,8.8245,8.6948,8.7516,9.0582,8.8914,8.9171,9.1827,9.0324,8.8598,8.6819,8.5689,8.5148,8.5148,8.4749,8.4197,8.3462,8.2586,8.2288,8.2401,8.2273,8.2453,8.2956,8.3698,8.3748,8.3409,8.3409,8.3409,8.3477,8.3849,8.3984,8.4052,8.4458,8.4614,8.4473,8.3743,8.3489,8.3423,8.3035,8.3443,8.3748,8.2611,8.2319,8.2048,8.0966,8.127,8.1596,8.0864,8.0999,8.1202,8.0796,7.987,7.8877,7.8157,7.642,7.4424,7.2338,6.9699,6.6508,6.2506,6.1907,0.0,5.9142,6.1231,6.2956,6.327,6.3869,6.414,6.3913,0.0,0.0,6.6068,6.8977,7.0601,7.0601,7.3138,7.5248,7.6736,7.6736,7.6973,7.7401,7.7819,7.7988,7.7988,7.7582,7.7198,7.6893,7.6454,7.6048,7.5709,7.5709,7.5912,7.6284,7.6724,7.7333,7.809,7.8809,7.935,7.9769,8.4833,8.591,8.7038,8.7616,8.7796,8.8035,8.8624,8.8714,8.8654,8.8564,8.8564,8.8504,8.8414,8.8414,8.8414,8.8414,8.8414,8.8185,8.7736,8.6888,8.7509,8.9987,8.9251,8.9578,9.1266,9.0966,8.9884,8.7989,8.6514,8.5662,8.5411,8.4608,8.3393,8.1839,8.156,8.084,7.9864,8.0988,8.1766,8.233,8.3701,8.4392,8.4614,8.4614,8.4614,8.4614,8.4614,8.4614,8.4614,8.4614,8.4433,8.4008,8.2628,8.2026,8.1882,8.2112,8.3152,8.4143,8.364,8.3231,8.2614,8.1112,8.1385,8.1879,8.1252,8.1218,8.1304,8.1304,8.0209,7.9025,7.8157,7.6736,7.4593,7.1221,6.8853,6.5797,6.1264,0.0,6.139,6.0689,6.3565,6.5899,6.6654,6.8267,6.8605,6.6992,6.8921,0.0,0.0,7.1379,7.2935,7.3071,7.4762,7.642,7.7988,7.8124,7.8157,7.8157,7.8293,7.8327,7.8327,7.8225,7.7751,7.7063,7.6961,7.6454,7.5709,7.5709,7.6082,7.6724,7.686,7.7333,7.809,7.8809,7.9181,7.935,8.5432,8.6629,8.7586,8.7676,8.8155,8.8594,8.8684,8.8714,8.8484,8.7915,8.7856,8.7646,8.7067,8.7008,8.7008,8.7008,8.7008,8.7217,8.7676,8.603,8.6531,8.9955,8.8341,8.8568,9.1233,8.9478,8.8328,8.7989,8.6514,8.5075,8.3673,8.2917,8.169,8.012,7.8706,7.8706,7.9712,7.8549,7.9648,8.223,8.2472,8.3393,8.4614,8.4614,8.4614,8.4614,8.4614,8.4614,8.4614,8.4614,8.3701,8.2529,8.2288,8.1286,8.0438,8.1795,8.2387,8.272,8.3328,8.206,8.0141,7.8499,7.9237,8.0347,8.0215,8.0755,8.1304,8.1304,8.0627,7.96,7.8259,7.6736,7.51,7.3285,6.8548,6.4613,6.3183,0.0,6.3115,6.298,6.7309,7.0556,7.1278,7.0534,7.0646,7.2169,7.0984,7.0917,7.2541,7.4266,7.5506,7.6183,7.5879,7.642,7.7988,7.8619,7.8911,7.8945,7.9566,7.987,7.9837,7.9215,7.8517,7.7785,7.7164,7.6454,7.5709,7.5709,7.5777,7.5946,7.6623,7.7333,7.809,7.8809,7.9486,8.004,8.5103,8.624,8.7137,8.7137,8.7427,8.7606,8.7606,8.7606,8.7516,8.7197,8.7137,8.7038,8.6738,8.6708,8.6708,8.6708,8.6708,8.6678,8.6629,8.5432,8.6134,8.9416,8.7926,8.8177,9.0658,8.9323,8.8138,8.7193,8.5768,8.4182,8.2519,8.1434,8.0029,7.8424,7.766,7.7256,7.7173,7.7272,7.869,8.0974,8.1853,8.3152,8.4614,8.4614,8.4614,8.4614,8.4614,8.4614,8.4473,8.3586,8.2797,8.1896,8.0135,7.9049,7.8581,7.9326,8.0808,8.2307,8.2697,8.1388,7.9609,7.8374,7.9354,8.0475,8.0099,8.0996,8.19,8.19,8.1291,8.0458,7.9375,7.7278,7.51,7.3218,6.8233,0.0,0.0,6.4333,6.4705,6.6328,6.9711,7.2191,7.2913,7.2372,7.2575,7.3984,7.3138,7.3172,7.4605,7.5743,7.669,7.7481,7.7908,7.8462,7.9172,7.9532,7.9701,7.9689,8.004,8.0209,8.0175,7.987,7.9295,7.8585,7.8247,7.7435,7.6352,7.6352,7.6082,7.5777,7.6589,7.7096,7.7536,7.8674,7.9317,7.9655,8.5103,8.599,8.6708,8.6708,8.6708,8.6708,8.6708,8.6708,8.6708,8.6708,8.6708,8.6708,8.6708,8.6708,8.6708,8.6708,8.6559,8.62,8.5521,8.4844,8.5768,8.8714,8.8146,8.852,9.0165,8.907,8.7839,8.648,8.4704,8.2961,8.13,7.9871,7.8329,7.6718,7.6718,7.6066,7.4988,7.6219,7.7692,7.9374,8.0988,8.2614,8.4089,8.446,8.4614,8.4614,8.4614,8.4366,8.3852,8.2614,8.1676,8.0615,7.8092,7.7045,7.6831,7.7176,7.9095,8.1044,8.1044,8.015,7.8968,7.7997,7.9269,8.0654,8.007,8.1353,8.254,8.2178,8.1385,8.0433,7.9297,7.7078,7.4757,7.2695,0.0,0.0,0.0,6.5899,6.6576,6.9045,7.1447,7.3274,7.4199,7.43,7.4605,7.5325,7.5405,7.5642,7.6183,7.6995,7.7739,7.8496,7.96,8.0209,8.0209,8.0209,8.0209,8.0209,8.0209,8.0209,8.0209,8.0209,7.9803,7.9114,7.9114,7.837,7.7164,7.7164,7.6792,7.6284,7.6893,7.7266,7.7536,7.8674,7.9215,7.9381,8.6319,8.6619,8.6708,8.6708,8.6708,8.6708,8.6708,8.6708,8.6708,8.6708,8.6708,8.6708,8.6708,8.6708,8.6708,8.6708,8.614,8.5492,8.4833,8.4156,8.5047,8.7963,8.9287,9.0033,9.0208,8.788,8.6633,8.648,8.3536,8.1237,7.9552,7.8152,7.6618,7.5091,7.5091,7.5023,7.4903,7.504,7.6016,7.7644,7.9312,8.0926,8.2543,8.4035,8.4614,8.4614,8.4614,8.366,8.2359,8.2259,8.0195,7.7628,7.7387,7.6285,7.5354,7.6849,7.7467,7.7676,7.7676,7.758,7.7095,7.555,7.7549,7.9874,7.9842,8.168,8.2985,8.1511,8.0104,7.8472,7.6178,7.5134,7.4099,7.2557,0.0,0.0,6.7827,6.8335,6.9113,7.0003,7.2665,7.5021,7.6521,7.6657,7.6961,7.7684,7.7751,7.7785,7.7819,7.8551,7.9283,8.0006,8.0141,8.0209,8.0209,8.0209,8.0209,8.0209,8.0209,8.0209,8.0209,8.0209,7.9803,7.9114,7.9114,7.8653,7.7921,7.7921,7.7887,7.7853,7.7887,7.8348,7.8945,7.9046,7.952,7.993,8.5372,8.614,8.6708,8.6708,8.6708,8.6708,8.6708,8.6708,8.6708,8.6708,8.6708,8.6708,8.6708,8.6708,8.6708,8.6708,8.611,8.5432,8.4724,8.5107,8.5781,8.6642,8.8949,8.9475,8.7947,8.6993,8.5458,8.3333,8.1748,8.0103,7.8391,7.7416,7.6451,7.5527,7.5527,7.5305,7.4886,7.4886,7.5846,7.7354,7.798,7.9234,8.0781,8.1403,8.1603,8.1618,8.1636,8.1224,8.0558,7.9527,7.8329,7.7142,7.6149,7.5388,7.5023,7.5628,7.5829,7.5829,7.5829,7.5829,7.5661,7.5057,7.7368,7.9788,7.9788,8.1291,8.2511,8.1902,8.0177,7.8368,7.7046,7.628,7.5655,7.5168,0.0,7.0996,7.2529,7.1819,7.1751,7.3409,7.5439,7.6927,7.7548,7.7582,7.7874,7.8619,7.8686,7.8889,7.9342,7.9634,7.9904,8.0175,8.0209,8.0209,8.0209,8.0209,8.0209,8.0209,8.0209,8.0209,8.0209,8.0209,8.004,7.9769,7.9769,7.9363,7.8686,7.8686,7.8416,7.8056,7.8483,7.8843,7.9147,7.9621,8.0242,8.0788,8.4664,8.5611,8.6379,8.6379,8.6379,8.6379,8.6379,8.6229,8.608,8.608,8.6259,8.6379,8.6379,8.6559,8.6619,8.6409,8.5761,8.5103,8.4425,8.5054,8.5839,8.6727,8.8223,8.8238,8.6543,8.5442,8.3754,8.1394,8.0169,7.8964,7.7801,7.6916,7.6288,7.5886,7.5677,7.5335,7.4886,7.4886,7.5557,7.6585,7.711,7.7996,7.908,7.9605,7.9803,7.9786,7.9803,7.9466,7.8847,7.7692,7.6963,7.6368,7.5265,7.4886,7.4886,7.4886,7.4886,7.4886,7.4886,7.4886,7.4886,7.4886,7.6962,7.9018,7.9018,8.0288,8.1282,8.0764,7.918,7.7599,7.6696,7.6545,7.6454,7.609,7.4535,7.395,7.5473,7.4593,7.439,7.5912,7.721,7.8191,7.8665,7.8699,7.9092,8.0061,8.0128,8.0276,8.0513,8.031,8.0209,8.0209,8.0209,8.0209,8.0209,8.0209,8.0209,8.0209,8.0209,8.0209,8.0209,8.0209,8.0209,8.0209,8.0209,7.9904,7.9452,7.9452,7.916,7.8733,7.9261,7.9587,7.987,8.0344,8.1021,8.1578,8.4545,8.5222,8.5671,8.5671,8.5671,8.5671,8.5671,8.5132,8.4694,8.4694,8.5282,8.5701,8.5701,8.6289,8.6409,8.5731,8.5073,8.4395,8.3756,8.3506,8.4942,8.8423,8.7226,8.645,8.645,8.3121,8.1377,8.1377,7.8992,7.7813,7.7801,7.6514,7.5916,7.5886,7.5215,7.4886,7.4886,7.4886,7.4886,7.5057,7.665,7.7274,7.7467,7.9127,7.9757,7.9757,7.9757,7.8706,7.7274,7.7274,7.6219,7.4886,7.4886,7.4886,7.4886,7.4886,7.4886,7.4886,7.4886,7.4886,7.4886,7.4886,7.6116,7.729,7.729,7.8597,7.9312,7.7644,7.6763,7.5799,7.4188,7.5324,7.6021,7.4579,7.6406,7.7481,7.5946,7.642,7.6927,7.6927,7.7582,7.8597,8.0073,8.0209,8.0818,8.2293,8.2395,8.2069,8.1338,8.0627,8.0209,8.0209,8.0209,8.0209,8.0209,8.0209,8.0209,8.0209,8.0209,8.0209,8.0209,8.0209,8.0209,8.0209,8.0209,8.0209,8.0209,8.0209,8.0209,8.0209,8.0209,8.0648,8.1304,8.1304,8.1765,8.2199,8.3957,8.4545,8.5013,8.5013,8.5013,8.5013,8.5013,8.5222,8.5402,8.5402,8.599,8.6229,8.5731,8.59,8.5731,8.5073,8.4395,8.4268,8.4925,8.4385,8.4867,8.6759,8.55,8.4155,8.2956,8.1922,8.0791,7.9587,7.8866,7.8489,7.8489,7.7622,7.6976,7.6497,7.5886,7.5335,7.4886,7.4886,7.4886,7.4937,7.5422,7.5611,7.5661,7.6166,7.6365,7.6365,7.6365,7.6033,7.5611,7.5611,7.5316,7.4886,7.4886,7.4886,7.4886,7.4886,7.4886,7.4886,7.4886,7.4886,7.4886,7.4886,7.6116,7.729,7.729,7.7692,7.7916,7.7403,7.6234,7.505,7.4072,7.6148,7.7681,7.6833,7.8719,8.0154,7.968,7.9849,7.9984,7.9984,8.0648,8.1257,8.1684,8.1718,8.1921,8.2361,8.2395,8.2293,8.2069,8.1359,8.1202,8.1731,8.075,8.0445,8.0966,8.0445,8.0209,8.0209,8.0209,8.0209,8.0209,8.0209,8.0209,8.0209,8.0209,8.0209,8.0209,8.0209,8.0209,8.0209,8.0209,8.0648,8.1304,8.1304,8.2069,8.2955,8.3337,8.3856,8.4305,8.4305,8.4305,8.4395,8.4664,8.4814,8.4904,8.4904,8.5492,8.5641,8.4963,8.5162,8.5023,8.4365,8.3707,8.3549,8.4014,8.3592,8.3514,8.3978,8.2921,8.2034,8.1394,8.0704,7.9857,7.8807,7.8807,7.8807,7.8777,7.7861,7.7185,7.6749,7.5886,7.5275,7.4886,7.4886,7.4886,7.4886,7.4886,7.4886,7.4886,7.4886,7.4886,7.4886,7.4886,7.4886,7.4886,7.4886,7.4886,7.4886,7.4886,7.4886,7.4886,7.4886,7.4886,7.4886,7.4886,7.4886,7.4886,7.4886,7.5628,7.6368,7.6368,7.6368,7.6368,7.6368,7.556,7.4958,7.5183,7.7355,7.9056,7.903,8.0783,8.2082,8.1778,8.1731,8.1731,8.1731,8.2137,8.2496,8.2813,8.2847,8.2949,8.324,8.3003,8.2847,8.2847,8.2137,8.1934,8.2395,8.1257,8.0999,8.1744,8.0999,8.0479,8.0209,8.0209,7.9896,7.9301,7.9301,7.9301,7.9301,7.9301,7.9644,8.0209,8.0209,8.0209,8.0209,8.0209,8.0818,8.1731,8.1731,8.2678,8.3718,8.2806,8.3247,8.3617,8.3617,8.3658,8.3886,8.4444,8.4126,8.3748,8.3718,8.4275,8.4455,8.3777,8.4245,8.4335,8.3677,8.3117,8.2537,8.1919,8.183,8.15,8.0823,8.0147,8.0241,8.1152,7.9622,7.8807,7.8807,7.8747,7.8699,7.8669,7.7335,7.6719,7.6676,7.5437,7.4886,7.4886,7.4886,7.4886,7.4886,7.4886,7.4886,7.4886,7.4886,7.4886,7.4886,7.4886,7.4886,7.4886,7.4886,7.4886,7.4886,7.4886,7.4886,7.4886,7.4886,7.4886,7.4886,7.4886,7.4886,7.4886,7.4886,7.4886,7.4886,7.4886,7.4886,7.4886,7.4886,7.4886,7.5388,7.7012,7.8675,8.009,8.1053,8.2555,8.3355,8.2699,8.2598,8.2598,8.2598,8.2598,8.2868,8.3524,8.3592,8.3896,8.4546,8.3998,8.3592,8.3592,8.2902,8.253,8.2598,8.1832,8.1731,8.2496,8.1778,8.1067,8.0378,8.0251,7.9442,7.8079,7.7943,7.7875,7.7875,7.7875,7.873,8.0187,8.0187,8.023,8.031,8.0378,8.1224,8.2395,8.2462,8.3375,8.4352,8.2806,8.2926,8.2997,8.2997,8.3397,8.3587,8.3266,8.3936,8.4305,8.3777,8.4275,8.4455,8.3777,8.3827,8.3677,8.3057,8.2896,8.2747,8.2597,8.2069,8.15,8.0823,8.0147,7.9658,7.9368,7.8975,7.8807,7.8807,7.828,7.8011,7.7981,7.6706,7.6096,7.6048,7.5275,7.4886,7.4886,7.4886,7.4886,7.4886,7.4886,7.4886,7.4886,7.4886,7.4886,7.4886,7.4886,7.4886,7.4886,7.4886,7.4886,7.4886,7.4886,7.4886,7.4886,7.4886,7.4886,7.4886,7.4886,7.4886,7.4886,7.4886,7.4886,7.4886,7.4886,7.4886,7.4886,7.4886,7.4886,7.5388,7.7012,7.8659,8.0268,8.1742,8.331,8.4323,8.414,8.4106,8.4106,8.4106,8.4106,8.4187,8.4356,8.4356,8.4424,8.458,8.4444,8.4356,8.4356,8.3646,8.3524,8.4106,8.2834,8.2509,8.3253,8.2543,8.2069,8.1908,8.0642,7.9857,7.9512,7.8204,7.7593,7.7593,7.7593,7.8533,8.0054,8.0054,8.0442,8.1135,8.1697,8.2124,8.2462,8.305,8.3815,8.4184,8.2806,8.2806,8.2806,8.2806,8.3057,8.3247,8.3217,8.3797,8.4096,8.3748,8.4006,8.3856,8.2918,8.2779,8.2529,8.189,8.186,8.186,8.186,8.153,8.1171,8.0823,8.0147,7.9638,7.9297,7.8968,7.8807,7.8807,7.813,7.7801,7.7753,7.6514,7.5916,7.5886,7.5215,7.4886,7.4886,7.4886,7.4886,7.4886,7.4886,7.4886,7.4886,7.4886,7.4886,7.4886,7.4886,7.4886,7.4886,7.4886,7.4886,7.4886,7.4886,7.4886,7.4886,7.4886,7.4886,7.4886,7.4886,7.4886,7.4886,7.4886,7.4886,7.4886,7.4886,7.4886,7.4886,7.4886,7.5523,7.6535,7.8187,7.9832,8.149,8.3082,8.4062,8.4614,8.4614,8.4614,8.4614,8.4614,8.4614,8.4614,8.4614,8.3893,8.3448,8.3448,8.2741,8.2297,8.2316,8.1953,8.192,8.2283,8.1181,8.095,8.1722,8.1771,8.1945,8.2312,8.153,8.0366,7.8878,7.8002,7.7169,7.641,7.641,7.7317,7.8874,7.966,8.0272,8.0809,8.1965,8.2598,8.2983,8.3355,8.349,8.3096,8.2806,8.2806,8.2806,8.2806,8.2896,8.3087,8.3497,8.3647,8.3658,8.3557,8.3557,8.3138,8.2099,8.186,8.153,8.0853,8.0794,8.0794,8.0794,8.0704,8.0644,8.0644,7.9967,7.9638,7.9638,7.9088,7.8729,7.8627,7.7981,7.7574,7.7442,7.6275,7.5736,7.5707,7.5155,7.4886,7.4886,7.4886,7.4886,7.4886,7.4886,7.4886,7.4886,7.4886,7.4886,7.4886,7.4886,7.4886,7.4886,7.4886,7.4886,7.4886,7.4886,7.4886,7.4886,7.4886,7.4886,7.4886,7.4886,7.4886,7.4886,7.4886,7.4886,7.4886,7.4886,7.4886,7.4886,7.4886,7.6169,7.7789,7.9496,8.09,8.233,8.392,8.4184,8.4184,8.4184,8.4433,8.4614,8.4614,8.4366,8.4089,8.3811,8.2572,8.1795,8.1795,8.054,7.9786,7.9788,7.9788,7.9788,7.9788,7.915,7.9118,7.9788,8.0521,8.1158,8.1777,8.2171,8.0854,7.8028,7.7759,7.6709,7.5153,7.5153,7.6041,7.7577,7.8971,7.9643,7.9927,8.1692,8.2648,8.3126,8.3533,8.2886,8.1621,8.2806,8.2806,8.2806,8.2806,8.3217,8.3408,8.2997,8.3367,8.3497,8.2997,8.2926,8.2866,8.2687,8.2129,8.153,8.0853,8.0794,8.0794,8.0794,8.0266,7.9937,7.9937,7.9297,7.8956,7.8956,7.8867,7.8519,7.7951,7.7275,7.6676,7.6155,7.5395,7.5035,7.5035,7.4946,7.4886,7.4886,7.4886,7.4886,7.4886,7.4886,7.4886,7.4886,7.4886,7.4886,7.4886,7.4886,7.4886,7.4886,7.4886,7.4886,7.4886,7.4886,7.4886,7.4886,7.4886,7.4886,7.4886,7.4886,7.4886,7.4886,7.4886,7.4886,7.4886,7.4886,7.4886,7.4886,7.4886,7.6169,7.782,7.9497,7.997,8.0647,8.2273,8.2515,8.2515,8.2515,8.3729,8.4614,8.4614,8.3379,8.1968,8.0573,8.0243,8.0122,8.0122,7.9925,7.9803,7.9788,7.9788,7.9788,7.9788,7.969,7.969,7.9788,7.992,8.0025,8.0137,8.1555,8.1284,7.9454,7.803,7.6472,7.4927,7.4927,7.5858,7.7348,7.7556,7.8105,7.9037,8.1324,8.1887,8.1658,8.3699,8.2599,8.009,8.168,8.168,8.18,8.2159,8.2458,8.2679,8.2776,8.3027,8.3117,8.2836,8.2806,8.2657,8.2279,8.1302,8.0405,7.9746,7.9686,7.9686,7.9686,7.9417,7.9238,7.9238,7.8938,7.8807,7.8807,7.8807,7.828,7.7245,7.6928,7.6659,7.6377,7.5365,7.4886,7.4886,7.4886,7.4886,7.4886,7.4886,7.4886,7.4886,7.4886,7.4886,7.4886,7.4886,7.4886,7.4886,7.4886,7.4886,7.4886,7.4886,7.4886,7.4886,7.4886,7.4886,7.4886,7.4886,7.4886,7.4886,7.4886,7.4886,7.4886,7.4886,7.4886,7.4886,7.4886,7.4886,7.4886,7.4886,7.6169,7.7532,7.8281,7.9157,8.0348,8.1939,8.2216,8.2515,8.3407,8.4157,8.4285,8.3365,8.2628,8.1578,7.9955,7.8956,7.8408,7.8408,7.7563,7.7059,7.7059,7.7059,7.7059,7.7059,7.7059,7.7059,7.7059,7.7948,7.8408,7.8408,8.0059,7.9984,7.8424,7.8612,7.7305,7.4886,7.4886,7.5286,7.6033,7.6931,7.7537,7.8077,8.0082,8.1204,8.1939,8.3887,8.3138,8.1018]},{"header":{"parameterUnit":"m.s-1","parameterCategory":1,"la1":30.6,"la2":28.766,"lo1":-90.7593,"lo2":-88.6598,"dy":0.0162,"dx":0.0183,"nx":116,"ny":114,"refTime":"2023-03-13T12:00:00:Z","depth":0,"parameterNumber":3,"parameterNumberName":"V-component_of_WINDS"},"data":[0.0,0.0,0.0,0.0,0.0,0.0,0.0,0.0,0.0,0.0,0.0,0.0,0.0,0.0,0.0,0.0,0.0,0.0,0.0,0.0,0.0,0.0,0.0,0.0,0.0,0.0,0.0,0.0,0.0,0.0,0.0,0.0,0.0,0.0,0.0,0.0,0.0,0.0,0.0,0.0,0.0,0.0,0.0,0.0,0.0,0.0,0.0,0.0,0.0,0.0,0.0,0.0,0.0,0.0,0.0,0.0,0.0,0.0,0.0,0.0,0.0,0.0,0.0,0.0,0.0,0.0,0.0,0.0,0.0,0.0,0.0,0.0,0.0,0.0,0.0,0.0,0.0,0.0,0.0,0.0,0.0,0.0,0.0,0.0,0.0,0.0,0.0,0.0,0.0,0.0,0.0,0.0,0.0,0.0,0.0,0.0,0.0,0.0,0.0,0.0,0.0,0.0,0.0,0.0,0.0,0.0,0.0,0.0,0.0,0.0,0.0,0.0,0.0,0.0,0.0,0.0,0.0,0.0,0.0,0.0,0.0,0.0,0.0,0.0,0.0,0.0,0.0,0.0,0.0,0.0,0.0,0.0,0.0,0.0,0.0,0.0,0.0,0.0,0.0,0.0,0.0,0.0,0.0,0.0,0.0,0.0,0.0,0.0,0.0,0.0,0.0,0.0,0.0,0.0,0.0,0.0,0.0,0.0,0.0,0.0,0.0,0.0,0.0,0.0,0.0,0.0,0.0,0.0,0.0,0.0,0.0,0.0,0.0,0.0,0.0,0.0,0.0,0.0,0.0,0.0,0.0,0.0,0.0,0.0,0.0,0.0,0.0,0.0,0.0,0.0,0.0,0.0,0.0,0.0,0.0,0.0,0.0,0.0,0.0,0.0,0.0,0.0,0.0,0.0,0.0,0.0,0.0,0.0,0.0,0.0,0.0,0.0,0.0,0.0,0.0,0.0,0.0,0.0,0.0,0.0,0.0,0.0,0.0,0.0,0.0,0.0,0.0,0.0,0.0,0.0,0.0,0.0,0.0,0.0,0.0,0.0,0.0,0.0,0.0,0.0,0.0,0.0,0.0,0.0,0.0,0.0,0.0,0.0,0.0,0.0,0.0,0.0,0.0,0.0,0.0,0.0,0.0,0.0,0.0,0.0,0.0,0.0,0.0,0.0,0.0,0.0,0.0,0.0,0.0,0.0,0.0,0.0,0.0,0.0,0.0,0.0,0.0,0.0,0.0,0.0,0.0,0.0,0.0,0.0,0.0,0.0,0.0,0.0,0.0,0.0,0.0,0.0,0.0,0.0,0.0,0.0,0.0,0.0,0.0,0.0,0.0,0.0,0.0,0.0,0.0,0.0,0.0,0.0,0.0,0.0,0.0,0.0,0.0,0.0,0.0,0.0,0.0,0.0,0.0,0.0,0.0,0.0,0.0,0.0,0.0,0.0,0.0,0.0,0.0,0.0,0.0,0.0,0.0,0.0,0.0,0.0,0.0,0.0,0.0,0.0,0.0,0.0,0.0,0.0,0.0,0.0,0.0,0.0,0.0,0.0,0.0,0.0,0.0,0.0,0.0,0.0,0.0,0.0,0.0,0.0,0.0,0.0,0.0,0.0,0.0,0.0,0.0,0.0,0.0,0.0,0.0,0.0,0.0,0.0,0.0,0.0,0.0,0.0,0.0,0.0,0.0,0.0,0.0,0.0,0.0,0.0,0.0,0.0,0.0,0.0,0.0,0.0,0.0,0.0,0.0,0.0,0.0,0.0,0.0,0.0,0.0,0.0,0.0,0.0,0.0,0.0,0.0,0.0,0.0,0.0,0.0,0.0,0.0,0.0,0.0,0.0,0.0,0.0,0.0,0.0,0.0,0.0,0.0,0.0,0.0,0.0,0.0,0.0,0.0,0.0,0.0,0.0,0.0,0.0,0.0,0.0,0.0,0.0,0.0,0.0,0.0,0.0,0.0,0.0,0.0,0.0,0.0,0.0,0.0,0.0,0.0,0.0,0.0,0.0,0.0,0.0,0.0,0.0,0.0,0.0,0.0,0.0,0.0,0.0,0.0,0.0,0.0,0.0,0.0,0.0,0.0,0.0,0.0,0.0,0.0,0.0,0.0,0.0,0.0,0.0,0.0,0.0,0.0,0.0,0.0,0.0,0.0,0.0,0.0,0.0,0.0,0.0,0.0,0.0,0.0,0.0,0.0,0.0,0.0,0.0,0.0,0.0,0.0,0.0,0.0,0.0,0.0,0.0,0.0,0.0,0.0,0.0,0.0,0.0,0.0,0.0,0.0,0.0,0.0,0.0,0.0,0.0,0.0,0.0,0.0,0.0,0.0,0.0,0.0,0.0,0.0,0.0,0.0,0.0,0.0,0.0,0.0,0.0,0.0,0.0,0.0,0.0,0.0,0.0,0.0,0.0,0.0,0.0,0.0,0.0,0.0,0.0,0.0,0.0,0.0,0.0,0.0,0.0,0.0,0.0,0.0,0.0,0.0,0.0,0.0,0.0,0.0,0.0,0.0,0.0,0.0,0.0,0.0,0.0,0.0,0.0,0.0,0.0,0.0,0.0,0.0,0.0,0.0,0.0,0.0,0.0,0.0,0.0,0.0,0.0,0.0,0.0,0.0,0.0,0.0,0.0,0.0,0.0,0.0,0.0,0.0,0.0,0.0,0.0,0.0,0.0,0.0,0.0,0.0,0.0,0.0,0.0,0.0,0.0,0.0,0.0,0.0,0.0,0.0,0.0,0.0,0.0,0.0,0.0,0.0,0.0,0.0,0.0,0.0,0.0,0.0,0.0,0.0,0.0,0.0,0.0,0.0,0.0,0.0,0.0,0.0,0.0,0.0,0.0,0.0,0.0,0.0,0.0,0.0,0.0,0.0,0.0,0.0,0.0,0.0,0.0,0.0,0.0,0.0,0.0,0.0,0.0,0.0,0.0,0.0,0.0,0.0,0.0,0.0,0.0,0.0,0.0,0.0,0.0,0.0,0.0,0.0,0.0,0.0,0.0,0.0,0.0,0.0,0.0,0.0,0.0,0.0,0.0,0.0,0.0,0.0,0.0,0.0,0.0,0.0,0.0,0.0,0.0,0.0,0.0,0.0,0.0,0.0,0.0,0.0,0.0,0.0,0.0,0.0,0.0,0.0,0.0,0.0,0.0,0.0,0.0,0.0,0.0,0.0,0.0,0.0,0.0,0.0,0.0,0.0,0.0,0.0,0.0,0.0,0.0,0.0,0.0,0.0,0.0,0.0,0.0,0.0,0.0,0.0,0.0,0.0,0.0,0.0,0.0,0.0,0.0,0.0,0.0,0.0,0.0,0.0,0.0,0.0,0.0,0.0,0.0,0.0,0.0,0.0,0.0,0.0,0.0,0.0,0.0,0.0,0.0,0.0,0.0,0.0,0.0,0.0,0.0,0.0,0.0,0.0,0.0,0.0,0.0,0.0,0.0,0.0,0.0,0.0,0.0,0.0,0.0,0.0,0.0,0.0,0.0,0.0,0.0,0.0,0.0,0.0,0.0,0.0,0.0,0.0,0.0,0.0,0.0,0.0,0.0,0.0,0.0,0.0,0.0,0.0,0.0,0.0,0.0,0.0,0.0,0.0,0.0,0.0,0.0,0.0,0.0,0.0,0.0,0.0,0.0,0.0,0.0,0.0,0.0,0.0,0.0,0.0,0.0,0.0,0.0,0.0,0.0,0.0,0.0,0.0,0.0,0.0,0.0,0.0,0.0,0.0,0.0,0.0,0.0,0.0,0.0,0.0,0.0,0.0,0.0,0.0,0.0,0.0,0.0,0.0,0.0,0.0,0.0,0.0,0.0,0.0,0.0,0.0,0.0,0.0,0.0,0.0,0.0,0.0,0.0,0.0,0.0,0.0,0.0,0.0,0.0,0.0,0.0,0.0,0.0,0.0,0.0,0.0,0.0,0.0,0.0,0.0,0.0,0.0,0.0,0.0,0.0,0.0,0.0,0.0,0.0,0.0,0.0,0.0,0.0,0.0,0.0,0.0,0.0,0.0,0.0,0.0,0.0,0.0,0.0,0.0,0.0,0.0,0.0,0.0,0.0,0.0,0.0,0.0,0.0,0.0,0.0,0.0,0.0,0.0,0.0,0.0,0.0,0.0,0.0,0.0,0.0,0.0,0.0,0.0,0.0,0.0,0.0,0.0,0.0,0.0,0.0,0.0,0.0,0.0,0.0,0.0,0.0,0.0,0.0,0.0,0.0,0.0,0.0,0.0,0.0,0.0,0.0,0.0,0.0,0.0,0.0,0.0,0.0,0.0,0.0,0.0,0.0,0.0,0.0,0.0,0.0,0.0,0.0,0.0,0.0,0.0,0.0,0.0,0.0,0.0,0.0,0.0,0.0,0.0,0.0,0.0,0.0,0.0,0.0,0.0,0.0,0.0,0.0,0.0,0.0,0.0,0.0,0.0,0.0,0.0,0.0,0.0,0.0,0.0,0.0,0.0,0.0,0.0,0.0,0.0,0.0,0.0,0.0,0.0,0.0,0.0,0.0,0.0,0.0,0.0,0.0,0.0,0.0,0.0,0.0,0.0,0.0,0.0,0.0,0.0,0.0,0.0,0.0,0.0,0.0,0.0,0.0,0.0,0.0,0.0,0.0,0.0,0.0,0.0,0.0,0.0,0.0,0.0,0.0,0.0,0.0,0.0,0.0,0.0,0.0,0.0,0.0,0.0,0.0,0.0,0.0,0.0,0.0,0.0,0.0,0.0,0.0,0.0,0.0,0.0,0.0,0.0,0.0,0.0,0.0,0.0,0.0,0.0,0.0,0.0,0.0,0.0,0.0,0.0,0.0,0.0,0.0,0.0,0.0,0.0,0.0,0.0,0.0,0.0,0.0,0.0,0.0,0.0,0.0,0.0,0.0,0.0,0.0,0.0,0.0,0.0,0.0,0.0,0.0,0.0,0.0,0.0,0.0,0.0,0.0,0.0,0.0,0.0,0.0,0.0,0.0,0.0,0.0,0.0,0.0,0.0,0.0,0.0,0.0,0.0,0.0,0.0,0.0,0.0,0.0,0.0,0.0,0.0,0.0,0.0,0.0,0.0,0.0,0.0,0.0,0.0,0.0,0.0,0.0,0.0,0.0,0.0,0.0,0.0,0.0,0.0,0.0,0.0,0.0,0.0,0.0,0.0,0.0,0.0,0.0,0.0,0.0,0.0,0.0,0.0,0.0,0.0,0.0,0.0,0.0,0.0,0.0,0.0,0.0,0.0,0.0,0.0,0.0,0.0,0.0,0.0,0.0,0.0,0.0,0.0,0.0,0.0,0.0,0.0,0.0,0.0,0.0,0.0,0.0,0.0,0.0,0.0,0.0,0.0,0.0,0.0,0.0,0.0,0.0,0.0,0.0,0.0,0.0,0.0,0.0,0.0,0.0,0.0,0.0,0.0,0.0,0.0,0.0,0.0,0.0,0.0,0.0,0.0,0.0,0.0,0.0,0.0,0.0,0.0,0.0,0.0,0.0,0.0,0.0,0.0,0.0,0.0,0.0,0.0,0.0,0.0,0.0,0.0,0.0,0.0,0.0,0.0,0.0,0.0,0.0,0.0,0.0,0.0,0.0,0.0,0.0,0.0,0.0,0.0,0.0,0.0,0.0,0.0,0.0,0.0,0.0,0.0,0.0,0.0,0.0,0.0,0.0,0.0,0.0,0.0,0.0,0.0,0.0,0.0,0.0,0.0,0.0,0.0,0.0,0.0,0.0,0.0,0.0,0.0,0.0,0.0,0.0,0.0,0.0,0.0,0.0,0.0,0.0,0.0,0.0,0.0,0.0,0.0,0.0,0.0,0.0,0.0,0.0,0.0,0.0,0.0,0.0,0.0,0.0,0.0,0.0,0.0,0.0,0.0,0.0,0.0,0.0,0.0,0.0,0.0,0.0,0.0,0.0,0.0,0.0,0.0,0.0,0.0,0.0,0.0,0.0,0.0,0.0,0.0,0.0,0.0,0.0,0.0,0.0,0.0,0.0,0.0,0.0,0.0,0.0,0.0,0.0,0.0,0.0,0.0,0.0,0.0,0.0,0.0,0.0,0.0,0.0,0.0,0.0,0.0,0.0,0.0,0.0,0.0,0.0,2.0577,0.0,0.0,0.0,0.0,0.0,0.0,0.0,0.0,0.0,0.0,0.0,0.0,0.0,0.0,0.0,0.0,0.0,0.0,0.0,0.0,0.0,0.0,0.0,0.0,0.0,0.0,0.0,0.0,0.0,0.0,0.0,0.0,0.0,0.0,0.0,0.0,0.0,0.0,0.0,0.0,0.0,0.0,0.0,0.0,0.0,0.0,0.0,0.0,0.0,0.0,0.0,0.0,0.0,0.0,0.0,0.0,0.0,0.0,0.0,0.0,0.0,0.0,0.0,0.0,0.0,0.0,0.0,0.0,0.0,0.0,0.0,0.0,0.0,0.0,0.0,0.0,0.0,0.0,0.0,0.0,0.0,0.0,0.0,0.0,0.0,0.0,0.0,0.0,0.0,0.0,0.0,0.0,0.0,0.0,0.0,0.0,0.0,0.0,0.0,0.0,0.0,0.0,0.0,0.0,0.0,0.0,0.0,0.0,0.0,0.0,0.0,0.0,0.0,0.0,0.0,0.0,2.1269,0.0,0.0,0.0,0.0,0.0,0.0,0.0,0.0,0.0,0.0,0.0,0.0,0.0,0.0,0.0,0.0,0.0,0.0,0.0,0.0,0.0,0.0,0.0,0.0,0.0,0.0,0.0,0.0,0.0,0.0,0.0,0.0,0.0,0.0,0.0,0.0,0.0,0.0,0.0,0.0,0.0,0.0,0.0,0.0,0.0,0.0,0.0,0.0,0.0,0.0,0.0,0.0,0.0,0.0,0.0,0.0,0.0,0.0,0.0,0.0,0.0,0.0,0.0,0.0,0.0,0.0,0.0,0.0,0.0,0.0,0.0,0.0,0.0,0.0,0.0,0.0,0.0,0.0,0.0,0.0,0.0,0.0,0.0,0.0,0.0,0.0,0.0,0.0,0.0,0.0,0.0,0.0,0.0,0.0,0.0,0.0,0.0,0.0,0.0,0.0,0.0,0.0,0.0,0.0,0.0,0.0,0.0,0.0,0.0,0.0,2.4925,2.4959,2.5039,2.5066,2.3857,2.2672,2.1643,0.0,0.0,0.0,0.0,0.0,0.0,0.0,0.0,0.0,0.0,0.0,0.0,0.0,0.0,0.0,0.0,0.0,0.0,0.0,0.0,0.0,0.0,0.0,0.0,0.0,0.0,0.0,0.0,0.0,0.0,0.0,0.0,0.0,0.0,0.0,0.0,0.0,0.0,0.0,2.5944,2.6179,2.6226,2.6106,2.4957,0.0,0.0,0.0,0.0,0.0,0.0,0.0,0.0,0.0,0.0,0.0,0.0,0.0,0.0,0.0,0.0,0.0,0.0,0.0,0.0,0.0,0.0,0.0,0.0,0.0,0.0,0.0,0.0,0.0,0.0,0.0,0.0,0.0,0.0,0.0,0.0,0.0,0.0,0.0,0.0,0.0,0.0,0.0,1.9939,2.0167,0.0,0.0,0.0,0.0,0.0,0.0,0.0,0.0,0.0,0.0,0.0,0.0,0.0,0.0,2.4204,2.4791,2.5125,2.5218,2.6059,2.634,2.6172,2.6393,2.6794,2.7281,2.7081,0.0,2.3384,2.2739,0.0,0.0,0.0,0.0,0.0,0.0,0.0,0.0,0.0,0.0,0.0,0.0,0.0,0.0,0.0,0.0,0.0,0.0,0.0,0.0,0.0,0.0,0.0,0.0,0.0,0.0,0.0,0.0,0.0,0.0,0.0,0.0,0.0,0.0,0.0,0.0,2.7387,2.8539,2.8784,3.0463,3.1214,3.1187,3.0133,2.8224,2.5804,2.5298,0.0,0.0,0.0,0.0,0.0,0.0,0.0,0.0,0.0,0.0,0.0,0.0,0.0,0.0,0.0,0.0,0.0,0.0,0.0,0.0,0.0,0.0,0.0,0.0,0.0,0.0,0.0,0.0,0.0,0.0,0.0,0.0,0.0,0.0,0.0,0.0,0.0,0.0,0.0,2.0097,2.1539,2.1045,2.179,2.1865,0.0,0.0,0.0,0.0,0.0,0.0,0.0,0.0,0.0,2.4311,2.481,2.5384,2.6106,2.6867,2.7415,2.7749,2.8492,2.8853,2.8893,2.8991,2.9263,2.9651,2.9513,2.8591,2.7108,2.5512,2.4222,2.3184,0.0,0.0,0.0,0.0,0.0,2.4633,0.0,0.0,0.0,0.0,0.0,0.0,0.0,0.0,0.0,0.0,0.0,0.0,0.0,0.0,0.0,2.7516,0.0,0.0,0.0,0.0,0.0,0.0,0.0,0.0,0.0,0.0,0.0,2.7117,3.0861,3.2661,3.2603,3.4866,3.5882,3.5865,3.5122,3.2107,2.7519,2.6807,2.6421,0.0,0.0,0.0,0.0,0.0,0.0,0.0,0.0,0.0,0.0,0.0,0.0,0.0,0.0,0.0,0.0,0.0,0.0,0.0,0.0,0.0,0.0,0.0,0.0,0.0,0.0,0.0,0.0,0.0,0.0,0.0,0.0,0.0,0.0,0.0,0.0,0.0,0.0,2.1192,2.2519,2.1799,2.2712,2.3096,0.0,0.0,0.0,0.0,0.0,0.0,2.3554,2.4436,2.5344,2.6366,2.6987,2.7623,2.8291,2.9098,2.9753,3.0297,3.0885,3.1273,3.1463,3.1463,3.1583,3.1747,3.1396,3.0955,3.0278,2.807,2.6192,2.4681,2.4681,2.4588,0.0,2.4911,2.5598,2.6332,0.0,0.0,0.0,0.0,0.0,0.0,0.0,0.0,0.0,0.0,0.0,0.0,0.0,0.0,2.9758,3.0703,3.2161,3.3247,0.0,0.0,0.0,0.0,0.0,0.0,0.0,0.0,0.0,3.1489,3.4679,3.6531,3.7089,3.7921,3.8322,3.8305,3.7567,3.4791,3.062,2.9618,2.8921,2.8306,0.0,0.0,0.0,0.0,0.0,0.0,0.0,0.0,0.0,0.0,0.0,0.0,0.0,0.0,0.0,0.0,0.0,0.0,0.0,0.0,0.0,0.0,0.0,0.0,0.0,0.0,0.0,0.0,0.0,0.0,0.0,0.0,0.0,0.0,0.0,0.0,0.0,0.0,0.0,2.2021,2.3037,0.0,0.0,0.0,0.0,2.2707,2.2219,2.3029,2.5687,2.6373,2.7341,2.8775,2.941,3.0131,3.0999,3.1623,3.2102,3.2447,3.2986,3.3267,3.328,3.328,3.3293,3.3267,3.273,3.2302,3.1784,2.9209,2.7724,2.7041,2.6225,2.6065,2.6266,2.6293,2.67,2.7222,0.0,0.0,0.0,0.0,0.0,0.0,0.0,0.0,0.0,0.0,0.0,0.0,0.0,3.135,3.2762,3.3561,3.3883,3.4014,3.3954,0.0,0.0,0.0,0.0,0.0,0.0,0.0,3.1812,3.2774,3.808,4.0908,4.1373,4.34,4.4346,4.4327,4.3769,4.1731,3.8408,3.4239,3.1278,2.9378,2.9544,2.861,0.0,0.0,0.0,0.0,0.0,0.0,0.0,0.0,0.0,0.0,0.0,0.0,0.0,0.0,0.0,0.0,0.0,0.0,0.0,0.0,0.0,0.0,0.0,0.0,0.0,0.0,0.0,0.0,0.0,0.0,0.0,0.0,0.0,0.0,0.0,0.0,0.0,2.5005,2.5812,0.0,0.0,2.4165,2.4073,2.5085,2.5309,2.6242,2.815,2.8986,3.0047,3.153,3.1947,3.2494,3.3188,3.3402,3.3587,3.3694,3.3895,3.3976,3.3976,3.3976,3.3976,3.3963,3.3774,3.34,3.2853,3.1741,3.0377,2.8925,2.8438,2.8318,2.8425,2.8591,2.9032,2.9588,0.0,0.0,0.0,0.0,0.0,0.0,0.0,0.0,0.0,0.0,0.0,2.9847,3.1219,3.3719,3.5758,3.6815,3.6792,3.6711,3.6711,0.0,0.0,0.0,2.9911,0.0,0.0,3.2886,3.5567,3.6605,4.208,4.4868,4.5125,4.7117,4.803,4.8011,4.7558,4.6309,4.4283,4.0059,3.6147,3.2709,3.2451,3.1379,2.9842,0.0,0.0,0.0,0.0,0.0,0.0,0.0,0.0,0.0,0.0,0.0,0.0,0.0,0.0,0.0,0.0,0.0,0.0,0.0,0.0,0.0,0.0,0.0,0.0,0.0,0.0,0.0,0.0,0.0,0.0,0.0,0.0,0.0,0.0,0.0,2.6333,2.7288,2.803,2.8136,2.7348,2.69,2.6887,2.7422,2.8184,2.9227,3.0618,3.141,3.2396,3.3572,3.3975,3.4337,3.4724,3.4857,3.491,3.491,3.4777,3.4737,3.4737,3.463,3.4563,3.4469,3.4469,3.4189,3.3708,3.3507,3.2625,3.1306,3.0528,3.031,3.0394,3.0581,3.1022,3.158,0.0,0.0,0.0,0.0,0.0,0.0,0.0,0.0,0.0,0.0,2.7219,2.9526,3.1008,3.53,3.8762,4.0505,4.1028,4.1562,4.2363,3.6777,0.0,0.0,0.0,0.0,3.1691,3.8351,4.2254,4.3159,4.6544,4.8223,4.8242,4.8695,4.8913,4.8894,4.8418,4.8008,4.7581,4.6719,4.3424,3.8507,3.5338,3.4925,3.5725,0.0,0.0,0.0,0.0,0.0,0.0,0.0,0.0,0.0,0.0,0.0,0.0,0.0,0.0,0.0,0.0,0.0,0.0,0.0,0.0,0.0,0.0,0.0,0.0,0.0,0.0,0.0,0.0,0.0,0.0,0.0,0.0,0.0,2.4182,2.6279,2.7976,2.8631,2.9437,2.9526,2.8419,2.8804,2.925,2.9566,3.0662,3.1824,3.3011,3.3653,3.4241,3.4829,3.5378,3.5645,3.5631,3.5939,3.6113,3.6099,3.5778,3.5618,3.5605,3.5338,3.5083,3.4816,3.4802,3.4603,3.431,3.431,3.4296,3.4123,3.2449,3.1941,3.2171,3.2171,3.2519,3.3024,0.0,0.0,0.0,0.0,0.0,0.0,0.0,0.0,0.0,0.0,3.0744,3.3888,3.6624,4.0008,4.2562,4.3666,4.3031,4.254,4.2421,0.0,0.0,0.0,3.078,0.0,3.3804,3.9348,4.2876,4.4196,4.7224,4.8695,4.8695,4.8855,4.8913,4.8894,4.8776,4.8659,4.8499,4.791,4.6678,4.4796,4.141,3.8344,3.5697,0.0,0.0,0.0,0.0,0.0,0.0,0.0,0.0,0.0,0.0,0.0,0.0,0.0,0.0,0.0,0.0,0.0,0.0,0.0,0.0,0.0,0.0,0.0,0.0,0.0,0.0,0.0,0.0,0.0,0.0,0.0,0.0,2.5892,2.6379,2.7722,2.9183,3.0684,3.1223,3.137,3.1072,3.138,3.1727,3.2021,3.2919,3.3776,3.4549,3.5177,3.5672,3.6019,3.6352,3.6446,3.6246,3.634,3.6286,3.6099,3.6019,3.5952,3.5939,3.5618,3.5445,3.5378,3.5164,3.4936,3.4669,3.4669,3.4509,3.4243,3.3788,3.3641,3.3708,3.3708,3.3681,3.3626,0.0,0.0,0.0,0.0,0.0,0.0,0.0,0.0,0.0,0.0,3.2514,3.6305,3.8654,4.1789,4.4062,4.492,4.3828,4.2891,4.2441,0.0,0.0,0.0,3.3121,3.6041,3.813,4.255,4.5532,4.6944,4.8628,4.9437,4.9437,4.9437,4.9437,4.9437,4.9437,4.9437,4.9418,4.9141,4.8789,4.8183,4.5779,4.2854,3.9709,3.7952,3.6159,3.4127,3.0987,2.9149,2.7979,2.6146,0.0,0.0,0.0,0.0,0.0,0.0,0.0,0.0,0.0,0.0,0.0,0.0,0.0,0.0,0.0,0.0,0.0,0.0,0.0,0.0,0.0,0.0,0.0,0.0,2.6981,2.8617,2.9548,3.0047,3.0889,3.2436,3.2853,3.308,3.3238,3.3506,3.3853,3.4268,3.487,3.5405,3.5899,3.6366,3.6714,3.6874,3.7127,3.7207,3.7048,3.6941,3.6794,3.6648,3.6394,3.6287,3.6246,3.6072,3.5925,0.0,3.5765,3.5578,3.5324,3.5204,3.5097,0.0,0.0,0.0,0.0,0.0,3.4429,3.4055,0.0,0.0,0.0,0.0,0.0,0.0,0.0,0.0,0.0,0.0,0.0,3.7339,3.8709,4.1708,4.4004,4.492,4.3789,4.2731,0.0,0.0,3.6503,3.2171,3.7975,4.1926,4.3232,4.6657,4.9004,5.0199,5.0199,5.0199,5.0199,5.0199,5.0199,5.0199,5.0199,5.0199,5.0199,5.0199,4.9961,4.9508,4.875,4.7383,4.5431,4.1726,4.0487,4.0117,3.5446,3.307,3.163,2.8501,0.0,0.0,0.0,0.0,0.0,0.0,0.0,0.0,0.0,0.0,0.0,0.0,0.0,0.0,0.0,0.0,0.0,0.0,0.0,0.0,0.0,0.0,0.0,0.0,2.9423,3.1326,3.3064,3.2879,3.2959,3.3921,3.4322,3.4616,3.4909,3.523,3.5605,3.6153,3.646,3.6727,3.6953,0.0,0.0,0.0,0.0,3.7889,3.7849,3.7624,3.749,3.745,3.6901,3.6619,3.662,3.662,3.6433,3.6166,3.6393,3.634,3.6073,3.5792,3.5832,3.5992,3.4883,3.4616,3.4869,3.5097,3.4843,0.0,0.0,0.0,0.0,0.0,0.0,0.0,0.0,0.0,0.0,3.0697,3.4386,3.7913,4.0835,4.2397,4.3691,4.4901,4.3495,4.1756,0.0,3.8688,3.7854,3.7496,4.0784,4.3371,4.4895,4.8145,4.9945,5.0199,5.0199,5.0199,5.0199,5.0199,5.0199,5.0199,5.0199,5.0199,5.0199,5.0199,5.016,5.0063,4.9887,4.8555,4.6438,4.4321,4.2405,4.061,3.8697,3.7311,3.5883,3.2531,3.1351,3.0786,2.7879,0.0,0.0,0.0,0.0,0.0,0.0,0.0,0.0,0.0,0.0,0.0,0.0,0.0,0.0,0.0,0.0,0.0,0.0,0.0,0.0,2.9842,3.165,3.3349,3.4871,3.5431,3.5471,3.5004,3.5418,3.5778,3.5845,3.6299,3.6619,3.6726,3.7048,3.7263,3.7301,3.7839,0.0,3.8133,3.8397,3.8437,3.8212,3.8145,3.7998,3.7714,0.0,0.0,3.7236,3.7236,3.6942,3.6433,3.6473,3.634,3.6099,3.6033,3.6046,3.6046,3.5565,3.5271,3.5124,3.5177,3.5003,3.4709,0.0,0.0,0.0,0.0,0.0,0.0,0.0,0.0,0.0,0.0,3.4772,3.8235,4.0588,4.1641,4.2403,4.3047,4.2089,0.0,3.8855,4.0265,4.1184,4.1248,4.4275,4.6713,4.8375,4.9992,5.1016,5.1445,5.1445,5.1445,5.1445,5.1445,5.1445,5.1445,5.1445,5.1445,5.1445,5.1445,5.1191,5.0801,5.0801,4.9902,4.8418,4.7151,4.5915,4.4586,4.2211,4.0808,3.9392,3.4711,3.2935,3.2095,2.8586,2.6994,2.6379,0.0,0.0,0.0,0.0,0.0,0.0,0.0,0.0,0.0,0.0,0.0,0.0,0.0,0.0,2.5938,0.0,0.0,3.0684,3.2291,3.4016,3.5578,3.6766,3.7342,3.7235,3.6165,3.6326,3.658,3.6727,3.7128,3.742,3.7595,3.7889,3.8034,3.8034,3.833,3.8544,3.8691,3.8689,3.8689,3.8689,3.8426,3.8212,3.8036,3.7889,3.7742,3.7595,3.7595,3.7448,3.7127,3.7021,3.6874,3.6727,3.658,3.634,3.6099,3.6072,3.5885,3.5658,3.5658,3.5578,3.5418,0.0,0.0,0.0,0.0,0.0,0.0,0.0,0.0,0.0,0.0,3.4713,3.8165,3.9492,4.0273,4.0722,0.0,0.0,4.0471,3.9557,4.2807,4.4784,4.4797,4.7738,5.0039,5.1499,5.1694,5.2109,5.2715,5.2793,5.2793,5.2715,5.2715,5.2715,5.2715,5.2715,5.2715,5.2715,5.2715,5.228,5.1655,5.1655,5.123,5.0492,4.9691,4.9281,4.8756,4.5755,4.4199,4.2791,3.7638,3.5188,3.3661,2.9992,2.8627,2.8181,2.7136,2.6867,0.0,0.0,0.0,0.0,0.0,0.0,0.0,0.0,0.0,2.5846,2.5919,2.6921,2.8077,2.8951,3.0982,3.3013,3.4509,3.6099,3.746,3.833,3.8691,3.8515,3.7527,3.738,3.742,3.7702,3.7929,3.8155,3.8426,3.8611,3.8689,3.8689,3.8758,3.8846,3.902,3.8945,3.8916,3.902,3.8651,3.8426,3.8359,3.8103,3.7956,3.7889,3.7956,3.7929,3.7781,3.7569,3.745,3.737,3.7128,3.6699,3.6273,3.658,3.65,3.6233,3.6139,3.6059,3.5952,0.0,0.0,0.0,0.0,0.0,0.0,0.0,0.0,0.0,0.0,0.0,0.0,0.0,0.0,0.0,0.0,4.1113,4.2633,4.3654,4.5205,4.7098,4.9347,5.0525,5.1382,5.1992,5.2779,5.3033,5.2715,5.313,5.3111,5.2715,5.2715,5.2715,5.2715,5.2715,5.2715,5.2715,5.2715,5.2656,5.2534,5.2534,5.2285,5.1841,5.1328,5.0683,4.9961,4.911,4.8074,4.6668,4.421,4.2205,3.9974,3.5604,3.3328,3.1765,2.9132,0.0,2.7101,2.6513,2.5504,2.4653,2.493,2.5056,2.5229,0.0,0.0,2.7168,2.7402,2.8604,2.9887,3.0745,3.2628,3.4523,3.6019,3.7315,3.8359,3.8913,3.9276,3.9452,3.9306,3.902,3.8873,3.8916,3.8942,3.8982,3.9022,3.8838,3.8689,3.8689,3.8913,3.8953,3.8769,3.9239,3.9265,3.8758,3.8913,3.8886,3.8662,3.8622,3.8477,3.8252,3.8475,3.833,3.7781,3.7782,3.7635,3.741,3.737,3.7128,3.6833,3.7168,3.7088,3.6739,3.6287,3.5912,3.5645,0.0,0.0,0.0,0.0,0.0,0.0,0.0,0.0,0.0,0.0,0.0,0.0,0.0,0.0,0.0,0.0,4.0449,4.2461,4.4277,4.6289,4.8457,5.0801,5.1719,5.2383,5.2837,5.3437,5.3652,5.3451,5.3951,5.3932,5.3451,5.3451,5.3588,5.3848,5.3848,5.3984,5.4199,5.3965,5.3711,5.3432,5.3203,5.2701,5.2095,5.1875,5.0976,4.9707,4.9004,4.793,0.0,0.0,4.1388,4.0997,3.6427,3.4315,3.3273,3.191,2.9752,0.0,2.6226,2.5772,2.5678,0.0,2.6493,2.7335,2.8104,2.9093,2.9882,3.0003,3.133,3.2721,3.3602,3.5031,3.6513,0.0,3.8582,3.9268,3.9823,4.004,3.992,3.9383,3.949,3.957,3.9412,3.9383,3.9383,3.9383,3.9276,3.9239,3.9239,3.9346,3.9423,3.9463,3.9559,3.9559,3.9463,3.9423,3.9236,3.8913,3.8913,3.8795,3.8544,3.8651,3.8477,3.8105,3.8105,3.7918,3.7635,3.7635,3.7555,3.7448,3.7567,3.7448,3.7155,3.6942,3.6647,3.6339,0.0,0.0,0.0,0.0,0.0,0.0,0.0,0.0,0.0,0.0,0.0,0.0,0.0,0.0,0.0,3.7578,3.9668,4.1934,4.4062,4.6601,4.9043,5.1304,5.2221,5.291,5.339,5.4023,5.4291,5.4173,5.4648,5.4687,5.4349,5.4232,5.4433,5.4889,5.4889,5.5019,5.5293,5.498,5.4609,5.418,5.3873,5.317,5.2226,5.1899,5.0586,4.8883,4.8262,4.6973,0.0,0.0,3.9936,4.0221,3.5935,3.4292,3.3738,3.2654,3.0288,2.7804,2.658,2.6566,0.0,2.7482,2.847,2.9597,3.0755,3.1797,3.2585,3.2864,3.3975,3.5164,3.6045,3.7009,3.7996,3.9062,3.949,3.9893,4.0431,4.0284,3.9823,3.9089,3.9169,3.9265,3.9239,3.9452,3.964,3.9706,3.964,3.9599,3.9599,3.9666,3.9786,3.989,3.9853,3.9853,3.989,3.9786,3.9559,3.9236,3.9236,3.9129,3.8942,3.8836,3.8662,3.8399,3.8319,3.8143,3.7929,3.7849,3.7781,3.7781,3.7781,3.7676,3.7489,3.7422,3.7127,3.6739,0.0,0.0,0.0,0.0,0.0,0.0,0.0,0.0,0.0,0.0,0.0,0.0,0.0,0.0,3.6753,3.6753,3.9062,4.1426,4.3574,4.6174,4.875,5.1284,5.2221,5.291,5.339,5.4609,5.5058,5.4694,5.5078,5.5273,5.5254,5.4844,5.4883,5.5293,5.5293,5.5293,5.5312,5.5293,5.5039,5.4694,5.4674,5.3867,5.2558,5.1308,4.9512,4.7659,4.764,0.0,0.0,0.0,3.9863,3.8309,3.4896,3.3827,0.0,3.0057,2.846,0.0,0.0,0.0,2.854,3.0234,3.0902,3.1586,3.336,3.4203,3.4884,3.5792,3.6233,3.6699,3.7567,3.8025,3.8575,3.9452,3.9813,4.0117,4.0441,3.9717,3.902,3.8758,3.7968,3.7704,0.0,3.9092,3.9706,3.997,3.9746,3.9599,3.9599,3.9853,3.9863,3.964,4.0177,4.0217,3.964,3.9863,3.985,3.957,3.957,3.957,3.9559,3.9236,3.8942,3.8662,3.8397,3.8292,3.8252,3.7929,3.7781,3.7781,3.7781,3.7781,3.7754,3.7489,3.7021,3.6473,0.0,0.0,0.0,0.0,0.0,0.0,0.0,0.0,0.0,0.0,0.0,0.0,0.0,0.0,0.0,0.0,3.7362,3.9125,4.2244,4.5137,4.7637,4.9652,5.1411,5.25,5.291,5.3926,5.4369,5.4258,5.4687,5.4746,5.4427,5.4291,5.4629,5.5293,5.5019,5.5371,5.6094,5.5254,5.5293,5.5827,5.4062,5.3457,5.3354,5.1523,4.8945,4.6213,0.0,0.0,0.0,0.0,0.0,0.0,3.3525,0.0,0.0,2.8983,0.0,0.0,0.0,0.0,3.1156,3.2732,3.3788,3.475,3.5939,3.6688,3.7116,3.7195,3.7155,3.7196,3.7489,3.7624,3.7998,3.8865,3.9412,3.989,4.0431,4.0214,3.9493,3.7996,3.8075,0.0,0.0,0.0,0.0,3.993,3.992,3.996,4.0187,4.0284,4.0294,4.0217,4.0391,4.0405,4.0217,4.0294,4.0187,3.9863,3.9463,3.9276,3.9276,3.8982,3.8795,3.8689,3.8582,3.8584,3.8544,3.8435,3.8408,3.8408,3.8408,3.829,3.8105,3.7782,3.7422,3.7048,0.0,0.0,0.0,0.0,0.0,0.0,0.0,0.0,0.0,0.0,0.0,0.0,0.0,0.0,0.0,0.0,0.0,3.7184,4.0646,4.3281,4.5527,4.7425,4.8988,5.0058,5.0625,5.1323,5.1928,5.2397,5.2851,5.3345,5.3789,5.3607,5.3998,5.4818,5.457,5.4902,5.5625,5.4805,5.4746,5.5019,5.2891,5.1968,5.1655,4.9199,4.6523,0.0,0.0,0.0,0.0,0.0,0.0,0.0,0.0,0.0,0.0,0.0,0.0,0.0,0.0,3.2134,3.3696,3.5164,3.6299,3.7235,3.7996,3.8397,3.8437,3.7929,3.7422,3.7048,3.6941,3.658,3.6754,3.8155,3.8515,3.9022,4.0147,3.9786,3.8974,3.7851,3.7635,3.8431,0.0,0.0,0.0,4.1065,4.0431,4.0184,4.0615,4.0548,4.0538,4.0645,4.0538,4.0512,4.0512,4.0512,4.0391,4.0187,3.9783,3.953,3.9423,3.9236,3.9089,3.9012,3.8798,3.8769,3.8836,3.8651,3.8611,3.8691,3.8464,3.8359,3.824,3.7674,3.7448,3.7343,0.0,0.0,0.0,0.0,0.0,0.0,0.0,0.0,0.0,0.0,0.0,0.0,0.0,0.0,0.0,0.0,0.0,0.0,3.8894,4.0723,4.2617,4.4705,4.5312,4.5976,4.6794,4.7266,4.8105,4.9332,4.9766,5.1059,5.3052,5.2617,5.2866,5.3705,5.3685,5.3705,5.3724,5.3666,5.3197,5.2402,5.1055,4.9551,4.7812,4.4805,4.2637,4.0859,3.864,0.0,0.0,0.0,0.0,0.0,0.0,0.0,0.0,0.0,0.0,3.0925,3.2703,3.4442,3.6099,3.7555,3.8357,3.8945,3.9493,3.9343,3.8806,3.7929,3.698,3.6259,0.0,0.0,3.4991,3.7274,3.7274,3.7674,3.9743,3.8582,3.7744,0.0,0.0,0.0,0.0,0.0,0.0,4.3604,0.0,4.0556,4.0873,4.0824,4.0784,4.0869,4.0615,4.0512,4.0512,4.0512,4.0512,4.0512,4.0468,4.0324,3.9997,3.9997,3.9823,3.953,3.8982,3.8876,3.906,3.8704,3.8723,3.888,3.8291,3.8251,3.8427,3.7343,3.7155,3.7343,0.0,0.0,0.0,0.0,0.0,0.0,0.0,0.0,0.0,0.0,0.0,0.0,0.0,0.0,0.0,0.0,0.0,0.0,3.7501,3.9082,4.0547,4.211,4.3476,4.4609,4.5467,4.5937,4.6484,4.7129,4.7246,4.7734,4.8551,4.8434,4.8844,4.9687,4.9355,4.959,5.0141,4.9117,4.916,4.9672,4.7402,4.6775,4.6931,4.4258,4.2168,4.0336,3.7727,3.4535,0.0,0.0,0.0,0.0,0.0,2.7549,2.8436,0.0,0.0,3.3068,3.507,3.6726,3.8155,3.9169,3.9746,4.003,3.992,3.9346,3.8435,3.71,3.5618,3.4214,0.0,0.0,0.0,3.5618,3.7021,0.0,4.0147,4.0003,0.0,3.8691,0.0,4.2579,4.481,4.5838,0.0,0.0,4.8052,4.4767,4.0821,4.3052,4.3263,4.0679,4.0538,4.0512,4.0512,4.0512,4.0512,4.0512,4.0254,4.0077,3.9997,3.9783,3.953,3.9236,3.9346,3.9276,3.9262,4.1386,4.2295,4.2295,4.1683,4.1668,4.1587,3.8643,3.7635,3.7635,0.0,0.0,0.0,0.0,0.0,0.0,0.0,0.0,0.0,0.0,0.0,0.0,0.0,0.0,0.0,0.0,0.0,0.0,0.0,3.7578,3.8514,3.9452,4.0566,4.1387,4.1875,4.2324,4.3067,4.4064,4.4064,4.4746,4.6072,4.5681,4.5879,4.6523,4.6074,4.6269,4.6877,4.6133,4.623,0.0,0.0,4.4081,4.4141,4.1738,4.0098,3.8837,3.6911,3.4208,3.1532,3.1403,0.0,2.7583,2.8532,2.9419,3.0488,3.2265,0.0,3.5338,3.7139,3.8622,3.9813,4.0407,4.0624,4.0401,3.9276,3.8435,3.7233,3.487,3.34,0.0,3.0618,3.1299,0.0,0.0,0.0,0.0,4.0,3.996,3.9669,0.0,4.2092,0.0,4.7463,4.9508,5.1625,0.0,4.9755,4.5983,4.3363,4.3489,4.2866,4.1121,4.0695,4.1151,4.2513,4.3893,4.4579,4.4579,4.2987,4.2244,4.217,4.0683,3.9893,3.9717,0.0,3.9493,3.9538,4.2281,4.2639,4.1531,4.2231,4.1905,4.0775,3.8487,3.7635,3.7595,0.0,0.0,0.0,0.0,0.0,0.0,0.0,0.0,0.0,0.0,0.0,0.0,0.0,0.0,0.0,0.0,0.0,0.0,0.0,0.0,3.6795,3.7187,3.7617,3.7853,3.7912,3.8377,3.9335,4.0839,4.0839,4.2012,4.4217,4.3457,4.3359,4.3789,4.3379,4.3418,4.3789,4.373,4.3711,4.3594,4.2382,4.1484,4.0644,0.0,0.0,3.6805,3.5458,3.3674,3.187,3.1545,3.0205,2.8955,3.0684,3.1837,3.2919,3.4682,3.6153,3.7585,3.9427,4.0751,4.1677,4.1905,4.1677,4.0729,3.8311,3.706,3.5485,3.2155,0.0,2.9967,2.8617,2.9454,3.1112,3.3494,0.0,3.7128,3.9743,3.9463,3.9383,4.0468,4.3165,4.6239,4.9606,5.2922,5.5147,5.5828,5.0114,4.6778,4.7254,4.4534,4.2974,4.2941,4.2152,4.3023,4.5694,4.8417,4.9806,4.976,4.6596,4.5115,4.5011,4.1895,4.0471,4.0401,0.0,0.0,3.9866,4.2698,4.2321,4.0192,4.215,4.1516,3.9367,3.7974,3.749,3.7517,0.0,0.0,0.0,0.0,0.0,0.0,0.0,0.0,0.0,0.0,2.7304,2.6389,0.0,0.0,0.0,0.0,0.0,0.0,0.0,0.0,0.0,3.6775,3.7187,3.756,3.7874,3.8377,3.8749,3.9042,3.9042,3.9452,4.0215,4.0059,4.0234,4.0684,4.0586,4.0605,4.0644,4.0273,4.0098,4.0059,3.9491,3.9179,3.8964,0.0,0.0,0.0,3.107,2.9338,2.9041,3.022,3.0807,3.1353,3.2891,3.4122,3.5284,3.6834,3.7968,3.951,4.3207,4.4724,4.5297,4.534,4.4593,4.2745,3.8446,3.5658,0.0,0.0,2.9165,2.8003,2.7248,2.8676,3.0849,3.3467,3.5525,3.7674,4.0371,4.0615,4.0695,0.0,4.6224,0.0,0.0,0.0,0.0,0.0,0.0,5.3121,5.0487,5.2473,5.2265,4.9082,4.8484,4.8446,4.8989,4.9527,4.9806,4.976,4.6596,4.5115,4.5011,4.1895,4.0364,4.0077,0.0,0.0,4.0295,4.5241,4.707,4.6743,4.6216,4.6019,4.533,3.9757,3.7918,3.8105,0.0,0.0,0.0,0.0,0.0,0.0,0.0,2.8348,2.909,2.8906,2.6638,2.4922,2.4619,2.3973,0.0,0.0,0.0,0.0,0.0,0.0,0.0,0.0,0.0,0.0,3.7266,3.7498,0.0,0.0,0.0,3.8359,3.9199,0.0,0.0,0.0,3.8633,3.8672,3.8829,3.8614,3.8672,3.8885,3.8671,0.0,0.0,0.0,0.0,0.0,0.0,3.0357,3.0907,3.118,3.2849,3.4888,3.5532,3.65,3.7674,3.8836,4.091,4.3281,4.5456,4.7756,4.9028,4.6964,4.5517,4.3009,3.6964,0.0,0.0,0.0,2.7054,2.6366,2.5766,2.7608,2.9784,3.1543,3.3656,3.6125,3.9132,3.9415,4.0496,4.3714,4.8301,5.1947,0.0,0.0,0.0,0.0,0.0,5.7621,5.4291,5.3882,5.2731,5.0573,5.1782,5.2389,5.2228,5.3882,5.4708,5.4632,5.1489,4.9119,4.7435,4.4311,4.1848,4.0074,4.1523,0.0,4.2306,4.7897,4.935,4.8021,4.7297,4.6297,4.4724,3.9838,3.8036,3.8025,0.0,0.0,0.0,0.0,0.0,0.0,0.0,2.8094,2.8773,2.9368,2.6797,2.4564,2.3683,2.3701,2.4261,0.0,0.0,0.0,0.0,0.0,0.0,0.0,0.0,0.0,0.0,0.0,0.0,0.0,0.0,0.0,0.0,0.0,0.0,0.0,0.0,0.0,0.0,3.8048,3.8262,0.0,0.0,0.0,0.0,0.0,0.0,0.0,0.0,3.1057,3.2187,3.1616,3.374,3.663,3.6651,3.7821,3.9313,3.9933,4.3009,4.6389,4.7376,5.0515,5.2768,4.9545,4.7407,4.4135,3.6608,3.3154,0.0,2.6338,2.5392,2.5205,2.4871,2.662,2.8551,2.9806,3.1813,3.4402,3.7702,3.8785,4.1079,4.6097,5.0224,0.0,5.6626,0.0,0.0,0.0,0.0,0.0,5.7949,5.492,5.3019,5.2508,5.4678,5.5731,5.5505,5.7963,5.9207,5.918,5.6016,5.3206,5.0707,4.746,4.4565,4.2222,4.4117,0.0,0.0,5.0075,5.0792,4.8701,4.8328,4.6514,4.3737,4.0447,3.8687,3.7889,0.0,0.0,0.0,0.0,0.0,0.0,0.0,2.7794,2.8953,2.8724,2.7056,2.5524,2.4572,2.4075,2.3633,0.0,0.0,0.0,0.0,0.0,0.0,0.0,0.0,0.0,0.0,0.0,0.0,0.0,0.0,0.0,0.0,0.0,0.0,0.0,0.0,0.0,0.0,0.0,0.0,0.0,0.0,0.0,0.0,0.0,0.0,0.0,0.0,2.7149,2.866,2.9132,3.1133,3.3528,3.4048,3.6687,3.9452,3.8982,0.0,0.0,4.9886,5.3546,5.631,5.5537,5.2946,4.8428,4.0068,0.0,3.1225,2.6479,2.5053,2.4826,2.5325,2.6066,2.7436,2.9958,3.1671,3.388,3.7354,4.1346,4.4578,4.6461,0.0,0.0,5.6882,5.9797,0.0,0.0,0.0,0.0,6.0757,5.9994,5.9359,5.8945,5.8832,5.8799,5.8768,5.9059,5.9207,5.918,5.6016,5.4358,5.395,5.0441,4.8838,4.8862,0.0,0.0,0.0,5.1171,5.2115,5.2091,5.1521,4.9615,4.6818,4.3503,4.0576,3.8212,0.0,0.0,0.0,0.0,0.0,0.0,2.5972,2.7643,2.8897,2.8856,2.7177,2.5778,2.5205,2.4618,2.4335,0.0,0.0,0.0,0.0,0.0,0.0,0.0,0.0,0.0,0.0,0.0,0.0,0.0,0.0,0.0,0.0,0.0,0.0,0.0,0.0,0.0,0.0,0.0,0.0,0.0,0.0,0.0,0.0,0.0,0.0,0.0,0.0,0.0,2.8338,2.7061,2.9157,3.2001,3.0424,3.2436,3.6113,3.9881,4.4355,4.9009,5.3402,5.7534,5.9882,5.7035,5.3506,4.843,3.9754,0.0,3.0161,2.5859,2.4511,2.4289,2.4858,2.5152,2.6386,2.9678,3.0859,3.2512,3.5876,3.9537,4.3337,4.732,5.2003,0.0,0.0,0.0,0.0,0.0,0.0,0.0,6.0742,6.049,6.0225,5.9805,5.9414,5.9207,5.9207,5.9207,5.9207,5.918,5.7916,5.6317,5.4454,5.3047,5.12,4.9244,0.0,0.0,0.0,5.3247,5.4039,5.228,5.2028,5.1256,4.9696,4.48,4.202,4.0419,0.0,0.0,0.0,0.0,0.0,2.5581,2.5185,2.6934,2.8246,2.8145,2.6965,2.5925,2.5438,2.4764,2.4913,2.63,0.0,0.0,0.0,0.0,0.0,0.0,0.0,0.0,0.0,0.0,0.0,0.0,0.0,0.0,0.0,0.0,0.0,0.0,0.0,0.0,0.0,0.0,0.0,0.0,0.0,0.0,0.0,0.0,0.0,0.0,0.0,0.0,0.0,0.0,0.0,2.9608,2.7662,2.8995,3.2433,3.8137,4.4129,4.9763,5.3743,5.8621,6.1606,5.7279,5.3154,4.7853,0.0,0.0,2.9346,2.5296,2.4115,2.3946,2.4404,2.4546,2.5565,2.8533,2.9996,3.1924,3.5216,3.9307,4.3677,4.8372,0.0,5.5926,0.0,0.0,0.0,0.0,0.0,0.0,0.0,6.0401,6.0138,5.9648,5.9355,5.9207,5.9207,5.9207,5.9207,5.9207,5.9207,5.8057,5.5874,5.5615,5.363,5.0573,0.0,0.0,0.0,5.4886,5.5509,5.3258,5.3369,5.2817,5.132,4.6253,4.3492,4.1868,0.0,0.0,0.0,0.0,0.0,0.0,2.3363,2.5491,2.6856,2.6115,2.6252,2.6072,2.5203,2.432,2.5087,2.8287,0.0,0.0,0.0,0.0,0.0,0.0,0.0,0.0,0.0,0.0,0.0,3.6714,3.6714,0.0,0.0,0.0,0.0,0.0,0.0,0.0,0.0,0.0,0.0,0.0,0.0,0.0,0.0,0.0,0.0,0.0,0.0,0.0,0.0,0.0,0.0,0.0,0.0,2.7248,2.895,3.2474,4.0392,4.8287,4.9543,5.5664,6.0757,5.6802,5.2627,4.7358,3.9084,3.3713,2.9311,2.507,2.3999,2.3879,2.4155,2.4417,2.5005,2.6238,2.9216,3.2564,3.5926,4.2076,4.7171,4.9684,5.3126,5.634,5.8973,0.0,0.0,0.0,0.0,0.0,0.0,6.0401,6.0039,5.9238,5.9207,5.9207,5.9207,5.9207,5.9207,5.9207,5.9207,5.918,5.9104,5.8262,5.6611,0.0,0.0,0.0,0.0,5.5635,5.6301,5.5897,5.6353,5.4487,5.1153,4.8242,4.511,4.1823,0.0,0.0,0.0,0.0,0.0,0.0,0.0,2.4112,2.5328,2.4597,2.4735,2.4863,2.4764,2.4182,2.4627,2.6656,0.0,0.0,0.0,0.0,0.0,0.0,0.0,0.0,0.0,0.0,3.623,3.6714,3.697,3.7185,3.7324,0.0,0.0,0.0,0.0,0.0,0.0,0.0,0.0,0.0,0.0,0.0,0.0,0.0,0.0,0.0,0.0,0.0,0.0,0.0,0.0,0.0,0.0,0.0,0.0,2.8885,3.6534,4.5006,4.8122,5.2636,5.551,5.1569,4.8033,4.3698,3.668,3.2399,2.8798,2.4993,2.3986,2.383,2.3906,2.3999,2.5175,2.8637,3.0276,3.2508,3.6454,4.2131,4.693,4.9731,5.6264,6.0801,0.0,0.0,0.0,0.0,0.0,0.0,0.0,6.0401,6.0039,5.9227,5.9207,5.9207,5.9207,5.9207,5.9207,5.9207,5.9207,5.9032,5.8711,5.8437,0.0,0.0,0.0,0.0,0.0,5.5459,5.5142,5.3083,5.4977,5.5053,5.3746,5.0768,4.8892,4.7107,0.0,0.0,0.0,0.0,0.0,0.0,0.0,2.2936,2.379,2.3319,2.3621,2.3923,2.4092,2.3714,2.4414,2.6779,0.0,0.0,0.0,0.0,0.0,0.0,0.0,0.0,0.0,3.5999,3.6387,3.7148,3.7402,3.7695,3.8027,3.8555,3.8496,0.0,0.0,0.0,0.0,0.0,0.0,0.0,0.0,0.0,3.1599,0.0,0.0,0.0,0.0,0.0,0.0,0.0,0.0,0.0,0.0,0.0,0.0,0.0,3.2383,3.9185,4.3429,4.7508,4.9658,4.5905,4.2797,0.0,3.3639,2.9943,2.7022,2.4553,2.3732,2.3478,2.3581,2.4259,2.5807,2.9007,3.1312,3.4053,3.7968,4.3059,4.775,5.14,0.0,0.0,0.0,0.0,0.0,0.0,0.0,0.0,0.0,0.0,5.9863,5.9207,5.9207,5.9207,5.9207,5.9207,5.9207,5.9207,5.9207,5.9062,5.8742,5.8418,0.0,0.0,0.0,0.0,0.0,5.5222,5.4973,5.31,5.4663,5.5215,5.472,5.1745,5.0531,4.9698,0.0,0.0,0.0,0.0,0.0,0.0,0.0,0.0,2.2335,2.2335,2.2855,2.3198,2.3225,2.3006,2.4417,2.824,0.0,0.0,0.0,0.0,0.0,0.0,0.0,0.0,0.0,3.5959,3.6565,3.7814,3.7873,3.8322,3.916,3.9199,3.8751,3.7951,3.7951,0.0,0.0,0.0,0.0,0.0,0.0,0.0,0.0,0.0,0.0,0.0,0.0,0.0,0.0,0.0,0.0,0.0,0.0,0.0,0.0,0.0,0.0,0.0,0.0,4.0554,4.3337,3.9766,3.7067,3.4205,3.0148,2.6854,0.0,2.3906,2.3335,2.301,2.3309,2.5033,2.6739,2.7737,3.2112,3.6549,3.9871,4.4826,0.0,0.0,5.8027,0.0,0.0,0.0,0.0,0.0,0.0,0.0,0.0,0.0,5.959,5.9149,5.9149,5.9168,5.9207,5.9168,5.9168,5.9207,5.9149,5.911,5.9062,5.823,0.0,0.0,0.0,0.0,0.0,5.5,5.5618,5.5254,5.5234,5.4961,5.4286,5.1611,5.0648,5.0162,0.0,0.0,0.0,0.0,0.0,0.0,0.0,0.0,0.0,0.0,2.2087,2.2378,2.2588,2.2565,2.4072,0.0,0.0,0.0,0.0,0.0,0.0,0.0,0.0,0.0,0.0,3.5547,3.6016,3.699,3.7599,3.8185,3.8749,3.9062,3.8926,3.8436,3.8436,3.8436,0.0,0.0,0.0,0.0,0.0,0.0,0.0,0.0,0.0,0.0,2.5258,2.5098,0.0,0.0,0.0,0.0,0.0,0.0,0.0,0.0,2.6031,0.0,2.8429,0.0,3.6333,3.2828,3.1497,3.0225,0.0,2.5678,2.4761,2.3959,2.3474,2.338,2.3883,2.5388,2.6821,2.7631,0.0,3.5238,3.825,0.0,0.0,5.8566,0.0,0.0,0.0,0.0,0.0,0.0,0.0,0.0,0.0,0.0,5.9453,5.8683,5.8655,5.8828,5.9207,5.8828,5.8828,5.918,5.8524,5.8219,5.8172,5.7617,0.0,0.0,0.0,0.0,5.5141,5.5348,5.5195,5.483,5.4447,5.4062,5.366,5.3282,5.2955,5.2272,0.0,0.0,0.0,0.0,0.0,0.0,0.0,0.0,0.0,0.0,0.0,0.0,0.0,0.0,0.0,0.0,0.0,0.0,0.0,0.0,0.0,0.0,0.0,0.0,3.5078,3.5078,3.5703,3.697,3.7402,3.8164,3.9198,3.9199,3.8867,3.8262,3.7889,3.7928,0.0,0.0,0.0,0.0,0.0,0.0,0.0,0.0,0.0,0.0,2.5031,2.4978,0.0,2.5211,2.5403,2.5457,0.0,0.0,0.0,0.0,2.568,2.5313,2.6391,2.8973,3.0917,2.9015,2.8334,2.7714,2.6102,2.5096,2.432,2.3688,2.3327,2.33,2.3919,2.5481,2.7314,0.0,3.283,0.0,0.0,0.0,5.625,5.9718,0.0,0.0,0.0,0.0,0.0,0.0,0.0,0.0,0.0,5.9746,5.921,5.8507,5.8507,5.8535,5.861,5.8348,5.8348,5.861,5.8113,5.7898,5.7879,5.7402,0.0,0.0,0.0,0.0,5.5599,5.539,5.5058,5.4629,5.4173,5.375,5.3449,5.3633,5.3437,5.2846,0.0,0.0,0.0,0.0,0.0,0.0,0.0,0.0,0.0,0.0,0.0,0.0,0.0,0.0,0.0,0.0,0.0,0.0,0.0,0.0,0.0,0.0,0.0,3.4531,3.4609,3.4668,3.5449,3.7012,3.7461,3.8457,3.9883,3.9687,3.9043,3.797,3.7166,3.7187,0.0,0.0,0.0,0.0,3.2582,0.0,0.0,0.0,0.0,0.0,0.0,0.0,0.0,2.5149,2.547,2.577,2.5256,0.0,0.0,0.0,0.0,0.0,2.7093,2.7427,2.7168,2.6941,2.654,2.6125,2.581,2.47,2.3652,2.3363,2.3113,2.3188,2.3919,2.6092,0.0,0.0,0.0,0.0,5.0008,5.373,5.664,5.9473,0.0,0.0,0.0,0.0,0.0,0.0,0.0,0.0,0.0,5.9355,5.8887,5.8418,5.8332,5.8086,5.7605,5.7722,5.7808,5.7808,5.7664,5.7605,5.7586,5.7109,5.6719,0.0,0.0,0.0,5.5195,5.5137,5.4863,5.4459,5.3978,5.3555,5.3209,5.3267,5.2988,5.2617,0.0,0.0,0.0,0.0,0.0,0.0,0.0,0.0,0.0,0.0,0.0,0.0,0.0,0.0,0.0,0.0,0.0,0.0,0.0,0.0,0.0,0.0,3.3578,3.3789,3.4176,3.4528,3.5019,3.5684,3.8242,3.9629,3.9922,4.0937,4.0351,3.8456,3.7578,3.7461,3.7892,0.0,0.0,0.0,0.0,0.0,0.0,0.0,0.0,0.0,0.0,0.0,0.0,2.5371,2.5344,2.5216,2.5122,0.0,0.0,0.0,0.0,0.0,2.7598,2.7578,2.658,2.5339,2.5157,2.5163,2.4596,2.3915,2.3363,2.3305,2.3269,2.3643,2.4978,2.9014,3.2257,0.0,0.0,0.0,0.0,0.0,0.0,0.0,0.0,0.0,0.0,0.0,0.0,0.0,0.0,0.0,0.0,0.0,5.8418,5.7996,5.7617,5.7031,5.6204,5.6953,5.7305,5.7305,5.6555,5.6204,5.6184,5.5801,5.5566,0.0,0.0,5.5234,5.4746,5.4349,5.3965,5.3541,5.3086,5.2656,5.2349,5.2676,5.2539,5.2187,0.0,0.0,0.0,0.0,0.0,0.0,0.0,0.0,0.0,0.0,0.0,0.0,0.0,0.0,0.0,0.0,0.0,0.0,0.0,0.0,0.0,3.3402,3.3402,3.35,3.3711,3.4609,3.5742,3.7127,3.9472,4.1211,4.2305,4.1465,4.0195,3.8534,3.7207,3.6955,3.7488,3.6034,0.0,0.0,0.0,0.0,0.0,0.0,0.0,0.0,0.0,0.0,0.0,0.0,2.5424,2.5291,2.5149,0.0,0.0,0.0,0.0,0.0,2.7864,2.7798,2.7296,2.5731,2.6633,2.7947,2.8069,2.783,2.7606,2.7661,2.7677,2.8117,2.9557,0.0,3.5824,3.9552,0.0,0.0,0.0,0.0,0.0,0.0,0.0,0.0,0.0,0.0,0.0,0.0,0.0,0.0,0.0,0.0,5.832,5.7926,5.7226,5.6562,5.5911,5.6067,5.6165,5.6172,5.5755,5.5579,5.556,5.539,5.5032,5.4603,0.0,5.4453,5.3613,5.3652,5.3418,5.2988,5.2793,5.2461,5.2095,5.2007,5.187,5.1714,0.0,0.0,0.0,0.0,0.0,0.0,0.0,0.0,0.0,0.0,0.0,0.0,0.0,0.0,0.0,0.0,0.0,0.0,0.0,0.0,3.3402,3.3402,3.3695,3.3871,3.3871,3.5371,3.7166,3.9198,4.1445,4.3262,4.4648,4.2031,4.0019,3.8534,3.6992,3.6379,3.6369,3.4564,3.2451,0.0,0.0,0.0,0.0,0.0,0.0,0.0,0.0,0.0,0.0,0.0,0.0,0.0,0.0,0.0,0.0,2.8167,2.8862,2.9451,2.8596,2.8426,2.8169,2.6883,0.0,2.9346,3.032,3.0715,0.0,0.0,0.0,0.0,0.0,3.6392,0.0,0.0,0.0,0.0,0.0,0.0,0.0,0.0,0.0,0.0,0.0,0.0,0.0,0.0,0.0,0.0,0.0,0.0,5.8156,5.7762,5.6875,5.623,5.5755,5.5247,5.5,5.5,5.5,5.4902,5.4707,5.4707,5.4336,5.3705,5.4082,5.3652,5.2734,5.2994,5.2896,5.2558,5.2441,5.2207,5.1894,5.1538,5.1401,5.1401,0.0,0.0,0.0,0.0,0.0,0.0,0.0,0.0,0.0,0.0,0.0,0.0,0.0,0.0,0.0,0.0,0.0,0.0,0.0,0.0,3.3402,3.3402,3.459,3.5254,3.5254,3.7303,3.9237,4.1015,4.4686,4.6191,4.5549,4.293,4.0586,3.8553,3.7617,3.6026,3.4049,3.3871,3.1681,2.8266,0.0,0.0,0.0,0.0,0.0,0.0,0.0,0.0,0.0,0.0,0.0,0.0,0.0,0.0,2.7894,2.9613,2.8954,2.817,3.035,2.9884,2.8675,2.8333,2.6834,2.5907,2.7581,2.8986,0.0,3.1674,0.0,0.0,0.0,4.1046,4.6513,0.0,0.0,0.0,0.0,0.0,0.0,0.0,0.0,0.0,0.0,0.0,0.0,0.0,0.0,0.0,0.0,0.0,0.0,5.7265,5.6399,5.5755,5.5351,5.4505,5.4095,5.4095,5.4095,5.3666,5.2891,5.2891,5.2846,5.2812,5.2832,5.2793,5.2676,5.2324,5.2173,5.2114,5.1655,5.1479,5.144,5.1421,5.1401,5.1401,0.0,0.0,0.0,0.0,0.0,0.0,0.0,0.0,0.0,0.0,0.0,0.0,0.0,0.0,0.0,0.0,0.0,0.0,0.0,3.2614,3.3402,3.3402,3.4414,3.5215,3.5745,3.918,4.2344,4.5177,4.7171,4.7148,4.5215,4.2324,3.9844,3.7734,3.6894,3.543,3.3606,3.2433,3.0401,2.7873,2.6534,0.0,0.0,0.0,0.0,0.0,0.0,0.0,0.0,0.0,2.4764,2.4821,2.6009,2.7707,2.9383,3.0097,3.1474,3.2176,2.9359,2.954,2.9997,2.7725,2.7694,0.0,0.0,3.4022,3.6737,3.7759,3.9719,0.0,0.0,0.0,0.0,0.0,0.0,0.0,0.0,0.0,0.0,0.0,0.0,0.0,0.0,0.0,0.0,0.0,0.0,0.0,0.0,0.0,0.0,5.6816,5.5742,5.4941,5.4486,5.3906,5.334,5.2812,5.3061,5.3027,5.2715,5.2715,5.2558,5.2324,5.2324,5.2168,5.187,5.1714,5.1655,5.1636,5.1479,5.1401,5.1401,5.1401,5.1401,5.1401,0.0,0.0,0.0,0.0,0.0,0.0,0.0,0.0,0.0,0.0,0.0,0.0,0.0,0.0,0.0,0.0,0.0,0.0,2.9269,3.1296,3.2486,3.2572,3.3456,3.4984,3.7172,4.1035,4.4414,4.7187,4.848,4.7617,4.4744,4.1992,3.9648,3.7656,3.6797,3.5175,3.2996,3.1495,2.9365,2.6889,2.5498,2.4805,0.0,0.0,0.0,0.0,0.0,0.0,0.0,0.0,2.5037,2.5541,2.6908,2.9028,3.1005,3.1159,3.2869,3.3678,2.9022,2.9161,3.003,2.7502,0.0,0.0,3.4616,3.8462,4.1876,4.3368,4.6055,0.0,0.0,0.0,0.0,0.0,0.0,0.0,0.0,0.0,0.0,0.0,0.0,0.0,0.0,0.0,0.0,0.0,0.0,0.0,0.0,0.0,0.0,0.0,5.5137,5.4336,5.3998,5.3345,5.2681,5.2114,5.2246,5.228,5.228,5.228,5.2148,5.1875,5.1875,5.1719,5.1401,5.1401,5.1401,5.1401,5.1401,5.1401,5.1401,5.1401,5.1401,5.1401,0.0,0.0,0.0,0.0,0.0,0.0,0.0,0.0,0.0,0.0,0.0,0.0,0.0,0.0,0.0,0.0,0.0,0.0,2.709,2.914,3.0499,3.0767,3.1761,3.4665,3.9728,4.2793,4.5,4.6308,4.8434,4.7712,4.4316,4.2188,4.0253,3.8534,3.7693,3.5336,3.1948,3.1296,2.8722,2.5082,2.4738,2.4599,0.0,0.0,0.0,0.0,0.0,0.0,0.0,0.0,2.5364,2.684,2.6985,2.9538,3.2596,3.3078,3.2594,3.1561,2.9851,2.9023,2.853,2.8036,0.0,0.0,3.8052,4.1238,4.4416,4.7585,0.0,4.9944,0.0,0.0,0.0,0.0,0.0,0.0,0.0,0.0,0.0,0.0,0.0,0.0,0.0,0.0,0.0,0.0,0.0,0.0,0.0,0.0,0.0,0.0,5.4662,5.3998,5.3978,5.2734,5.2114,5.2095,5.1616,5.1401,5.1401,5.1401,5.1401,5.1401,5.1401,5.1401,5.1401,5.1401,5.1401,5.1401,5.1401,5.1401,5.1401,5.1401,5.1401,5.1401,0.0,0.0,0.0,0.0,0.0,0.0,0.0,0.0,0.0,0.0,0.0,0.0,0.0,0.0,0.0,0.0,0.0,0.0,2.506,2.7041,2.8764,2.9973,3.1166,3.2923,3.5282,3.8887,4.2871,4.7207,4.7246,4.5195,4.1211,4.0253,3.8885,3.7283,3.7928,3.5833,3.1834,3.1451,2.9004,2.5358,2.5064,2.4805,0.0,0.0,0.0,0.0,0.0,0.0,0.0,0.0,0.0,0.0,2.8469,3.0784,3.323,3.4384,3.4024,3.2679,3.0087,3.0042,0.0,3.0009,0.0,0.0,0.0,4.4782,0.0,0.0,5.2694,0.0,0.0,0.0,0.0,0.0,0.0,0.0,0.0,0.0,0.0,0.0,0.0,0.0,0.0,0.0,0.0,0.0,0.0,0.0,0.0,0.0,0.0,0.0,5.3588,5.2949,5.2656,5.231,5.1933,5.1597,5.146,5.1401,5.1401,5.1401,5.1401,5.1382,5.1089,5.0972,5.0976,5.0664,5.0723,5.0972,5.0972,5.1148,5.1401,5.1401,5.1401,5.1401,0.0,0.0,0.0,0.0,0.0,0.0,0.0,0.0,0.0,0.0,0.0,0.0,0.0,0.0,0.0,0.0,0.0,0.0,0.0,2.4995,2.6863,2.8584,2.944,3.1478,3.4892,3.8262,4.1211,4.375,4.4101,4.2618,3.9394,3.9785,3.9452,3.8534,3.998,3.7846,3.3157,3.27,2.9799,2.5504,2.5317,2.5077,2.4818,0.0,0.0,0.0,0.0,0.0,0.0,0.0,0.0,0.0,2.9236,3.165,3.4276,3.5324,3.4678,3.3048,3.0326,3.0672,3.1903,3.2301,3.671,4.2392,4.7862,0.0,0.0,0.0,0.0,0.0,0.0,0.0,0.0,0.0,0.0,0.0,0.0,0.0,0.0,0.0,0.0,0.0,0.0,0.0,0.0,0.0,0.0,0.0,0.0,0.0,0.0,0.0,5.291,5.2344,5.2114,5.1914,5.1699,5.1401,5.1245,5.1148,5.1167,5.1343,5.1323,5.1128,5.0742,5.0547,5.0527,5.0297,5.0356,5.0547,5.0547,5.082,5.1148,5.1148,5.1265,5.1401,0.0,0.0,0.0,0.0,0.0,0.0,0.0,0.0,0.0,0.0,2.1093,0.0,0.0,0.0,0.0,0.0,0.0,0.0,0.0,0.0,2.484,2.6912,2.7517,3.0701,3.6881,3.9335,3.9569,3.756,3.9843,4.0058,3.8397,4.0273,4.1133,4.1211,4.2812,4.0453,3.5177,3.4317,3.0682,2.5504,2.5459,2.5317,2.5122,2.5344,0.0,0.0,0.0,0.0,0.0,0.0,0.0,0.0,2.9677,3.2338,3.5527,3.5842,3.4635,3.2717,3.06,3.1098,3.2736,3.4823,3.9716,0.0,5.2158,5.5202,5.6953,5.8039,0.0,0.0,0.0,0.0,0.0,0.0,0.0,0.0,0.0,0.0,0.0,0.0,0.0,0.0,0.0,0.0,0.0,0.0,0.0,0.0,0.0,0.0,0.0,0.0,5.2466,5.2056,5.2056,5.1597,5.1382,0.0,5.0952,5.0781,5.0762,5.1109,5.1069,5.0664,5.0293,5.0121,5.0082,5.0082,5.0102,5.0141,5.0141,5.0395,5.0742,5.0742,5.0996,5.1284,0.0,0.0,0.0,0.0,0.0,0.0,0.0,0.0,0.0,0.0,0.0,0.0,0.0,0.0,0.0,0.0,0.0,0.0,0.0,0.0,2.3098,2.6108,2.9689,3.2622,3.4726,3.5346,3.5388,3.4919,3.7772,3.828,3.6604,3.9375,4.0645,4.0703,4.1738,3.9426,3.4641,3.2769,2.9493,2.5472,2.5264,2.5149,2.5082,2.4871,2.4706,0.0,0.0,0.0,0.0,0.0,0.0,0.0,3.1303,3.3677,3.5823,3.5605,3.3622,3.1437,3.103,3.2038,3.3982,3.7242,4.4905,5.228,5.4798,5.625,5.6953,5.6555,5.7336,0.0,0.0,0.0,0.0,0.0,0.0,0.0,0.0,0.0,0.0,0.0,0.0,0.0,0.0,0.0,0.0,0.0,0.0,0.0,0.0,0.0,0.0,5.2388,5.1836,5.1558,5.1558,5.146,5.1245,0.0,5.0859,5.0625,5.0336,5.0434,5.0215,4.9762,4.9683,4.9473,4.9187,4.9187,4.9379,4.9644,4.9644,4.9941,5.0336,5.0336,5.0371,5.0473,0.0,0.0,0.0,0.0,0.0,0.0,0.0,0.0,0.0,0.0,0.0,0.0,0.0,0.0,0.0,0.0,0.0,0.0,0.0,0.0,2.265,2.614,3.0646,3.3203,3.3473,3.4079,3.4196,3.375,3.5332,3.6191,3.6387,3.8769,4.043,4.1406,4.1382,3.8882,3.454,3.2106,2.89,2.5504,2.5344,2.5291,2.5264,2.5098,2.4839,0.0,0.0,0.0,0.0,0.0,0.0,0.0,0.0,0.0,3.5789,3.4669,3.306,3.1412,3.0498,3.2777,3.6887,4.3053,4.9514,5.4629,5.5657,5.6575,5.7063,5.6614,5.7414,0.0,0.0,0.0,0.0,0.0,0.0,0.0,0.0,0.0,0.0,0.0,0.0,0.0,0.0,0.0,0.0,0.0,0.0,0.0,0.0,5.248,5.168,5.1484,5.1055,5.084,5.084,5.084,5.0723,5.0508,5.0269,4.9961,4.9574,4.9766,4.9746,4.9488,4.9297,4.9105,4.8913,4.8913,4.9027,4.9199,4.9199,4.9473,4.9863,4.9863,5.0,5.0199,0.0,0.0,0.0,0.0,0.0,0.0,0.0,0.0,0.0,0.0,0.0,0.0,0.0,0.0,0.0,0.0,0.0,0.0,0.0,0.0,0.0,2.6883,3.1062,3.3168,3.291,3.4023,3.4238,3.3519,3.3441,3.4687,3.7146,3.8555,4.0161,4.1799,4.0789,3.8079,3.408,3.1355,2.8346,2.5438,2.5438,2.5438,2.5419,2.5365,2.5026,0.0,0.0,0.0,0.0,0.0,0.0,0.0,0.0,0.0,3.5209,3.3674,3.2364,3.1178,2.987,3.3817,4.034,4.8784,5.2754,5.4785,5.5599,5.634,5.6875,5.6875,5.7429,0.0,0.0,0.0,0.0,0.0,0.0,0.0,0.0,0.0,0.0,0.0,0.0,0.0,0.0,0.0,0.0,0.0,0.0,0.0,5.3189,5.1992,5.1148,5.082,5.0414,5.0199,5.0199,5.0199,5.016,5.0058,4.9629,4.9219,4.8913,4.9238,4.9414,4.9371,4.9046,4.8913,4.8913,4.8913,4.8913,4.8913,4.8913,4.9105,4.9414,4.9414,4.9648,4.9965,0.0,0.0,0.0,0.0,0.0,0.0,0.0,0.0,0.0,0.0,0.0,0.0,0.0,0.0,0.0,0.0,0.0,0.0,0.0,0.0,0.0,2.8666,3.1407,3.3027,3.3304,3.3867,3.4118,3.4016,3.3613,3.5276,0.0,0.0,3.9357,3.9581,3.8589,3.5874,3.187,2.9343,2.7076,2.5163,2.5163,2.5163,2.5122,2.4831,2.4666,0.0,0.0,0.0,0.0,0.0,0.0,0.0,0.0,0.0,0.0,3.3274,3.0805,2.8519,3.0271,3.6046,4.314,4.9683,5.2729,5.431,5.5169,5.5488,5.5566,0.0,5.6824,0.0,0.0,0.0,0.0,0.0,0.0,0.0,0.0,0.0,0.0,0.0,0.0,0.0,0.0,0.0,0.0,0.0,0.0,0.0,5.229,5.1387,5.0859,5.0801,5.0414,5.0199,5.0199,5.0199,5.0,4.9586,4.9183,4.8952,4.8913,4.8972,4.8968,4.8991,4.8933,4.8913,4.8913,4.8913,4.8913,4.8913,4.8913,4.891,4.8968,4.8968,4.9031,4.9089,0.0,0.0,0.0,0.0,0.0,0.0,0.0,0.0,0.0,0.0,0.0,0.0,0.0,0.0,0.0,0.0,0.0,0.0,0.0,0.0,0.0,2.8634,3.0857,3.2285,3.273,3.316,3.3492,3.3711,3.35,0.0,0.0,3.959,4.0221,0.0,0.0,3.545,3.2113,2.9003,2.669,2.5082,2.4903,2.4818,2.4805,0.0,0.0,0.0,0.0,0.0,0.0,0.0,0.0,0.0,0.0,0.0,0.0,0.0,2.9633,2.8487,3.3024,3.7982,4.3397,4.9799,5.2558,5.3828,5.4427,5.4935,5.5234,5.5,5.5566,0.0,0.0,0.0,0.0,0.0,0.0,0.0,0.0,0.0,0.0,0.0,0.0,0.0,0.0,0.0,0.0,0.0,0.0,5.1997,5.1714,5.0918,5.0332,5.0074,4.9691,4.9457,4.9457,4.9457,4.9359,4.9164,4.8968,4.8913,4.8913,4.8913,4.8913,4.8913,4.8913,4.8913,4.8913,4.8913,4.8913,4.8913,4.8913,4.8913,4.8913,4.8913,4.8913,4.8913,0.0,0.0,0.0,0.0,0.0,0.0,0.0,0.0,0.0,0.0,0.0,0.0,0.0,0.0,0.0,0.0,0.0,0.0,0.0,0.0,0.0,2.895,3.0728,3.1836,3.2198,3.2676,3.309,3.3402,0.0,0.0,4.0391,4.0605,4.2031,0.0,3.9793,3.6181,0.0,0.0,0.0,2.6277,2.5382,2.5075,0.0,0.0,0.0,0.0,0.0,0.0,0.0,0.0,0.0,0.0,0.0,0.0,0.0,0.0,0.0,2.9034,3.4279,3.8453,4.2736,4.8621,5.1348,5.2759,5.3354,5.4101,5.4551,0.0,5.4303,0.0,0.0,0.0,0.0,0.0,0.0,0.0,0.0,0.0,0.0,0.0,0.0,0.0,0.0,0.0,0.0,0.0,0.0,5.1621,5.1265,5.0469,4.9863,4.9508,4.9125,4.8913,4.8913,4.8913,4.8913,4.8913,4.8913,4.8913,4.8913,4.8913,4.8913,4.8913,4.8913,4.8913,4.8913,4.8913,4.8913,4.8913,4.8913,4.8913,4.8913,4.8913,4.8913,4.8913,0.0,0.0,0.0,0.0,0.0,0.0,0.0,0.0,0.0,0.0,0.0,0.0,0.0,0.0,2.1093,2.1093,2.1093,2.2468,2.568,2.5954,2.7437,3.0631,3.1684,0.0,3.2198,3.2969,3.3383,3.3402,0.0,0.0,4.1719,4.2559,4.4728,4.7703,4.2414,3.8155,3.4742,0.0,0.0,0.0,0.0,0.0,0.0,0.0,0.0,0.0,0.0,0.0,0.0,0.0,0.0,0.0,0.0,0.0,0.0,0.0,0.0,0.0,3.2035,3.6555,4.1522,4.5543,4.8476,5.0688,5.1919,5.2519,5.2832,5.2812,5.317,0.0,0.0,0.0,0.0,0.0,0.0,0.0,0.0,0.0,0.0,0.0,0.0,0.0,0.0,0.0,0.0,0.0,0.0,5.0859,5.084,4.9996,4.9527,4.9508,4.9125,4.8913,4.8913,4.8913,4.8913,4.8913,4.8913,4.8913,4.8913,4.8913,4.8913,4.8913,4.8913,4.8913,4.8913,4.8913,4.8913,4.8913,4.8913,4.8913,4.8913,4.8913,4.8913,4.8913,0.0,0.0,0.0,0.0,0.0,0.0,0.0,0.0,0.0,0.0,0.0,0.0,0.0,2.1299,2.1325,2.1122,2.2074,2.3636,2.5863,2.7236,2.8971,3.1185,3.187,3.1792,3.0953,3.12,3.1479,0.0,0.0,3.5238,4.0586,4.1465,4.3575,4.6443,4.3103,4.012,3.7339,3.3476,0.0,0.0,0.0,0.0,0.0,0.0,0.0,0.0,0.0,0.0,0.0,0.0,0.0,0.0,0.0,0.0,0.0,0.0,0.0,2.9252,3.1555,3.543,3.9844,4.4043,4.6601,4.8437,4.975,5.1215,5.2226,5.1928,5.2226,0.0,0.0,0.0,0.0,0.0,0.0,0.0,0.0,0.0,0.0,0.0,0.0,0.0,0.0,0.0,0.0,0.0,0.0,0.0,5.0391,4.982,4.9371,4.9125,4.8991,4.8913,4.8913,4.8913,4.8913,4.8913,4.8913,4.8913,4.8913,4.8913,4.8757,4.846,4.846,4.8617,4.8913,4.8913,4.8913,4.8913,4.8913,4.8913,4.8913,4.8913,4.8913,4.8913,0.0,0.0,0.0,0.0,0.0,0.0,0.0,0.0,0.0,0.0,0.0,0.0,0.0,0.0,2.1686,2.1927,2.2952,2.4579,2.6898,2.8329,2.9883,3.1659,3.2164,3.171,3.0241,3.0336,3.0535,0.0,0.0,3.4112,0.0,4.0585,4.2657,4.5177,4.2812,4.1412,0.0,0.0,0.0,3.155,0.0,0.0,2.9565,0.0,0.0,0.0,0.0,0.0,0.0,0.0,0.0,0.0,0.0,0.0,0.0,0.0,0.0,0.0,3.0495,3.4032,3.8263,4.248,4.4354,4.5859,4.8323,4.9769,5.0688,5.0957,5.125,5.1509,0.0,0.0,0.0,0.0,0.0,0.0,0.0,0.0,0.0,0.0,0.0,0.0,0.0,0.0,0.0,0.0,0.0,0.0,4.9961,4.9551,4.9183,4.8913,4.8913,4.8913,4.8913,4.8913,4.8913,4.8913,4.8734,4.8656,4.8656,4.8542,4.8284,4.7988,4.7988,4.8187,4.846,4.8597,4.8656,4.8675,4.8855,4.8913,4.8913,4.8913,4.8913,4.8913,0.0,0.0,0.0,0.0,0.0,0.0,0.0,0.0,0.0,0.0,0.0,0.0,0.0,0.0,0.0,2.3494,2.3681,2.5245,2.8864,2.9161,3.0111,3.2137,3.2547,3.1918,3.018,3.0461,3.0674,0.0,3.196,3.4377,3.7873,0.0,4.2207,4.4141,4.164,4.1933,4.391,0.0,3.6844,3.7259,0.0,3.1899,3.4793,0.0,0.0,0.0,3.7643,3.6641,0.0,0.0,0.0,0.0,0.0,0.0,0.0,0.0,0.0,0.0,0.0,0.0,0.0,4.0684,4.166,4.2891,4.7603,4.803,4.7952,4.975,5.0102,5.0258,0.0,0.0,0.0,0.0,0.0,0.0,0.0,0.0,0.0,0.0,0.0,0.0,0.0,0.0,0.0,0.0,0.0,4.9488,4.9508,4.9125,4.8894,4.8913,4.8894,4.8894,4.8894,4.8894,4.8874,4.8855,4.8398,4.8183,4.8164,4.7796,4.76,4.7581,4.7581,4.7581,4.76,4.8008,4.8183,4.8223,4.8675,4.8874,4.8894,4.8894,4.8894,4.8913,0.0,0.0,0.0,0.0,0.0,0.0,0.0,0.0,0.0,0.0,0.0,0.0,0.0,0.0,2.2436,2.3758,2.5266,2.6993,2.8961,3.0767,3.2034,3.2602,3.181,3.0547,2.8783,2.7571,2.7603,0.0,0.0,3.1727,3.6113,3.7361,0.0,0.0,4.0898,4.1074,4.0919,3.7516,0.0,0.0,3.5664,3.5556,0.0,0.0,0.0,0.0,0.0,3.6908,0.0,0.0,3.7635,3.6813,0.0,0.0,0.0,0.0,0.0,0.0,3.0327,0.0,0.0,0.0,0.0,0.0,0.0,4.3339,4.4588,4.7263,4.7809,4.834,5.0039,0.0,0.0,0.0,0.0,0.0,0.0,0.0,0.0,0.0,0.0,0.0,0.0,0.0,0.0,0.0,4.9297,4.918,4.9488,4.8808,4.8558,4.8894,4.8578,4.8379,4.8379,4.8379,4.8265,4.7952,4.7835,4.7776,4.7754,4.7659,4.7402,4.7087,4.7087,4.6933,4.6719,4.7441,4.7776,4.7796,4.7913,4.8148,4.8379,4.8379,4.8617,4.8913,0.0,0.0,0.0,0.0,0.0,0.0,0.0,0.0,0.0,0.0,0.0,0.0,0.0,0.0,2.4349,2.5369,2.7317,2.9157,3.0788,3.2242,3.3223,3.3574,3.2097,3.0366,2.8494,2.7361,2.7248,2.8196,0.0,0.0,0.0,0.0,0.0,0.0,0.0,0.0,0.0,0.0,0.0,0.0,3.7576,0.0,0.0,3.9854,3.9452,0.0,0.0,0.0,3.9218,3.9562,3.866,0.0,0.0,0.0,0.0,0.0,0.0,0.0,0.0,0.0,0.0,0.0,0.0,0.0,4.0625,4.1328,4.2207,0.0,4.5994,4.6618,4.8262,4.8711,4.8789,0.0,0.0,0.0,0.0,0.0,0.0,0.0,0.0,0.0,0.0,4.9258,4.9258,4.9258,4.9027,4.891,4.8942,4.8496,4.8242,4.8343,4.8265,4.8125,4.7949,4.8125,4.7988,4.76,4.7402,4.7207,4.7073,4.7073,4.6816,4.6406,4.6406,4.6367,4.6328,4.6682,4.7014,4.7324,4.7522,4.7757,4.7969,4.8144,4.8359,4.8636,0.0,0.0,0.0,0.0,0.0,0.0,0.0,0.0,0.0,0.0,2.28,2.3252,0.0,0.0,0.0,2.7932,2.9576,3.1379,3.3272,3.35,3.389,3.4668,3.2916,3.1065,2.9211,2.8809,2.8593,2.8559,0.0,0.0,0.0,0.0,0.0,0.0,0.0,0.0,0.0,0.0,0.0,3.909,3.8445,3.9996,0.0,0.0,4.4101,0.0,4.4531,4.4277,4.3672,4.1973,3.9012,0.0,0.0,0.0,0.0,0.0,2.8265,0.0,0.0,0.0,0.0,0.0,0.0,0.0,4.0723,4.0664,4.0547,0.0,4.4276,4.4901,4.5957,4.6482,4.6872,4.7187,0.0,0.0,0.0,0.0,0.0,0.0,0.0,0.0,4.8913,4.8913,4.8913,4.8913,4.8855,4.8617,4.8164,4.8086,4.791,4.762,4.7891,4.7891,4.7542,4.7871,4.7832,4.7386,4.6973,4.654,4.6172,4.6172,4.5957,4.5627,4.5627,4.5842,4.6133,4.5842,4.6152,4.6872,4.7285,4.7483,4.7581,4.793,4.8125,4.8262,0.0,0.0,0.0,0.0,0.0,0.0,0.0,0.0,0.0,0.0,2.4422,2.5419,0.0,0.0,0.0,3.0976,3.1554,3.2241,3.333,3.4062,3.4531,3.4687,3.2999,3.186,3.147,2.9681,2.9428,3.0784,0.0,0.0,0.0,0.0,0.0,0.0,0.0,0.0,0.0,0.0,0.0,3.879,3.9642,0.0,4.451,4.4686,4.4803,4.492,4.5293,4.5392,4.5041,0.0,4.0777,3.7596,0.0,0.0,0.0,0.0,0.0,0.0,0.0,0.0,0.0,0.0,0.0,0.0,3.6953,3.785,3.9315,0.0,4.1621,4.2617,4.4842,4.5625,4.5723,4.5117,0.0,0.0,0.0,0.0,0.0,0.0,0.0,0.0,4.8913,4.8913,4.8913,4.8913,4.8558,4.8144,4.7737,4.7363,4.7282,4.76,4.7324,4.7126,4.7028,4.7107,4.6797,4.6076,4.5979,4.5703,4.5252,4.5252,4.5213,4.5135,4.5135,4.5174,4.5271,4.5588,4.5976,4.6426,4.6523,4.6758,4.7048,4.7126,4.7595,4.8223,0.0,0.0,0.0,0.0,0.0,0.0,0.0,0.0,0.0,2.4764,2.6454,0.0,0.0,0.0,0.0,0.0,3.3107,3.3687,3.4349,3.4805,3.5039,3.5039,3.352,3.2479,3.2098,3.0946,3.0703,3.1384,0.0,0.0,0.0,0.0,0.0,0.0,0.0,0.0,0.0,0.0,3.7187,3.8845,4.1406,0.0,4.543,4.6055,4.6426,4.6641,4.6855,4.6956,4.6543,4.3966,4.261,0.0,0.0,3.3272,3.2735,0.0,3.2487,3.3145,0.0,0.0,0.0,3.7305,0.0,0.0,0.0,3.701,3.7557,3.9473,3.9531,3.9902,4.207,4.2637,4.295,4.3359,4.4668,0.0,0.0,0.0,0.0,0.0,0.0,0.0,4.8265,4.8441,4.848,4.8265,4.803,4.7715,4.7285,4.7028,4.6911,4.6933,4.6911,4.6794,4.6599,4.6599,4.6308,4.5705,4.5449,4.5,4.4354,4.4803,4.4764,4.4354,4.4588,4.4803,4.4998,4.5039,4.5432,4.6016,4.623,4.6404,4.6618,4.6833,4.7185,4.7575,0.0,0.0,0.0,0.0,0.0,0.0,0.0,0.0,0.0,2.6458,2.872,0.0,0.0,0.0,0.0,0.0,0.0,3.498,0.0,0.0,3.5234,3.5153,3.4238,3.3302,3.2381,3.241,3.2265,3.1928,0.0,0.0,0.0,0.0,0.0,0.0,0.0,0.0,0.0,0.0,0.0,3.953,0.0,4.4728,4.5373,4.6897,4.7676,4.7966,4.8242,4.832,4.7851,4.4767,0.0,4.4155,3.7847,3.6722,0.0,0.0,0.0,0.0,0.0,0.0,0.0,0.0,0.0,3.758,0.0,0.0,0.0,3.8379,3.7949,0.0,0.0,0.0,0.0,0.0,0.0,0.0,0.0,0.0,0.0,0.0,0.0,0.0,0.0,4.7656,4.7637,4.7483,4.7249,4.7012,4.6794,4.6716,4.6523,4.6191,4.6404,4.6384,4.6055,4.6055,4.5801,4.5314,4.4941,4.4295,4.3456,4.4178,4.4159,4.3613,4.3984,4.4394,4.4725,4.4492,4.4805,4.551,4.5976,4.623,4.6348,4.6658,4.6833,4.695,2.2007,2.1783,0.0,0.0,0.0,0.0,0.0,0.0,2.9033,3.1507,3.1279,0.0,0.0,0.0,0.0,0.0,0.0,0.0,3.8065,0.0,3.4626,3.4254,3.517,3.4918,3.3292,3.3989,3.4179,3.3789,3.3537,0.0,0.0,0.0,0.0,0.0,3.318,0.0,0.0,0.0,3.8009,0.0,4.3595,4.4006,0.0,4.6052,4.7009,4.7204,4.8402,4.8812,4.8542,0.0,4.6035,4.5262,0.0,3.8227,0.0,0.0,0.0,0.0,0.0,0.0,0.0,0.0,4.0996,0.0,0.0,0.0,3.8926,3.7303,0.0,0.0,0.0,0.0,0.0,0.0,0.0,0.0,0.0,0.0,0.0,0.0,0.0,0.0,0.0,4.6623,4.625,4.6931,4.5935,4.5603,4.6328,4.6016,4.5822,4.5764,4.541,4.5193,4.5154,4.5154,4.4725,4.3926,4.3867,4.3378,4.2558,4.2656,4.2871,4.3165,4.3223,4.3497,4.3887,4.4258,4.4453,4.4629,4.5451,4.5998,4.6308,4.6348,4.6579,4.6911,2.2007,2.2707,0.0,0.0,0.0,0.0,0.0,0.0,3.2733,3.4031,3.5325,0.0,0.0,0.0,0.0,0.0,0.0,0.0,0.0,0.0,0.0,3.5234,3.5706,3.555,3.459,3.4648,3.4492,3.4114,3.3633,3.3402,0.0,0.0,0.0,0.0,3.361,0.0,3.6057,0.0,3.8341,0.0,0.0,0.0,0.0,4.668,4.8069,4.8125,4.8718,4.8913,4.8561,0.0,4.6033,0.0,0.0,0.0,0.0,0.0,0.0,0.0,0.0,0.0,0.0,0.0,0.0,0.0,0.0,0.0,3.758,0.0,0.0,0.0,0.0,0.0,0.0,0.0,0.0,0.0,0.0,0.0,0.0,0.0,0.0,0.0,0.0,0.0,0.0,0.0,4.4549,4.4627,4.5486,4.5391,4.541,4.5686,4.5254,4.4998,4.4998,4.4764,4.4336,4.3691,4.3457,4.2891,4.207,4.2578,4.2773,4.2734,4.3223,4.3535,4.373,4.3906,4.416,4.4433,4.4785,4.5373,4.5998,4.6211,4.6426,4.654,0.0,0.0,0.0,0.0,0.0,0.0,0.0,0.0,0.0,0.0,0.0,0.0,4.1107,4.1668,0.0,0.0,0.0,4.0039,0.0,0.0,3.6992,0.0,3.5937,0.0,0.0,3.4687,3.4567,3.4254,3.3809,3.3652,0.0,0.0,0.0,0.0,0.0,3.5703,3.7307,0.0,0.0,4.1484,4.3263,4.4062,4.4492,4.7288,4.8578,4.8913,4.8913,4.8913,4.8558,4.6426,4.6348,0.0,4.4121,0.0,0.0,0.0,0.0,0.0,4.0644,0.0,0.0,0.0,0.0,0.0,0.0,0.0,0.0,0.0,0.0,0.0,0.0,0.0,0.0,0.0,0.0,0.0,0.0,0.0,0.0,0.0,0.0,0.0,0.0,0.0,0.0,0.0,0.0,4.3359,4.4569,4.453,4.4746,4.5334,4.4902,4.4588,4.4471,4.4199,4.375,4.3183,4.2871,4.2344,4.166,4.2285,4.2441,4.2285,4.3007,4.3418,4.3535,4.3652,4.3906,4.4219,4.4355,4.4806,4.5412,4.5937,4.6133,4.6152,2.4992,2.3216,0.0,0.0,0.0,0.0,0.0,0.0,0.0,0.0,0.0,0.0,0.0,0.0,0.0,0.0,0.0,4.1836,4.3418,0.0,3.7244,0.0,0.0,0.0,0.0,0.0,3.4687,3.4668,3.4274,3.4274,3.4648,3.4254,0.0,0.0,3.6228,3.8026,4.041,4.1308,4.3593,4.6638,4.6328,4.721,4.8581,0.0,4.7773,4.8913,4.8913,0.0,0.0,4.7835,4.7542,0.0,0.0,0.0,0.0,0.0,0.0,0.0,0.0,0.0,0.0,0.0,0.0,0.0,0.0,0.0,3.9883,0.0,0.0,0.0,0.0,0.0,0.0,0.0,0.0,0.0,0.0,0.0,0.0,0.0,0.0,0.0,0.0,0.0,0.0,0.0,0.0,0.0,4.3633,4.3359,4.3556,4.4414,4.3984,4.3555,4.3165,4.3145,4.2715,4.1855,4.1855,4.1621,4.1211,4.125,4.1465,4.1836,4.2265,4.2715,4.3145,4.3535,4.3711,4.3769,4.4219,4.4414,4.4551,4.5412,4.5725,4.5783,0.0,0.0,0.0,0.0,0.0,0.0,0.0,3.7929,0.0,0.0,0.0,0.0,0.0,0.0,4.918,0.0,0.0,4.6328,4.5488,4.3008,0.0,0.0,0.0,3.783,0.0,0.0,0.0,0.0,0.0,3.457,3.4687,3.4567,3.4961,3.5859,0.0,3.8614,0.0,0.0,0.0,0.0,0.0,4.75,4.9219,0.0,0.0,4.8913,4.8913,4.8913,0.0,4.8183,4.7617,4.7031,4.6308,4.5,4.3633,4.3223,4.3302,0.0,0.0,0.0,4.5273,4.2832,0.0,0.0,0.0,0.0,0.0,0.0,0.0,0.0,0.0,0.0,0.0,0.0,0.0,0.0,0.0,0.0,0.0,0.0,0.0,0.0,0.0,0.0,0.0,0.0,3.9297,0.0,0.0,4.2578,4.3047,4.3906,4.3516,4.3243,4.3106,4.2793,4.2363,4.1797,4.1797,4.1602,4.1211,4.1484,4.166,4.1816,4.2226,4.2676,4.3106,4.3243,4.3457,4.373,4.3867,4.3945,4.4082,4.5275,4.5705,4.5764,2.9183,0.0,0.0,0.0,0.0,0.0,0.0,0.0,0.0,0.0,4.7346,0.0,5.1855,0.0,5.2583,0.0,5.1675,4.9918,4.7168,4.5842,0.0,4.1894,4.0859,0.0,0.0,0.0,0.0,0.0,0.0,3.584,3.582,3.5059,3.5176,3.6077,0.0,3.9414,4.0957,0.0,4.5449,0.0,0.0,4.8047,0.0,0.0,4.8988,0.0,0.0,4.8913,4.8815,4.8183,4.7617,4.7009,4.6308,4.5195,4.4082,4.3692,4.3986,4.4297,4.3828,4.498,0.0,0.0,4.3438,0.0,0.0,0.0,0.0,0.0,0.0,0.0,0.0,0.0,0.0,0.0,0.0,0.0,0.0,3.3906,0.0,0.0,0.0,0.0,0.0,0.0,3.7539,3.7674,3.7385,0.0,0.0,0.0,4.2031,4.3183,4.3165,4.3028,4.2851,4.2538,4.2128,4.1602,4.1602,4.1445,4.1211,4.1465,4.1602,4.1601,4.2011,4.2363,4.2676,4.2969,4.3263,4.3496,4.3652,4.3808,4.4082,4.5078,4.5666,4.5959,0.0,0.0,0.0,0.0,3.3482,0.0,0.0,0.0,4.379,0.0,4.8538,5.1235,5.339,5.3619,5.3971,5.4791,5.4394,0.0,4.8808,4.8851,0.0,0.0,4.248,4.1855,4.0215,0.0,0.0,0.0,0.0,0.0,3.7892,3.5762,3.5215,3.6116,3.875,0.0,4.1484,4.5744,4.7793,4.8242,4.8675,4.8894,4.8933,4.8894,0.0,4.9449,4.9046,4.8894,4.8737,4.7874,4.7581,4.7346,4.6115,4.541,4.4959,4.4551,4.5019,4.5432,4.416,4.5078,4.5957,4.4277,0.0,0.0,0.0,0.0,4.3965,0.0,0.0,0.0,0.0,0.0,0.0,0.0,0.0,0.0,0.0,0.0,0.0,0.0,0.0,0.0,0.0,3.7264,3.6345,3.5901,3.5862,3.6428,0.0,0.0,4.0605,4.2285,4.2812,4.2851,4.2441,4.2402,4.1992,4.123,4.1211,4.1191,4.1191,4.1191,4.1191,4.1211,4.1601,4.1777,4.1875,4.2715,4.3087,4.3145,4.3535,4.4004,4.4473,4.4881,4.5564,4.6308,3.2845,3.3532,3.4315,0.0,3.5067,3.6113,0.0,0.0,0.0,0.0,5.1445,5.4361,5.6511,5.7012,5.7168,5.7078,5.6074,0.0,0.0,0.0,0.0,4.8128,4.656,4.5252,4.424,4.2325,0.0,4.1426,0.0,0.0,3.8377,3.6543,3.5784,3.6135,3.9044,4.0664,4.1445,4.541,4.7497,4.8223,4.832,4.8769,0.0,0.0,4.8848,4.9449,4.9046,4.8675,4.8301,4.7776,4.7363,4.697,4.6348,4.5859,4.543,4.498,4.5254,4.5686,4.5644,4.6426,4.707,4.6267,4.5935,4.5449,0.0,0.0,0.0,0.0,0.0,0.0,0.0,0.0,0.0,0.0,0.0,0.0,0.0,0.0,0.0,0.0,0.0,0.0,0.0,3.4824,3.4203,3.4085,3.3793,0.0,0.0,0.0,0.0,4.1465,4.2207,4.2695,4.293,4.2285,4.1855,4.1641,4.1348,4.1191,4.1191,4.1191,4.1191,4.1211,4.1308,4.1523,4.1836,4.2363,4.2793,4.3145,4.3535,4.4159,4.4901,4.5351,4.584,4.6308,3.4023,0.0,0.0,3.7287,0.0,0.0,4.0703,0.0,0.0,4.9355,5.2656,0.0,5.6628,5.7996,5.8625,5.8203,5.7473,0.0,0.0,0.0,0.0,5.0801,4.9199,4.7851,4.6819,4.4629,0.0,4.2715,0.0,0.0,3.912,3.6816,3.5937,3.6426,3.9062,4.0586,4.1465,4.5488,4.7715,4.848,4.8086,0.0,0.0,4.8262,4.8476,4.918,4.8753,4.8418,4.8144,4.7737,4.7285,4.6794,4.6211,4.5996,4.5881,4.543,4.5742,4.623,4.6289,4.6933,4.7503,4.7009,4.6872,4.6523,4.5254,4.5353,4.5432,0.0,0.0,0.0,0.0,0.0,0.0,0.0,0.0,0.0,0.0,0.0,0.0,0.0,0.0,0.0,0.0,0.0,3.2793,0.0,0.0,0.0,0.0,0.0,0.0,4.0292,4.2031,4.3008,4.3106,4.2988,4.2558,4.1797,4.1562,4.1367,4.1191,4.1191,4.1191,4.1191,4.1191,4.1328,4.1562,4.2148,4.2558,4.2871,4.3691,4.4393,4.5037,4.5312,4.5781,4.6308,0.0,0.0,0.0,0.0,0.0,0.0,0.0,4.5471,0.0,5.0917,0.0,5.5971,5.632,5.8392,5.9441,5.8652,0.0,5.7473,5.528,5.5273,5.431,5.1928,5.1055,4.998,4.8652,4.6738,0.0,0.0,0.0,0.0,3.957,3.6719,3.582,3.6697,3.8848,4.0449,0.0,4.5686,4.7776,4.8444,4.7835,4.8089,4.8714,4.7913,4.8109,4.8734,4.8281,4.8125,4.8066,4.7737,4.7246,4.6697,4.5996,4.6037,4.623,4.5881,4.6269,4.6755,4.6465,4.6933,4.7422,4.7067,4.7305,4.7307,4.6194,4.59,4.5744,4.5252,4.3885,0.0,0.0,0.0,0.0,0.0,0.0,0.0,0.0,0.0,0.0,0.0,0.0,0.0,0.0,0.0,0.0,0.0,0.0,0.0,0.0,0.0,0.0,3.9101,4.1933,0.0,4.3263,0.0,4.3476,4.2129,4.1855,4.1582,4.1269,4.1211,4.1191,4.1191,4.1191,4.1191,4.125,4.207,4.248,4.2695,4.3926,4.4648,4.4998,4.4998,4.5545,4.6289,0.0,0.0,0.0,0.0,0.0,4.5959,4.8044,5.0156,5.2893,5.6862,6.0006,0.0,6.1992,6.2401,6.1686,5.9305,5.8406,0.0,0.0,0.0,0.0,5.416,5.3287,5.2212,5.0874,4.7793,4.5879,0.0,0.0,0.0,3.8205,3.6289,3.5664,3.623,3.8379,4.0781,4.3379,4.5256,0.0,4.633,4.7249,4.7894,4.8262,4.7796,4.7891,4.8262,4.7851,4.7718,4.7698,4.762,4.707,4.6387,4.623,4.625,4.6289,4.6211,4.6289,4.6443,4.6716,4.6911,4.7087,4.7402,4.7542,4.7542,4.7327,4.6973,4.656,4.6172,4.5252,4.41,4.2637,0.0,0.0,0.0,0.0,0.0,0.0,0.0,0.0,0.0,0.0,0.0,0.0,0.0,0.0,0.0,0.0,0.0,0.0,0.0,0.0,0.0,4.0937,0.0,0.0,0.0,4.3144,4.3926,4.2149,4.1445,4.168,4.1348,4.1191,4.1191,4.1191,4.1191,4.125,4.207,4.2831,4.3514,4.416,4.4648,4.4998,4.4998,4.5545,4.625,0.0,0.0,0.0,0.0,0.0,0.0,0.0,5.6222,0.0,5.8813,6.0342,6.1955,6.3459,6.217,6.1252,6.1355,5.9437,5.8113,5.7926,5.6855,5.5996,5.5351,5.4297,0.0,5.2085,0.0,4.6758,4.5705,0.0,0.0,0.0,0.0,0.0,3.6426,3.8125,4.0684,0.0,0.0,0.0,4.6367,4.6758,4.7441,4.8105,4.7246,4.7346,4.7832,4.7402,4.7246,4.7246,4.7246,4.6816,4.6308,4.6308,4.6308,4.6308,4.6308,4.6308,4.6348,4.6543,4.6579,4.6638,4.6855,4.6914,4.6914,4.6914,4.6758,4.6521,4.6348,4.5449,4.3944,4.1582,3.9394,0.0,0.0,0.0,0.0,0.0,0.0,0.0,0.0,0.0,0.0,0.0,0.0,0.0,0.0,0.0,0.0,0.0,0.0,0.0,0.0,0.0,0.0,0.0,0.0,0.0,4.3712,4.2422,4.1816,4.1777,4.1387,4.1191,4.1191,4.1191,4.1328,4.1582,4.2422,4.3125,4.375,4.4219,4.4531,4.4705,4.492,4.543,4.5979,0.0,4.3243,0.0,0.0,4.9966,0.0,0.0,6.1931,6.392,6.1897,6.1919,6.297,6.5241,6.2799,6.1837,6.394,6.0617,5.8438,5.8612,5.7342,5.6387,5.593,5.4857,5.3822,5.2871,4.998,4.7461,0.0,0.0,0.0,0.0,0.0,0.0,0.0,0.0,0.0,0.0,0.0,4.4783,4.6501,4.6443,4.7031,4.7809,4.6816,4.6855,4.7383,4.6931,4.6775,4.6775,4.6775,4.656,4.6308,4.6308,4.6308,4.6308,4.6308,4.6308,4.6308,4.6308,4.6308,4.6308,4.6308,4.6308,4.6308,4.6308,4.6308,4.6289,4.6191,4.5137,4.3516,4.1074,3.9824,0.0,0.0,0.0,0.0,0.0,0.0,0.0,0.0,0.0,0.0,0.0,0.0,0.0,0.0,0.0,0.0,0.0,0.0,0.0,0.0,0.0,4.2461,4.3087,0.0,4.4591,0.0,4.2753,4.2226,4.1914,4.1523,4.1269,4.1191,4.1191,4.1484,4.1992,4.2656,4.3242,4.375,4.4219,4.4394,4.4453,4.4842,4.5312,4.5705,0.0,0.0,0.0,0.0,0.0,0.0,0.0,6.5718,7.086,7.0604,7.0604,7.0753,7.1007,6.8535,6.6702,6.6495,6.1251,5.8809,6.0847,5.8219,5.6387,5.593,5.5423,5.459,5.3345,5.0742,4.7793,0.0,0.0,0.0,0.0,0.0,0.0,0.0,0.0,0.0,0.0,4.287,4.4256,4.5291,4.6404,4.6911,4.7009,4.6892,4.6892,4.6911,4.6482,4.6367,4.6367,4.6367,4.6328,4.6308,4.6308,4.6308,4.6308,4.6308,4.6308,4.6308,4.6308,4.6308,4.6308,4.6308,4.6308,4.6308,4.6308,4.6308,4.6191,4.5842,4.4687,4.3223,4.1465,4.1035,4.0429,0.0,0.0,0.0,0.0,0.0,0.0,0.0,0.0,0.0,0.0,0.0,0.0,0.0,0.0,0.0,0.0,0.0,0.0,3.6096,0.0,4.1895,4.3087,4.3263,0.0,4.4803,4.3183,4.2382,4.2324,4.1933,4.1523,4.1191,4.1191,4.1621,4.2363,4.2441,4.2948,4.375,4.4219,4.4394,4.4453,4.4842,4.5312,4.5705,0.0,0.0,0.0,0.0,0.0,0.0,0.0,6.9438,7.2424,7.4138,7.288,7.245,7.4188,7.0328,6.7526,6.7298,6.4546,6.1903,5.9753,5.9232,5.8202,5.6408,5.5664,5.4687,5.3449,5.1348,4.873,0.0,0.0,0.0,0.0,0.0,0.0,0.0,0.0,4.0059,4.1738,4.3105,4.4627,4.6189,4.6697,4.7067,4.7266,4.6758,4.654,4.6523,4.6367,4.6308,4.6308,4.6308,4.6308,4.6308,4.6308,4.6308,4.6348,4.6579,4.6482,4.6367,4.6579,4.6482,4.6308,4.6308,4.6308,4.6308,4.6308,4.6308,4.625,4.6094,4.5019,4.375,4.2559,4.1719,4.1054,0.0,0.0,0.0,0.0,0.0,0.0,0.0,0.0,0.0,0.0,0.0,0.0,0.0,0.0,0.0,0.0,0.0,0.0,3.594,0.0,4.0507,4.2285,4.3359,4.3984,4.4198,4.3281,4.2812,4.2793,4.2109,4.1562,4.123,4.2012,4.2363,4.2441,4.2968,4.3398,4.3769,4.4471,4.4629,4.4512,4.5449,4.5742,4.5725,5.0469,0.0,5.5005,0.0,6.197,6.5416,7.0611,7.2336,7.3787,7.5832,7.4338,7.3862,7.5881,7.1738,6.878,6.862,6.6455,6.3798,6.0692,5.9953,5.9002,5.7647,5.613,0.0,5.3449,5.1797,4.957,4.668,4.4415,0.0,0.0,0.0,0.0,0.0,3.9491,4.1094,4.2851,4.3984,4.5408,4.6911,4.6911,4.7031,4.7151,4.6543,4.6308,4.6308,4.6308,4.6308,4.6308,4.6308,4.6387,4.6484,4.6484,4.6406,4.6387,4.6775,4.6618,4.6367,4.6638,4.6523,4.6308,4.6308,4.6308,4.6308,4.6308,4.6308,4.6269,4.6152,4.5293,4.4316,4.3438,4.2344,4.1562,0.0,0.0,0.0,0.0,0.0,0.0,0.0,0.0,3.2437,3.1191,0.0,0.0,0.0,0.0,0.0,0.0,0.0,0.0,0.0,0.0,0.0,0.0,4.3398,4.4023,4.3691,4.3398,4.3223,4.3067,4.2324,4.1816,4.1602,4.25,4.2773,4.2636,4.3281,4.3594,4.3769,4.453,4.4668,4.4531,4.5703,4.5937,4.5764,5.294,5.3697,5.57,6.11,6.4753,6.8057,7.1287,7.4213,7.6055,7.6104,7.6079,7.6055,7.6104,7.351,7.1524,7.1025,6.5917,6.344,6.5107,6.0215,5.806,0.0,0.0,5.4687,5.3449,5.209,5.0132,4.7581,0.0,0.0,4.0489,0.0,3.9863,3.998,4.2519,4.3652,4.3808,4.5527,4.6501,4.6911,4.6911,4.6658,4.6308,4.6308,4.6308,4.6308,4.6308,4.6308,4.6308,4.6308,4.656,4.6892,4.6892,4.6618,4.6387,4.6775,4.6618,4.6308,4.6308,4.6308,4.6308,4.6308,4.6308,4.6308,4.6308,4.6308,4.6191,4.5783,4.5332,4.4725,4.3867,4.2968,4.2128,4.1328,0.0,0.0,0.0,0.0,0.0,0.0,3.5215,3.3828,3.1704,0.0,0.0,0.0,0.0,0.0,0.0,0.0,0.0,3.5388,3.8693,0.0,4.1797,4.3066,4.3711,4.3711,4.3691,4.3476,4.3087,4.2597,4.2402,4.2382,4.2402,4.2676,4.3087,4.3106,4.3341,4.375,4.4219,4.4394,4.4512,4.5392,4.5705,4.5764,5.6741,6.0242,6.4019,6.7211,7.0161,7.2663,7.4465,7.5509,7.6104,7.6104,7.6104,7.6104,7.6104,7.5286,7.3864,0.0,7.101,6.945,0.0,6.5519,6.3637,6.0529,5.8632,5.6285,5.3454,5.1816,5.0019,4.8008,0.0,0.0,0.0,4.2754,4.2637,4.2168,4.4181,4.5371,4.5955,4.7129,4.7676,4.7751,4.748,4.7109,4.6677,4.6406,4.6308,4.6348,4.6599,4.6716,4.6755,4.707,4.7266,4.7422,4.7715,4.7519,4.7207,4.7324,4.707,4.6716,4.6716,4.6523,4.6308,4.6308,4.6308,4.6367,4.6638,4.6716,4.6523,4.5842,4.5332,4.4822,4.4277,4.3457,4.2676,4.2109,0.0,0.0,0.0,0.0,0.0,0.0,3.2969,3.1836,0.0,3.1484,0.0,0.0,0.0,0.0,0.0,0.0,0.0,0.0,3.8594,0.0,4.2187,4.3183,4.3711,4.3711,4.3711,4.3476,4.3106,4.3223,4.2948,4.2441,4.3026,4.3223,4.3126,4.3399,4.3574,4.375,4.4219,4.457,4.4881,4.549,4.5881,4.6113,6.0239,6.3543,6.7128,6.9934,7.1902,7.3799,7.5805,7.6104,7.6104,7.6104,7.6104,7.6104,7.6104,7.6104,0.0,7.2044,7.2802,7.1892,6.8287,6.7868,6.5918,6.1824,5.9904,5.7111,5.322,0.0,0.0,4.8945,4.7575,4.5916,4.4083,4.4785,4.4902,4.459,4.6018,4.6914,4.7438,4.8144,4.8359,4.8183,4.793,4.7558,4.7148,4.6875,4.6777,4.6816,4.707,4.7146,4.7207,4.7503,4.7698,4.7851,4.8125,4.8167,4.805,4.7894,4.7519,4.7107,4.695,4.6716,4.6482,4.6348,4.6308,4.6406,4.6814,4.6911,4.6755,4.625,4.5547,4.492,4.4666,4.3789,4.295,4.248,0.0,4.082,0.0,0.0,0.0,0.0,0.0,0.0,0.0,3.2519,0.0,0.0,0.0,0.0,0.0,0.0,0.0,3.6682,3.9101,0.0,4.2656,4.3359,4.3711,4.3711,4.3711,4.3574,4.332,4.3594,4.3397,4.2909,4.3456,4.3555,4.334,4.3594,4.3808,4.3984,4.4277,4.4746,4.5312,4.5588,4.5937,4.6308,6.341,6.4435,0.0,0.0,7.0998,0.0,7.5608,7.6104,7.6079,7.6054,7.6054,7.6029,7.6004,7.5978,7.4913,7.2203,0.0,0.0,0.0,6.7992,6.5608,6.3539,6.0856,0.0,5.2868,5.2246,5.1411,5.016,4.8044,4.666,4.592,4.6311,4.668,4.7067,4.8071,4.8401,4.8304,4.8879,4.8777,4.8203,4.8203,4.7949,4.76,4.76,4.76,4.76,4.764,4.764,4.7659,4.7679,4.793,4.8262,4.8262,4.8558,4.8815,4.834,4.793,4.7519,4.7028,4.6911,4.6794,4.6406,4.6328,4.6445,4.6775,4.6892,4.6892,4.6872,4.5896,4.5037,4.5018,4.3965,4.295,4.248,4.1641,4.0312,3.8126,0.0,0.0,0.0,0.0,0.0,0.0,3.4648,3.5056,0.0,0.0,0.0,0.0,0.0,3.6426,3.799,4.0137,4.1875,4.3126,4.3516,4.373,4.375,4.3789,4.3789,4.3789,4.3769,4.375,4.375,4.3711,4.3711,4.3711,4.3711,4.3965,4.4355,4.4394,4.4902,4.5666,4.5686,4.5937,4.6308,0.0,0.0,7.1366,7.3129,7.3871,7.4639,7.5905,7.6104,7.5929,7.5453,7.5402,7.5252,7.4849,7.4799,7.4506,7.3846,7.3773,7.3673,7.3426,7.1609,6.8538,6.4063,6.1896,5.8425,5.3354,5.186,5.0644,4.9664,4.8828,4.8323,4.8151,4.8226,4.8323,4.8513,5.0516,5.0413,4.8872,5.0742,5.0267,4.8203,4.8203,4.7949,4.76,4.76,4.76,4.764,4.7949,4.8066,4.8105,4.846,4.8679,4.8734,4.8734,4.8815,4.8815,4.834,4.8144,4.7891,4.7107,4.6911,4.6794,4.6406,4.6521,4.6697,4.6482,4.6677,4.6814,4.6523,4.5957,4.543,4.5057,4.3965,4.295,4.248,4.0879,3.9043,3.7244,3.6328,0.0,0.0,3.4375,3.4922,3.4922,3.4883,3.5059,0.0,0.0,0.0,0.0,0.0,3.9004,3.9414,4.1191,4.2598,4.3555,4.3652,4.3887,4.4238,4.4549,4.4686,4.4686,4.4375,4.4238,4.4219,4.3867,4.3711,4.3711,4.3711,4.3769,4.3906,4.4258,4.4726,4.5215,4.5568,4.5937,4.6308,6.8929,7.0996,7.2993,7.3895,7.4297,7.4674,7.5251,7.5326,7.5201,7.4875,7.4825,7.4725,7.4423,7.4398,7.4398,7.4398,7.4398,7.4322,7.4046,7.2917,6.9691,6.398,6.2548,5.9126,5.3217,5.2148,5.1152,5.0093,4.9473,4.916,4.916,4.8991,4.9472,5.0553,5.1825,5.2297,5.2117,5.2319,5.1522,5.003,4.8934,4.8382,4.8187,4.8187,4.8187,4.8226,4.8441,4.8519,4.8558,4.8792,4.8913,4.9078,5.0162,5.0507,5.0467,5.0201,4.9367,4.8382,4.7695,4.7497,4.7341,4.6716,4.6892,4.7109,4.6658,4.6736,4.6853,4.6618,4.6113,4.5568,4.5096,4.4121,4.2969,4.1738,4.0215,3.8398,3.6111,3.5742,0.0,3.4124,3.5351,3.6348,3.6506,3.6875,3.7031,3.6877,0.0,0.0,3.8144,3.9824,4.0762,4.0762,4.2226,4.3417,4.4276,4.4276,4.4413,4.4687,4.4901,4.4998,4.4998,4.4764,4.457,4.4394,4.4141,4.3906,4.3711,4.3711,4.3828,4.4043,4.4297,4.4648,4.5057,4.5529,4.5842,4.6055,7.1184,7.2087,7.2993,7.3519,7.3669,7.387,7.4323,7.4398,7.4348,7.4273,7.4273,7.4223,7.4147,7.4147,7.4147,7.4147,7.4147,7.3996,7.3619,7.2867,6.9763,6.367,6.2748,5.936,5.2859,5.2519,5.1894,5.0801,4.9918,4.9675,5.0029,4.9621,5.0666,5.2925,5.3282,5.4367,5.5792,5.4147,5.3036,5.223,5.0231,4.9216,4.8913,4.8913,4.8913,4.8913,4.8913,4.8913,4.8913,4.8913,4.9147,4.9793,5.1757,5.2634,5.2858,5.25,5.0987,4.9256,4.8411,4.8417,4.8542,4.8167,4.8089,4.802,4.7623,4.7216,4.6911,4.6911,4.6308,4.5625,4.5096,4.4276,4.3066,4.1094,3.9727,3.7988,3.5371,0.0,3.5466,3.5039,3.6699,3.8047,3.8458,3.9414,3.9609,3.8654,3.9766,0.0,0.0,4.1211,4.2109,4.2187,4.3164,4.4121,4.4998,4.5076,4.5096,4.5096,4.5174,4.5193,4.5193,4.5135,4.4862,4.4492,4.4433,4.4141,4.3711,4.3711,4.3926,4.4297,4.4375,4.4648,4.5057,4.5529,4.5744,4.5842,7.1686,7.269,7.3494,7.3569,7.3971,7.4298,7.4373,7.4398,7.4247,7.377,7.372,7.3544,7.3018,7.2968,7.2968,7.2968,7.2968,7.3143,7.3569,7.2188,6.8984,6.3648,6.2073,5.8622,5.2839,5.166,5.0996,5.0801,4.9918,5.052,5.2444,5.2032,5.3082,5.5355,5.7347,5.7347,5.6009,5.7562,5.5964,5.2387,5.2005,5.0666,4.8913,4.8913,4.8913,4.8913,4.8913,4.8913,4.8913,4.8913,5.0231,5.1915,5.2297,5.377,5.4961,5.2992,5.214,5.1314,4.887,4.9398,5.1086,5.2948,5.1981,5.0542,5.0459,4.8612,4.6911,4.6911,4.6521,4.5957,4.5154,4.4276,4.3359,4.2285,3.9552,3.7305,3.6502,0.0,3.6462,3.6384,3.8885,4.0761,4.1152,4.0723,4.0762,4.164,4.0957,4.0918,4.1855,4.2851,4.3594,4.3984,4.3808,4.4121,4.4998,4.5391,4.5588,4.5607,4.5937,4.6113,4.6094,4.5764,4.5332,4.4881,4.4551,4.4141,4.3711,4.3711,4.375,4.3848,4.4238,4.4648,4.5057,4.5529,4.592,4.6211,7.141,7.2364,7.3117,7.3117,7.3319,7.347,7.347,7.347,7.3394,7.3167,7.3117,7.2993,7.2742,7.2717,7.2717,7.2717,7.2717,7.2692,7.269,7.1686,6.8668,6.3193,6.1781,5.8363,5.2506,5.1538,5.1788,5.3138,5.2173,5.2955,5.5301,5.4605,5.5486,5.7733,5.8821,5.9415,5.9586,5.9394,5.7369,5.4169,5.2902,5.0987,4.8913,4.8913,4.8913,4.8913,4.8913,4.8913,4.9078,5.0348,5.1486,5.2835,5.5333,5.6874,5.7519,5.642,5.4346,5.212,5.0832,5.2037,5.3887,5.4719,5.3148,5.1361,5.1152,4.9119,4.7285,4.7285,4.6933,4.6423,4.5799,4.4588,4.3359,4.2246,3.9394,0.0,0.0,3.7166,3.7381,3.8319,4.0273,4.168,4.207,4.1758,4.1875,4.2715,4.2226,4.2246,4.3046,4.373,4.4277,4.4705,4.498,4.5271,4.5681,4.5918,4.6016,4.6037,4.6211,4.6308,4.6289,4.6113,4.5781,4.5371,4.5176,4.4707,4.4082,4.4082,4.3926,4.375,4.4219,4.4512,4.4766,4.5451,4.5822,4.6018,7.141,7.2114,7.2717,7.2717,7.2717,7.2717,7.2717,7.2717,7.2717,7.2717,7.2717,7.2717,7.2717,7.2717,7.2717,7.2717,7.2591,7.229,7.1761,7.1232,6.8376,6.2697,6.0228,5.6835,5.2188,5.2205,5.3204,5.5094,5.468,5.5695,5.8091,5.7136,5.7927,6.0107,6.0107,6.1118,6.2679,6.0865,5.8778,5.6486,5.4147,5.178,4.9656,4.9101,4.8913,4.8913,4.8913,4.9262,4.9979,5.178,5.3104,5.4632,5.8181,5.9688,6.0027,5.9454,5.6809,5.3992,5.3992,5.5311,5.6718,5.6928,5.4799,5.2597,5.2278,4.9884,4.7895,4.8437,4.8089,4.7704,4.7853,4.6085,4.4255,4.3061,0.0,0.0,0.0,3.8047,3.8437,3.9863,4.125,4.2305,4.2812,4.287,4.3046,4.3517,4.3535,4.3672,4.3984,4.4453,4.4883,4.5291,4.5957,4.6308,4.6308,4.6308,4.6308,4.6308,4.6308,4.6308,4.6308,4.6308,4.6074,4.5705,4.5705,4.5275,4.4551,4.4551,4.4336,4.4043,4.4394,4.4609,4.4766,4.5451,4.5764,4.5946,7.239,7.2641,7.2717,7.2717,7.2717,7.2717,7.2717,7.2717,7.2717,7.2717,7.2717,7.2717,7.2717,7.2717,7.2717,7.2717,7.224,7.1736,7.1184,7.0654,6.7839,6.2202,5.6064,5.2571,5.2114,5.3886,5.4926,5.5094,5.6379,5.8247,6.0527,5.9529,6.0299,6.2556,6.2556,6.2638,6.2781,6.2618,6.118,5.8842,5.6507,5.4169,5.1892,4.9748,4.8913,4.8913,4.8913,5.0299,5.2185,5.2342,5.5246,5.8863,5.918,6.0782,6.2117,5.994,5.9074,5.8799,5.8799,5.8926,5.9559,6.1693,5.8903,5.5572,5.555,5.1723,4.876,5.0965,5.0634,5.0505,5.2264,4.9759,4.7121,4.6196,0.0,0.0,3.916,3.9453,3.9902,4.0391,4.1953,4.3341,4.418,4.4258,4.4433,4.4822,4.4862,4.4881,4.4901,4.5351,4.5803,4.6191,4.6269,4.6308,4.6308,4.6308,4.6308,4.6308,4.6308,4.6308,4.6308,4.6308,4.6074,4.5705,4.5705,4.541,4.4959,4.4959,4.494,4.492,4.494,4.5234,4.5607,4.5666,4.594,4.6555,7.1636,7.224,7.2717,7.2717,7.2717,7.2717,7.2717,7.2717,7.2717,7.2717,7.2717,7.2717,7.2717,7.2717,7.2717,7.2717,7.2215,7.1686,7.1131,6.9072,6.5822,6.1162,5.5278,5.2672,5.3927,5.4723,5.6597,5.9681,5.9872,6.1223,6.3586,6.2865,6.2812,6.3375,6.3375,6.3153,6.2802,6.2802,6.1453,5.9222,5.833,5.6615,5.4455,5.3593,5.3216,5.3193,5.3237,5.3793,5.4785,5.6204,5.7861,5.9562,6.1014,6.2076,6.2638,6.1722,6.1474,6.1474,6.1474,6.1474,6.168,6.2597,5.9333,5.5901,5.5901,5.3265,5.1059,5.1957,5.2754,5.3421,5.3823,5.0999,4.8459,4.806,0.0,4.1015,4.1875,4.1465,4.1426,4.2383,4.3555,4.4414,4.4744,4.4764,4.4961,4.5391,4.543,4.5547,4.5779,4.5976,4.6133,4.6289,4.6308,4.6308,4.6308,4.6308,4.6308,4.6308,4.6308,4.6308,4.6308,4.6308,4.6211,4.6055,4.6055,4.582,4.543,4.543,4.5273,4.5037,4.5312,4.5549,4.5725,4.5998,4.6328,4.679,7.1081,7.1836,7.2441,7.2441,7.2441,7.2441,7.2441,7.2315,7.219,7.219,7.234,7.2441,7.2441,7.2591,7.2641,7.2466,7.1962,7.141,7.088,6.7579,6.3735,5.9397,5.5262,5.3676,5.5068,5.662,5.9089,6.2491,6.267,6.3623,6.5283,6.4576,6.4048,6.3676,6.35,6.3178,6.2802,6.2802,6.187,6.0341,5.9604,5.8375,5.6897,5.6161,5.5879,5.5835,5.5879,5.6357,5.722,5.8778,5.9793,6.0678,6.2286,6.2802,6.2802,6.2802,6.2802,6.2802,6.2802,6.2802,6.2802,6.2802,5.9859,5.6983,5.6983,5.518,5.3704,5.4412,5.5475,5.6346,5.6719,5.338,5.0454,5.0154,4.5759,4.2695,4.3574,4.3066,4.2949,4.3828,4.4549,4.5115,4.5389,4.5408,4.5664,4.6252,4.6291,4.6348,4.6484,4.6367,4.6308,4.6308,4.6308,4.6308,4.6308,4.6308,4.6308,4.6308,4.6308,4.6308,4.6308,4.6308,4.6308,4.6308,4.6308,4.6133,4.59,4.59,4.5703,4.5428,4.5762,4.5979,4.6113,4.6387,4.6777,4.7218,7.0981,7.151,7.1887,7.1887,7.1887,7.1887,7.1887,7.1435,7.1106,7.1106,7.156,7.1912,7.1912,7.2365,7.2466,7.1937,7.1384,7.0855,7.028,6.6387,6.1856,5.6841,5.5669,5.5141,5.5141,5.9976,6.2514,6.2514,6.4395,6.5329,6.5283,6.4203,6.3701,6.3676,6.3078,6.2802,6.2802,6.2802,6.2802,6.2597,6.0257,5.9328,5.9074,5.6832,5.5944,5.5944,5.5944,5.7413,5.9328,5.9328,6.0865,6.2802,6.2802,6.2802,6.2802,6.2802,6.2802,6.2802,6.2802,6.2802,6.2802,6.2802,6.1056,5.9307,5.9307,5.7564,5.6573,5.8842,5.8902,5.9254,6.1565,5.744,5.3447,5.2646,4.8296,4.4705,4.3848,4.4121,4.4414,4.4414,4.4764,4.535,4.623,4.6308,4.666,4.7542,4.76,4.7383,4.6931,4.6521,4.6308,4.6308,4.6308,4.6308,4.6308,4.6308,4.6308,4.6308,4.6308,4.6308,4.6308,4.6308,4.6308,4.6308,4.6308,4.6308,4.6308,4.6308,4.6308,4.6308,4.6308,4.6562,4.6911,4.6911,4.7207,4.7937,7.0526,7.0981,7.1334,7.1334,7.1334,7.1334,7.1334,7.151,7.1661,7.1661,7.2114,7.2315,7.1937,7.2039,7.1937,7.1384,7.0855,6.9542,6.7175,6.5522,6.3013,5.935,5.8215,5.8516,6.0271,6.1733,6.3334,6.5025,6.5592,6.586,6.586,6.5132,6.4626,6.4224,6.3676,6.3178,6.2802,6.2802,6.2802,6.2741,6.2035,6.1742,6.168,6.0993,6.0744,6.0744,6.0744,6.1159,6.1742,6.1742,6.2224,6.2802,6.2802,6.2802,6.2802,6.2802,6.2802,6.2802,6.2802,6.2802,6.2802,6.2802,6.1056,5.9307,5.9307,5.8778,5.8481,5.9159,6.047,6.1626,6.1948,5.8035,5.4551,5.3924,4.9608,4.6248,4.5974,4.6072,4.615,4.615,4.6562,4.6914,4.719,4.721,4.7327,4.7581,4.76,4.7542,4.7383,4.6973,4.6853,4.7187,4.6621,4.6445,4.6716,4.6445,4.6308,4.6308,4.6308,4.6308,4.6308,4.6308,4.6308,4.6308,4.6308,4.6308,4.6308,4.6308,4.6308,4.6308,4.6308,4.6562,4.6911,4.6911,4.7383,4.8347,6.9928,7.0403,7.078,7.078,7.078,7.0855,7.1081,7.1207,7.1282,7.1282,7.1736,7.1861,7.1332,7.146,7.1382,7.083,7.0277,6.9064,6.694,6.653,6.5432,6.3354,6.2485,6.2168,6.2491,6.3444,6.4631,6.609,6.609,6.609,6.6065,6.5333,6.4802,6.4471,6.3676,6.3128,6.2802,6.2802,6.2802,6.2802,6.2802,6.2802,6.2802,6.2802,6.2802,6.2802,6.2802,6.2802,6.2802,6.2802,6.2802,6.2802,6.2802,6.2802,6.2802,6.2802,6.2802,6.2802,6.2802,6.2802,6.2802,6.2802,6.1722,6.0678,6.0678,6.0678,6.0678,6.0678,6.1804,6.2411,6.1154,5.7928,5.4971,5.3558,4.999,4.736,4.7185,4.7187,4.7187,4.7187,4.7422,4.7659,4.7812,4.7832,4.7891,4.8089,4.7952,4.7832,4.7832,4.7422,4.7305,4.76,4.6914,4.6736,4.7165,4.6736,4.6465,4.6308,4.6308,4.6769,4.7619,4.7619,4.7619,4.7619,4.7619,4.7119,4.6308,4.6308,4.6308,4.6308,4.6308,4.666,4.7187,4.7187,4.7734,4.8823,6.9406,6.9853,7.0202,7.0202,7.0275,7.0428,7.0857,7.0629,7.035,7.0325,7.0755,7.0905,7.0376,7.0729,7.0805,7.0252,6.9705,6.918,6.8701,6.8625,6.8349,6.7819,6.7288,6.5706,6.287,6.4982,6.609,6.609,6.604,6.6036,6.6011,6.4927,6.4446,6.4375,6.3299,6.2802,6.2802,6.2802,6.2802,6.2802,6.2802,6.2802,6.2802,6.2802,6.2802,6.2802,6.2802,6.2802,6.2802,6.2802,6.2802,6.2802,6.2802,6.2802,6.2802,6.2802,6.2802,6.2802,6.2802,6.2802,6.2802,6.2802,6.2802,6.2802,6.2802,6.2802,6.2802,6.2802,6.2802,6.2076,5.973,5.739,5.4916,5.2197,4.9788,4.8125,4.7776,4.7718,4.7718,4.7718,4.7718,4.7874,4.8223,4.8262,4.8437,4.8874,4.8496,4.8262,4.8262,4.7894,4.7679,4.7718,4.7246,4.7187,4.7659,4.7185,4.6775,4.6406,4.6625,4.7763,4.9742,4.9955,5.0061,5.0061,5.0061,4.8779,4.6735,4.6735,4.6584,4.6367,4.6406,4.6894,4.76,4.764,4.8167,4.9285,6.9406,6.9506,6.9604,6.9604,6.9978,7.0177,6.983,7.043,7.078,7.0376,7.0755,7.0905,7.0376,7.0378,7.0252,6.9654,6.9481,6.9356,6.923,6.8826,6.8349,6.7819,6.7288,6.6472,6.5353,6.5828,6.609,6.609,6.5685,6.5459,6.5434,6.44,6.3852,6.3847,6.3128,6.2802,6.2802,6.2802,6.2802,6.2802,6.2802,6.2802,6.2802,6.2802,6.2802,6.2802,6.2802,6.2802,6.2802,6.2802,6.2802,6.2802,6.2802,6.2802,6.2802,6.2802,6.2802,6.2802,6.2802,6.2802,6.2802,6.2802,6.2802,6.2802,6.2802,6.2802,6.2802,6.2802,6.2802,6.2076,5.973,5.7412,5.507,5.2642,5.0275,4.8714,4.864,4.862,4.862,4.862,4.862,4.8636,4.8734,4.8734,4.8773,4.8894,4.8815,4.8734,4.8734,4.8323,4.8223,4.862,4.7855,4.7637,4.8066,4.7656,4.7383,4.7349,4.9176,5.0294,5.0838,5.2687,5.3515,5.3515,5.3515,5.2196,5.0054,5.0054,4.8753,4.6814,4.7168,4.7444,4.764,4.7949,4.8421,4.9495,6.9406,6.9406,6.9406,6.9406,6.9654,6.9853,6.9828,7.0353,7.0604,7.035,7.0529,7.0403,6.9577,6.9499,6.925,6.8675,6.865,6.865,6.865,6.8374,6.8073,6.7819,6.7288,6.6861,6.6538,6.6262,6.609,6.609,6.5559,6.5283,6.5279,6.4203,6.3701,6.3676,6.3078,6.2802,6.2802,6.2802,6.2802,6.2802,6.2802,6.2802,6.2802,6.2802,6.2802,6.2802,6.2802,6.2802,6.2802,6.2802,6.2802,6.2802,6.2802,6.2802,6.2802,6.2802,6.2802,6.2802,6.2802,6.2802,6.2802,6.2802,6.2802,6.2802,6.2802,6.2802,6.2802,6.2802,6.1911,6.0403,5.8053,5.5769,5.3459,5.11,4.9702,4.8913,4.8913,4.8913,4.8913,4.8913,4.8913,4.8913,4.8913,4.9911,5.0575,5.0575,5.1577,5.2209,5.2252,5.2022,5.2001,5.2231,5.1562,5.1416,5.1875,5.0324,4.9664,4.9887,4.9595,5.0585,5.2735,5.3954,5.5139,5.6186,5.6186,5.4864,5.2671,5.1546,5.022,4.8825,4.7951,4.7718,4.791,4.8125,4.921,5.1077,6.9406,6.9406,6.9406,6.9406,6.9481,6.9679,7.0102,7.0227,7.0275,7.0152,7.0152,6.98,6.8851,6.865,6.8374,6.7844,6.7794,6.7794,6.7794,6.7719,6.7668,6.7668,6.7138,6.6861,6.6861,6.6363,6.6061,6.5939,6.5434,6.5128,6.4982,6.4002,6.355,6.3525,6.3028,6.2802,6.2802,6.2802,6.2802,6.2802,6.2802,6.2802,6.2802,6.2802,6.2802,6.2802,6.2802,6.2802,6.2802,6.2802,6.2802,6.2802,6.2802,6.2802,6.2802,6.2802,6.2802,6.2802,6.2802,6.2802,6.2802,6.2802,6.2802,6.2802,6.2802,6.2802,6.2802,6.2802,6.0927,5.8585,5.6247,5.4279,5.223,4.9865,4.9495,4.9495,4.9495,4.9147,4.8913,4.8913,4.9262,4.9656,5.0048,5.1847,5.2992,5.2992,5.4742,5.5835,5.5901,5.5901,5.5901,5.5901,5.5518,5.5495,5.5901,5.358,5.261,5.2948,4.9893,5.0615,5.4668,5.505,5.6503,5.8749,5.8749,5.7464,5.5239,5.3298,5.2216,5.1565,4.9328,4.8562,4.8751,4.8441,5.0297,5.3259,6.9406,6.9406,6.9406,6.9406,6.9828,7.0026,6.9604,6.9953,7.0102,6.9604,6.9506,6.9456,6.9306,6.8876,6.8374,6.7844,6.7794,6.7794,6.7794,6.7389,6.7113,6.7113,6.6538,6.6216,6.6216,6.614,6.5886,6.5409,6.4877,6.4375,6.3902,6.3229,6.2927,6.2927,6.2852,6.2802,6.2802,6.2802,6.2802,6.2802,6.2802,6.2802,6.2802,6.2802,6.2802,6.2802,6.2802,6.2802,6.2802,6.2802,6.2802,6.2802,6.2802,6.2802,6.2802,6.2802,6.2802,6.2802,6.2802,6.2802,6.2802,6.2802,6.2802,6.2802,6.2802,6.2802,6.2802,6.2802,6.0927,5.8609,5.6313,5.5639,5.4654,5.2319,5.1937,5.1937,5.1937,5.0185,4.8913,4.8913,5.0689,5.2724,5.4763,5.5246,5.5421,5.5421,5.5705,5.5879,5.5901,5.5901,5.5901,5.5901,5.5767,5.5767,5.5901,5.5507,5.5354,5.5399,5.2931,5.3134,5.5764,5.7739,5.9915,6.2143,6.2143,6.0815,5.8651,5.831,5.6779,5.4448,5.2498,5.1542,5.1025,4.9395,5.1582,5.5399,6.85,6.85,6.86,6.8901,6.9152,6.9376,6.9381,6.9629,6.9705,6.9431,6.9406,6.928,6.9002,6.8221,6.7467,6.6915,6.6865,6.6865,6.6865,6.6639,6.6488,6.6488,6.6237,6.609,6.609,6.609,6.5685,6.4852,6.4622,6.4396,6.4124,6.3203,6.2802,6.2802,6.2802,6.2802,6.2802,6.2802,6.2802,6.2802,6.2802,6.2802,6.2802,6.2802,6.2802,6.2802,6.2802,6.2802,6.2802,6.2802,6.2802,6.2802,6.2802,6.2802,6.2802,6.2802,6.2802,6.2802,6.2802,6.2802,6.2802,6.2802,6.2802,6.2802,6.2802,6.2802,6.2802,6.2802,6.0927,5.899,5.7991,5.6723,5.5093,5.2768,5.2409,5.1937,5.0644,4.9541,4.94,5.0712,5.1757,5.3326,5.5661,5.7069,5.782,5.782,5.9014,5.9733,5.9733,5.9733,5.9733,5.9733,5.9733,5.9733,5.9733,5.8439,5.782,5.7754,5.5442,5.5551,5.7799,5.7476,5.9351,6.2802,6.2802,6.2199,6.1159,5.9835,5.8595,5.7281,5.5135,5.3398,5.1825,4.9691,5.1009,5.4102]}]]